GFSNGP_700_rhum_000.txt.gz
RH
93 97 97 100 88 81 99 96 85 65 57 61 46 34 32 33 40 47 52 54 51 45 44 47 50 51 50 50 52 55 60 66 67 65 66 68 68 63 25 18 22 22 21 22
97 99 98 99 95 99 100 100 97 91 66 64 37 33 41 39 34 37 48 53 55 60 61 54 52 53 54 54 54 58 64 66 66 66 68 64 57 13 17 23 22 22 23 23
99 100 100 100 91 85 90 96 96 95 72 40 38 44 47 46 43 33 35 41 50 57 66 65 61 60 60 60 60 62 64 65 66 65 61 43 10 19 22 21 22 24 24 25
100 100 84 65 82 93 77 92 94 71 43 43 44 49 50 53 54 50 45 37 45 52 61 60 60 61 62 64 63 63 65 66 62 57 22 14 21 20 20 21 23 23 27 31
88 79 68 63 66 89 97 87 77 62 57 54 51 53 54 55 55 56 57 57 55 59 62 64 65 66 65 65 67 67 64 60 40 18 18 20 19 19 19 21 24 28 32 33
90 82 67 46 51 57 61 60 61 62 65 67 60 58 59 58 57 58 60 64 65 66 68 70 67 66 67 68 65 62 51 31 17 18 17 18 18 18 21 23 26 28 32 40
96 97 64 51 45 56 60 50 48 51 58 61 60 62 61 60 59 58 64 68 69 70 72 70 69 68 66 64 57 41 19 16 15 15 17 17 17 22 24 25 25 32 38 43
92 91 80 60 52 55 52 43 53 54 54 56 62 62 60 58 59 64 70 70 70 71 70 69 69 67 61 46 25 17 15 14 17 18 16 18 23 26 24 25 33 37 38 39
78 64 64 68 63 54 49 48 49 50 47 46 51 55 56 55 62 65 66 68 68 70 72 69 65 47 29 19 16 16 20 21 16 17 21 24 22 22 28 34 36 38 37 35
83 66 63 69 68 58 54 57 54 51 49 46 46 45 50 61 67 69 70 71 72 72 60 45 29 22 19 19 23 23 20 18 20 23 24 21 23 28 34 38 39 38 35 33
85 71 65 66 64 63 64 65 64 58 57 54 54 55 61 65 69 71 73 70 58 48 34 26 22 22 24 24 24 21 21 22 23 21 20 26 31 34 39 43 39 35 33 28
63 68 70 67 66 65 67 68 65 57 59 58 60 63 67 73 74 68 64 58 47 31 24 24 24 25 26 25 22 21 21 21 19 21 27 30 35 42 46 40 36 34 30 25
71 75 74 69 68 69 71 73 68 59 66 64 61 68 69 70 72 69 54 32 25 26 26 26 27 26 24 22 21 21 19 18 23 28 32 36 39 40 38 37 36 32 27 20
76 72 72 71 69 70 73 74 67 68 74 74 75 76 78 78 74 58 31 25 27 27 28 27 25 24 23 21 19 16 19 24 26 31 37 40 40 40 40 38 36 31 21 13
72 68 68 72 66 57 71 70 68 78 80 80 82 85 84 80 64 34 26 28 28 28 25 24 23 22 18 16 17 20 23 26 33 38 40 42 42 42 40 37 32 24 14 10
64 65 58 58 64 67 70 74 80 81 83 87 89 87 85 64 30 27 29 28 25 22 23 22 18 15 16 19 20 22 25 30 35 40 45 45 45 42 38 32 24 13 10 11
42 52 62 70 78 83 84 86 88 89 91 93 91 85 55 27 29 29 26 22 22 22 19 17 16 17 18 19 21 24 29 35 41 46 47 45 42 39 32 23 12 10 12 14
52 68 75 73 76 79 83 90 92 95 96 95 85 43 27 30 27 23 20 21 21 19 17 16 16 15 16 18 21 28 35 40 45 47 44 43 38 30 21 10 10 12 13 20
57 59 70 82 85 87 91 93 94 96 97 86 39 28 28 25 21 21 22 22 20 18 16 14 12 13 15 20 26 31 37 44 46 44 42 37 28 16 7 9 12 13 16 23
70 65 77 85 88 87 78 82 96 98 81 37 28 27 23 21 23 24 23 22 21 17 14 11 12 13 16 20 27 38 46 47 44 40 34 24 9 5 7 10 13 16 22 27
81 80 85 90 89 69 78 96 95 69 36 27 27 22 23 25 25 25 24 23 19 13 11 11 11 14 20 32 42 48 46 41 38 31 17 4 4 6 7 11 16 21 26 31
94 94 95 92 80 69 75 85 65 33 27 26 22 25 26 27 27 27 26 21 14 12 9 10 15 24 36 44 45 42 40 36 27 9 3 5 6 7 12 18 22 28 31 36
94 97 97 90 80 76 77 63 30 28 24 24 27 29 30 30 30 28 23 17 10 9 12 17 26 36 40 40 40 39 34 21 4 4 9 10 10 14 20 25 30 33 36 38
99 97 88 90 79 72 48 28 28 24 27 30 32 33 34 33 29 23 16 11 11 14 18 25 33 37 39 40 38 32 15 3 7 14 16 17 19 26 32 38 40 40 40 38
95 92 92 85 62 38 28 28 26 31 33 36 38 38 34 30 24 16 11 12 13 16 23 29 35 39 40 38 30 10 5 11 16 18 22 28 37 42 44 43 41 40 38 32
98 96 87 54 33 29 28 30 34 37 40 41 40 36 31 24 16 12 12 12 14 21 30 36 40 41 39 28 9 8 15 19 22 30 40 45 44 44 43 44 46 43 36 33
98 95 68 39 29 29 35 38 41 43 45 44 39 34 26 16 11 10 10 13 22 31 37 41 42 40 25 9 11 18 23 26 32 39 44 44 44 46 53 55 52 42 37 33

GFSNGP_700_rhum_003.txt.gz
RH
91 95 98 96 98 90 100 75 74 69 86 30 72 58 61 43 42 43 45 48 53 57 63 68 63 54 54 54 55 60 65 69 74 78 78 73 68 68 68 61 18 17 21 21
97 97 97 99 100 99 76 83 91 87 86 47 43 57 47 44 48 51 50 52 56 61 64 66 62 55 54 56 60 63 67 71 76 76 72 69 67 66 53 13 18 19 20 22
94 99 99 99 84 93 85 88 90 93 48 60 59 51 38 34 39 46 53 56 59 62 59 54 56 57 58 62 63 65 69 71 70 70 70 68 62 34 13 18 18 20 21 22
98 99 97 93 82 84 91 74 74 76 82 80 58 48 47 40 38 42 49 59 64 68 70 74 77 77 76 77 78 77 73 71 70 70 67 55 21 16 16 17 19 20 23 24
100 94 79 82 98 94 98 95 85 88 77 71 59 63 52 52 51 48 42 50 61 73 80 84 87 86 86 81 74 71 70 70 69 62 42 23 16 15 17 18 20 25 25 22
94 95 66 61 70 91 100 98 79 72 67 58 58 57 56 53 53 52 55 58 67 76 78 81 80 79 76 70 67 68 69 64 54 35 18 15 15 19 18 20 23 22 21 24
98 98 66 66 64 74 98 54 59 69 72 57 52 56 55 56 58 59 60 64 70 77 78 79 77 74 71 70 69 65 59 44 22 15 15 19 19 19 22 23 21 21 24 28
96 88 75 61 64 66 57 50 59 62 65 68 66 63 62 62 60 62 63 66 71 75 77 78 76 73 68 67 61 46 25 16 16 21 22 19 20 23 21 19 21 22 22 28
65 69 67 66 58 51 51 53 54 59 58 64 65 66 66 63 61 61 65 72 74 74 73 71 69 70 65 50 29 18 18 23 24 22 21 22 22 20 21 21 20 22 25 28
72 60 65 69 64 56 54 51 50 56 60 61 66 65 62 58 62 66 68 70 70 70 72 72 66 47 28 21 22 25 26 25 23 23 22 20 19 19 20 22 23 27 28 30
86 80 76 67 68 60 61 62 60 56 53 54 52 52 56 61 67 68 70 70 70 70 61 46 32 25 25 26 27 27 26 24 23 22 19 20 20 21 23 27 28 29 34 35
72 75 72 69 66 64 67 69 68 61 60 60 59 62 60 63 66 68 68 65 60 53 41 27 27 28 27 28 27 24 24 23 20 18 20 20 23 26 31 31 34 38 37 34
71 76 70 69 68 69 70 72 70 64 67 63 59 64 65 66 64 66 68 61 42 26 28 29 28 28 26 24 24 23 20 17 19 20 20 21 21 24 28 36 39 36 33 27
76 73 73 70 69 71 71 73 75 72 65 67 68 68 71 74 75 71 58 35 25 28 29 28 26 25 24 23 19 16 18 19 19 19 19 20 26 32 35 33 32 30 24 14
66 76 71 70 72 71 70 72 75 71 72 74 76 80 82 81 75 60 32 25 29 29 26 24 23 22 19 17 17 18 18 17 17 17 21 27 33 35 34 34 29 21 8 5
67 78 70 69 70 61 60 72 72 76 81 82 86 86 82 77 59 27 27 30 27 23 22 22 20 17 17 17 16 14 14 14 16 22 29 34 34 34 32 28 16 3 4 8
72 71 67 63 58 65 69 74 82 86 88 89 89 86 77 48 24 30 29 24 21 21 20 19 18 17 17 14 12 11 13 18 23 30 34 35 34 32 26 9 1 2 6 10
48 55 63 68 68 75 82 85 86 88 91 90 90 83 43 25 30 26 21 20 21 20 20 19 18 15 12 12 11 13 18 24 32 36 34 33 32 22 4 0 3 4 7 13
51 53 56 74 84 87 88 89 93 95 100 98 87 41 26 29 24 19 21 22 22 22 21 18 14 12 10 11 14 18 28 35 35 33 33 30 19 1 0 5 6 7 12 17
63 60 58 73 84 87 88 94 97 95 95 90 46 26 27 22 20 22 23 24 25 23 20 14 12 10 12 14 21 30 34 33 33 34 28 15 0 1 9 10 9 14 19 23
62 74 69 70 82 86 85 88 89 94 91 48 26 26 21 22 24 26 27 28 26 21 16 11 11 13 16 23 29 30 32 34 33 27 13 0 2 11 14 14 16 21 25 28
70 80 79 83 90 89 75 78 88 88 47 25 25 22 23 26 28 30 30 28 23 16 11 13 14 17 23 26 28 32 33 32 27 11 1 6 14 16 19 22 26 32 37 36
88 90 89 93 94 82 72 79 86 55 26 25 22 26 29 32 34 33 30 24 17 13 14 14 17 21 24 27 29 32 33 28 9 3 9 17 20 25 33 38 41 40 39 36
96 97 99 100 95 82 81 80 62 27 25 23 28 32 36 37 35 32 26 18 14 14 14 16 18 20 24 28 32 34 28 9 6 14 21 24 30 39 43 43 42 40 38 34
96 98 99 90 86 85 79 51 25 25 25 31 35 39 40 38 35 29 17 13 13 14 15 15 18 24 28 32 35 25 8 10 19 24 26 33 41 43 43 42 42 41 38 34
98 96 89 95 94 75 44 25 26 29 34 39 42 42 42 38 30 19 14 12 13 14 14 16 22 29 34 35 18 9 14 22 24 26 34 41 42 45 50 55 54 50 43 32
96 96 99 94 72 40 26 27 33 38 41 44 46 46 42 34 23 14 11 12 13 12 15 21 29 35 30 12 11 19 23 22 23 33 40 40 41 51 58 59 55 47 35 33

GFSNGP_700_rhum_006.txt.gz
RH
94 97 98 97 97 96 98 85 91 65 72 46 70 69 96 73 73 57 49 52 56 59 63 65 64 62 54 51 49 48 52 57 62 68 74 79 81 79 76 74 70 61 21 18
98 98 98 98 92 96 98 89 95 82 73 43 69 86 98 84 63 54 50 53 53 64 67 67 67 66 56 54 53 54 57 61 67 75 78 79 77 75 75 70 57 22 17 19
91 98 99 98 97 99 90 93 93 89 38 62 96 96 85 62 55 55 54 55 59 63 65 69 72 72 59 58 59 60 63 69 75 76 74 73 74 75 68 47 22 17 19 22
94 98 98 98 99 90 61 68 72 67 44 62 70 76 71 54 54 58 60 62 66 66 69 71 73 74 65 61 63 67 73 76 77 77 75 75 74 62 37 20 17 20 21 22
98 99 87 74 99 68 70 63 68 55 57 71 83 75 55 49 49 55 61 65 69 73 75 72 68 69 70 71 76 84 85 80 77 75 75 67 50 31 16 17 20 20 23 22
97 100 77 78 96 98 98 91 86 74 70 77 72 56 60 52 43 40 47 60 69 76 79 81 84 86 88 88 85 80 78 75 73 68 56 39 19 16 20 21 21 23 21 21
93 96 78 68 70 89 84 62 63 59 60 56 58 61 64 57 58 52 50 51 58 76 83 84 86 86 84 82 80 76 73 67 59 46 24 16 18 22 22 22 21 18 20 20
100 95 74 69 69 71 59 51 63 66 62 56 51 54 68 60 57 58 60 60 63 72 81 85 85 84 83 77 73 67 63 52 29 18 18 23 23 23 22 18 18 19 17 20
76 71 75 72 69 66 57 54 54 65 63 60 57 59 69 66 63 62 62 64 68 76 82 83 82 77 72 69 66 54 30 20 21 24 25 25 23 20 17 18 17 15 17 22
72 65 70 71 67 54 57 53 58 62 66 69 68 65 63 68 65 62 64 69 75 78 78 74 72 71 68 51 28 23 24 25 26 26 24 22 17 17 18 15 15 18 22 23
77 77 71 65 69 60 60 59 54 62 65 69 69 69 69 60 61 67 70 70 71 72 74 73 67 48 32 25 26 27 27 27 24 23 19 17 17 16 15 17 19 22 25 26
78 80 72 67 68 63 67 66 62 57 55 57 58 58 59 65 68 70 71 72 74 72 61 49 36 26 28 28 28 27 24 23 19 17 17 16 16 18 19 23 28 31 30 27
75 77 72 71 68 66 67 68 67 64 64 67 82 92 69 71 71 73 71 67 64 54 30 26 29 28 28 26 24 22 19 17 17 17 16 14 15 17 20 30 32 31 27 16
73 75 75 72 69 69 70 72 72 73 65 65 64 66 71 72 72 73 71 59 39 26 28 29 28 25 23 22 19 17 17 17 15 14 13 15 16 22 27 27 26 25 10 1
76 74 76 74 71 71 72 72 73 74 70 66 70 75 76 79 78 73 60 36 25 29 29 25 22 21 19 18 18 17 15 14 12 13 14 18 25 29 30 30 25 8 0 4
74 71 75 71 71 72 70 66 76 91 84 77 78 80 83 80 75 64 34 27 30 25 22 21 20 19 19 18 16 13 12 12 13 15 21 28 30 31 31 24 7 0 6 8
71 71 74 70 70 76 64 71 77 79 81 82 90 88 84 76 54 25 30 27 21 21 21 20 21 20 18 15 13 12 12 13 17 24 28 30 32 31 23 6 0 6 10 9
74 76 72 66 59 59 66 73 79 87 92 92 93 88 82 44 26 30 23 20 22 22 22 22 21 18 15 13 13 14 14 20 24 27 31 32 30 23 7 0 6 12 13 13
43 48 50 60 75 80 82 83 86 89 94 97 87 89 43 27 28 21 21 23 24 25 25 23 19 15 13 14 14 16 19 22 28 31 31 30 23 6 2 8 14 16 17 17
49 48 50 63 76 85 86 89 92 96 96 93 91 42 28 26 21 23 25 26 28 28 26 21 16 14 16 15 16 18 23 27 28 30 30 22 7 4 11 16 19 22 25 28
62 62 61 60 73 83 90 94 97 96 94 92 49 27 26 22 24 27 30 32 31 29 23 17 16 16 15 16 18 22 25 28 30 31 20 7 8 15 20 23 26 31 35 37
67 77 76 72 81 87 89 94 96 94 93 58 26 25 23 26 30 33 35 34 31 25 18 17 17 16 16 17 19 22 27 32 30 15 7 12 19 22 24 28 33 35 37 36
81 92 90 84 87 91 94 88 91 95 64 27 25 24 27 32 36 38 38 34 28 20 18 17 16 16 15 16 20 27 32 26 10 8 15 20 21 24 32 36 36 34 33 32
84 96 94 93 97 98 95 82 88 81 38 25 24 29 34 38 40 40 38 30 22 18 17 17 16 14 14 19 27 31 20 8 10 17 19 19 24 33 37 41 47 48 42 33
96 98 98 98 98 97 95 94 83 46 25 24 30 35 39 42 43 41 34 26 18 16 17 17 13 13 19 27 27 14 9 12 15 15 16 25 32 36 41 53 55 50 43 31
98 96 97 99 98 96 93 78 39 25 26 31 37 40 43 47 44 38 30 20 16 18 17 13 13 18 25 23 10 10 13 13 13 15 25 30 34 35 47 51 49 42 33 27
90 93 98 95 97 96 79 38 25 27 32 38 42 46 50 50 44 35 25 18 19 17 12 12 17 24 18 9 11 12 12 12 15 24 30 33 32 37 45 46 39 30 28 31

GFSNGP_700_rhum_009.txt.gz
RH
84 93 98 97 97 96 97 81 94 63 75 55 64 59 52 50 95 94 86 59 41 45 52 56 57 67 66 63 56 48 46 50 55 58 60 63 68 73 76 79 81 81 81 66
96 92 98 98 99 98 98 96 98 90 79 61 75 72 58 98 99 80 76 67 62 60 61 66 71 69 66 60 53 49 51 56 59 61 63 68 72 74 76 78 82 82 59 27
94 96 98 98 95 99 99 99 89 95 52 88 89 96 99 99 81 74 69 67 66 68 70 71 69 68 64 59 55 55 56 59 62 65 69 70 72 74 81 81 80 45 25 19
97 96 98 98 100 98 100 92 91 71 52 79 96 98 97 93 70 67 68 69 69 72 74 75 74 72 67 62 61 62 63 66 70 71 72 74 81 80 80 66 36 19 20 23
98 98 94 92 100 99 73 65 67 51 66 87 84 89 82 66 65 62 66 70 74 79 80 78 79 79 74 68 68 69 71 73 74 78 84 82 78 72 45 26 18 23 24 24
99 99 96 75 94 85 90 77 86 57 54 68 83 82 69 62 64 65 68 74 78 80 81 82 80 81 80 77 75 77 84 89 88 82 76 72 53 36 18 21 24 25 22 18
98 97 82 75 75 87 72 67 73 61 60 66 72 72 63 56 56 61 66 72 80 84 84 84 85 86 90 94 93 89 84 80 76 71 58 42 21 20 25 25 23 19 18 18
97 99 78 72 68 69 62 59 69 59 53 62 64 68 69 60 59 57 54 60 68 78 84 86 88 91 92 88 84 81 77 69 61 46 24 20 25 26 24 21 18 18 16 16
78 68 73 72 69 62 58 58 58 66 59 55 54 61 68 64 64 65 61 64 71 81 84 86 88 88 86 84 77 69 64 48 23 20 26 27 25 22 18 18 17 14 14 18
78 73 67 71 73 60 60 56 59 67 66 58 54 58 69 71 69 64 65 68 71 78 84 85 84 83 76 70 66 46 24 22 26 27 26 23 19 18 19 15 14 15 18 19
73 76 74 67 70 61 58 57 62 63 68 69 68 67 69 70 68 68 68 70 76 80 80 77 73 72 67 44 27 24 27 27 25 23 20 18 19 17 14 14 15 18 19 16
75 74 80 72 69 63 64 62 57 62 66 69 70 67 61 61 64 67 68 69 70 70 71 73 63 46 29 25 27 28 25 23 20 18 19 17 15 14 15 17 24 23 20 18
70 77 79 77 72 67 68 65 64 62 62 66 68 82 67 70 68 68 70 80 75 68 60 48 27 27 28 28 24 23 20 18 19 18 15 14 14 15 20 27 24 22 20 13
73 74 76 74 72 69 68 68 68 70 66 68 73 74 93 86 78 81 75 69 62 42 26 27 29 28 24 22 20 18 19 18 15 14 14 15 16 19 18 17 18 20 13 2
70 73 74 74 73 68 68 72 72 73 70 65 74 72 74 76 77 77 69 50 29 26 30 28 23 22 20 20 19 19 16 15 14 14 15 16 18 17 18 21 22 15 2 4
77 76 76 76 75 72 71 72 73 75 72 80 83 74 79 83 80 72 52 28 29 29 23 22 21 21 21 20 17 15 14 14 15 15 16 17 17 19 22 24 15 3 5 9
72 70 72 75 72 74 76 75 76 83 75 81 82 86 88 82 74 52 27 30 26 21 22 22 23 23 21 18 16 15 16 14 15 15 16 17 19 23 25 14 5 7 12 16
75 90 89 96 77 75 87 75 77 80 83 84 92 92 85 76 44 27 30 22 21 23 25 26 26 22 18 17 19 18 15 15 15 16 17 19 24 24 11 7 11 15 17 20
70 78 79 82 64 67 69 72 77 85 90 95 95 91 84 43 28 27 21 23 25 28 29 28 24 19 20 21 18 16 15 14 15 16 20 24 20 9 9 15 17 18 19 24
45 53 58 62 64 75 80 80 85 92 94 94 90 90 39 28 24 22 24 28 32 32 31 25 21 22 22 19 18 16 14 14 16 21 23 14 8 12 16 16 18 25 29 29
49 49 53 59 71 77 86 89 92 94 99 95 94 50 28 24 23 26 30 35 35 33 28 23 23 22 21 19 16 14 13 16 21 18 9 9 14 15 14 22 29 31 31 28
62 63 62 64 73 81 85 95 98 99 98 92 72 28 25 23 28 33 36 37 36 32 27 24 22 22 20 16 13 12 16 19 13 8 10 13 12 13 22 28 29 34 35 30
62 74 77 75 76 86 89 94 98 98 93 79 32 26 23 28 34 38 39 39 35 31 25 22 22 22 16 12 12 16 18 10 8 10 11 11 12 22 24 25 35 38 36 31
62 76 86 88 87 93 96 97 97 90 87 47 26 24 28 34 38 41 43 39 34 28 23 23 22 16 12 12 16 16 10 8 9 10 11 13 21 23 22 27 39 41 35 26
77 95 100 95 92 96 98 97 92 90 74 27 24 28 35 40 43 46 44 38 33 24 23 24 17 12 11 15 14 9 9 9 10 11 14 21 22 23 23 33 37 34 26 21
90 97 96 96 100 100 99 95 97 86 33 25 27 35 40 45 48 47 44 39 28 25 26 18 12 11 14 12 9 8 9 10 10 14 20 22 23 24 27 36 34 25 20 24
89 99 98 94 99 98 97 98 86 35 26 27 34 40 45 48 48 50 46 34 28 27 18 12 12 13 12 9 8 8 10 11 14 19 22 24 26 28 32 34 27 21 23 37

GFSNGP_700_rhum_012.txt.gz
RH
78 88 98 100 99 99 98 84 95 64 70 65 71 73 75 77 58 58 81 94 66 31 38 51 58 62 63 71 72 72 62 56 49 46 54 57 60 63 69 75 81 94 87 88
91 96 99 99 97 100 100 99 99 98 94 57 98 98 84 77 96 81 98 83 60 33 43 50 67 72 72 74 90 87 75 58 52 71 58 62 64 69 74 82 97 90 91 87
94 97 98 98 99 100 96 97 99 99 60 96 95 98 98 97 100 99 90 69 41 31 42 62 73 79 80 95 98 95 68 69 86 62 62 66 70 74 83 95 97 94 84 47
97 96 96 99 100 100 96 90 100 87 66 94 97 96 99 100 95 98 91 77 64 62 65 72 81 86 98 100 100 84 78 65 62 64 68 73 78 85 96 98 93 68 35 21
98 98 87 98 97 99 99 95 88 67 72 98 99 99 100 94 88 96 86 83 83 85 88 87 87 87 85 76 67 64 64 66 68 73 79 84 92 98 97 80 43 24 22 26
99 98 91 97 92 98 99 86 79 72 75 82 89 90 91 88 77 73 77 78 75 74 77 78 77 76 73 72 70 70 72 76 79 86 96 98 94 80 50 33 20 26 26 22
99 98 87 90 87 82 78 74 73 62 70 73 77 74 75 66 75 79 81 81 80 81 82 83 85 85 83 80 78 79 85 97 100 96 90 78 58 42 21 25 27 24 19 17
92 93 83 74 68 70 64 61 66 76 77 70 75 70 69 72 73 84 80 76 79 82 82 81 86 85 87 94 99 100 98 95 87 74 57 41 22 25 27 25 21 18 16 14
79 73 64 67 69 60 62 60 70 72 75 82 86 76 75 77 84 82 84 86 89 88 86 89 95 100 100 100 100 97 85 68 56 37 22 25 28 26 22 18 18 15 14 14
79 76 76 65 65 60 61 62 60 70 65 59 57 70 74 73 66 68 71 78 84 90 95 96 99 100 100 99 85 68 56 36 22 26 28 26 23 19 18 16 15 14 15 16
73 79 75 68 63 62 61 60 66 69 68 57 61 68 71 75 72 70 74 82 89 98 100 100 100 93 80 67 57 36 24 26 28 26 23 19 18 18 15 15 15 16 16 16
79 70 79 76 66 65 66 58 61 68 68 68 70 70 67 67 70 76 81 86 89 96 97 83 72 67 55 39 26 27 28 25 22 19 19 19 16 16 15 15 16 17 18 18
73 72 79 79 73 70 69 64 60 59 64 66 67 70 77 70 72 76 78 74 78 92 82 68 55 42 26 28 28 24 22 20 19 20 18 16 16 15 16 18 18 20 20 18
72 74 77 78 75 71 70 69 68 65 65 73 80 81 90 78 73 74 81 84 74 65 57 40 27 28 28 24 22 20 20 21 19 18 18 16 15 16 16 16 16 20 17 9
70 74 75 78 76 72 71 73 73 73 69 68 73 82 92 88 81 74 73 68 56 39 27 28 28 24 22 21 21 22 21 19 19 18 16 16 15 15 14 16 18 14 7 7
68 77 76 78 77 75 73 74 74 75 72 70 70 72 74 77 81 77 67 50 31 28 29 23 22 22 22 24 23 21 20 21 18 17 16 15 13 13 16 16 10 7 9 11
72 78 78 75 76 76 76 76 76 76 74 78 95 80 84 86 80 70 49 29 30 24 22 22 24 26 26 25 21 22 21 18 18 16 14 12 13 15 13 7 8 11 12 13
73 75 77 87 80 75 79 79 91 86 89 85 84 88 92 84 68 41 29 29 21 22 24 27 29 28 25 23 23 21 20 18 16 13 11 14 13 9 7 9 10 11 15 21
73 83 86 86 86 83 86 86 85 84 84 86 91 95 90 80 47 29 27 21 24 27 30 33 30 27 25 24 22 22 19 15 12 12 14 12 8 8 9 10 11 18 20 22
63 79 80 86 85 72 77 80 82 83 87 92 96 94 85 55 29 25 22 26 30 33 35 33 29 26 24 23 23 19 14 11 12 13 10 8 8 9 9 11 18 19 23 29
45 48 59 68 71 65 72 81 82 86 96 97 93 88 63 29 25 22 27 32 35 37 36 31 27 24 24 24 20 14 11 12 12 9 8 8 8 9 11 18 18 20 31 28
50 51 50 53 66 72 76 84 89 97 97 93 91 82 31 26 23 27 33 37 39 38 34 28 25 24 25 20 14 12 12 11 9 8 8 8 9 11 18 19 18 27 32 26
64 68 66 64 66 77 83 87 95 97 98 99 93 47 27 23 27 33 38 40 41 37 32 27 25 26 22 14 12 12 11 9 8 8 8 10 11 17 20 20 20 30 28 21
55 69 78 77 75 81 88 90 95 99 98 94 79 30 24 26 32 38 42 44 42 37 32 27 28 24 15 13 12 11 9 8 8 9 10 12 16 20 21 20 23 30 23 17
51 70 90 89 85 87 95 98 98 98 95 92 55 26 25 31 37 41 46 45 43 38 31 30 26 15 13 12 10 9 8 8 9 11 13 17 20 21 22 22 27 27 18 16
37 68 92 96 96 97 98 98 98 97 97 88 33 25 28 37 42 46 45 47 45 36 33 28 16 14 12 10 9 7 8 9 12 16 18 20 23 25 26 27 29 22 17 27
38 72 100 99 99 98 98 98 99 99 97 43 26 27 35 41 47 44 46 50 44 36 32 18 14 12 10 9 8 8 10 13 16 22 27 30 30 29 29 29 26 18 22 46

GFSNGP_700_rhum_015.txt.gz
RH
97 96 98 93 91 97 98 94 99 73 84 79 75 90 92 82 89 79 92 65 87 63 81 49 42 64 64 65 66 71 71 72 72 98 90 99 69 70 62 63 64 68 73 79
99 81 92 99 99 99 100 99 100 100 90 88 98 86 87 87 86 71 92 61 72 73 80 42 47 61 59 63 74 85 79 90 100 99 99 66 68 67 78 71 71 75 80 87
90 85 90 92 100 99 96 91 100 100 92 96 96 93 90 98 99 94 98 98 79 82 59 30 49 56 62 67 74 94 94 99 100 93 71 69 86 93 82 78 79 82 89 98
90 84 91 96 94 100 98 98 99 100 88 89 99 97 98 99 99 99 100 98 82 63 36 50 55 72 86 79 87 100 100 100 100 94 83 96 87 86 84 87 86 94 98 90
98 90 77 97 100 99 98 96 92 97 96 92 100 100 99 99 100 100 100 95 77 53 58 65 88 97 98 99 100 100 100 99 94 96 83 81 83 88 91 96 99 97 55 25
99 97 82 92 95 84 100 82 80 77 94 88 88 100 100 99 100 100 100 93 77 74 93 100 100 100 100 100 100 98 93 86 78 81 86 91 93 99 100 96 66 33 25 28
99 97 86 74 79 80 79 70 82 77 74 72 77 82 90 94 95 99 100 100 100 100 100 100 100 99 95 85 75 77 80 86 90 93 100 100 98 92 66 41 25 28 25 19
99 98 87 69 70 78 70 67 77 75 75 69 70 74 80 87 97 97 95 92 94 90 88 87 85 83 82 81 83 85 85 96 100 99 92 83 65 42 25 27 26 20 18 17
86 78 75 76 69 68 64 64 69 77 82 83 81 88 82 93 97 97 96 90 88 85 80 81 86 87 88 89 98 100 99 96 91 79 62 38 25 28 26 21 19 18 16 16
80 80 75 76 65 65 63 66 69 68 71 73 76 78 79 83 81 88 95 90 88 86 89 87 88 93 93 98 99 96 88 70 59 33 26 28 26 21 19 19 17 17 16 15
74 72 74 80 69 65 61 66 73 74 70 60 68 73 87 95 85 81 87 91 94 94 96 98 99 97 99 96 85 68 55 33 27 28 25 21 19 20 18 18 17 16 15 13
81 81 72 72 74 67 63 60 68 69 64 63 77 87 78 76 74 76 81 90 97 98 99 99 100 97 79 67 53 33 28 28 25 21 20 21 19 19 18 17 16 15 12 11
80 73 74 75 77 72 68 62 65 68 70 70 69 72 80 83 76 82 87 91 97 100 100 97 75 65 52 30 28 29 24 22 20 22 20 20 20 18 18 16 14 10 11 12
68 73 70 76 77 74 70 66 64 62 63 69 76 74 83 86 80 83 86 82 82 94 81 62 48 29 28 29 24 22 21 22 22 21 21 21 18 18 15 11 10 12 9 6
71 71 71 75 80 77 74 70 71 69 69 72 73 78 85 87 92 86 90 85 70 63 47 28 28 29 24 22 21 23 24 23 22 22 20 20 17 13 11 10 10 7 6 7
73 71 69 71 78 79 79 77 87 76 74 74 76 81 89 91 79 77 75 66 49 31 28 30 25 22 22 24 25 25 23 24 23 21 20 16 12 10 10 8 7 6 7 8
79 75 70 74 79 79 86 87 79 78 75 77 78 84 78 82 83 76 64 45 30 30 27 22 22 24 27 28 26 25 25 23 23 20 15 11 10 9 8 7 7 7 9 13
77 80 82 86 84 83 82 83 83 80 84 80 92 86 86 88 80 67 46 30 30 22 22 25 28 30 30 27 26 25 24 24 19 14 12 10 9 8 7 7 7 9 13 14
62 76 92 85 85 81 81 96 89 94 95 91 84 86 92 88 76 50 30 28 22 24 27 31 34 32 29 27 26 26 24 18 14 12 10 9 8 7 7 8 9 13 14 14
61 78 99 99 98 87 97 98 96 90 88 84 86 92 94 87 61 31 27 22 25 30 35 36 35 31 28 26 27 25 18 14 12 10 9 8 8 7 8 9 12 14 14 20
52 75 89 95 97 95 82 84 85 84 84 86 94 94 86 70 33 28 22 25 31 36 38 37 34 30 28 28 26 19 15 13 10 9 8 8 8 8 9 12 14 15 16 23
47 50 55 63 74 81 75 74 83 87 88 95 90 88 84 42 28 23 25 31 36 39 40 37 34 30 29 28 21 15 14 11 9 8 8 8 8 10 13 16 16 18 22 24
59 53 54 55 57 68 75 79 84 88 94 99 96 98 79 32 25 24 30 36 39 42 41 39 34 31 31 23 16 14 11 10 8 8 8 9 11 14 16 18 19 21 27 21
59 64 68 68 66 68 80 84 86 92 96 98 97 95 56 28 24 28 35 40 44 44 43 39 34 34 27 17 15 12 10 8 8 8 10 13 16 19 21 22 25 26 27 18
32 53 69 79 80 77 81 91 94 97 98 98 97 94 53 27 25 31 38 44 45 45 45 40 37 31 19 16 12 10 9 8 8 10 13 18 23 28 31 31 30 29 24 16
33 37 58 78 89 89 89 93 96 99 98 98 97 86 35 25 28 37 43 44 43 47 46 41 35 22 17 14 11 10 8 9 10 14 17 20 24 29 36 35 31 27 18 20
39 40 57 87 99 96 97 100 100 98 98 97 94 51 27 26 33 40 45 41 45 50 46 40 25 18 15 12 10 8 8 10 14 17 21 25 28 28 34 32 28 21 17 40

GFSNGP_700_rhum_021.txt.gz
RH
79 67 74 74 74 74 87 81 99 72 90 66 97 99 100 99 99 92 83 91 93 77 72 64 58 44 55 73 70 78 82 94 98 80 86 88 97 98 92 98 100 100 100 100
74 82 81 81 79 79 84 92 99 98 97 97 100 99 100 94 100 98 100 91 90 94 88 86 68 43 74 92 97 97 99 100 72 86 96 99 88 100 100 99 99 100 99 100
80 80 82 82 76 87 91 92 98 98 89 98 98 100 99 98 100 99 99 96 93 99 84 82 74 67 99 93 94 100 100 95 88 95 97 100 82 100 100 100 100 99 99 93
86 80 90 85 78 83 84 82 96 98 99 90 98 100 100 100 97 99 95 87 88 85 86 94 100 99 99 99 100 100 92 96 99 99 100 99 100 100 99 96 98 96 97 100
100 97 76 79 76 83 87 76 80 87 88 84 85 100 100 100 98 100 100 99 99 99 100 100 100 99 99 100 100 100 100 100 100 100 100 100 99 99 99 94 97 94 94 96
98 99 96 76 71 80 84 78 80 75 85 78 90 95 99 100 90 99 98 100 97 89 83 83 92 97 100 100 99 100 100 100 98 99 99 99 99 98 90 85 91 99 99 94
98 97 74 62 83 86 85 72 79 72 80 78 89 91 94 100 99 98 100 99 97 97 97 100 96 99 100 99 99 99 98 99 99 99 99 96 96 94 97 100 98 73 33 27
100 98 84 83 88 88 84 73 69 70 77 87 85 91 93 98 98 98 99 100 100 100 99 98 96 98 98 98 97 95 96 97 96 99 97 99 100 100 83 49 29 27 22 21
77 70 79 83 88 85 82 70 67 67 78 86 82 83 93 97 98 99 93 90 93 97 96 96 91 94 95 96 96 98 100 100 100 100 96 75 51 32 28 27 21 21 22 22
95 72 89 88 86 85 74 67 65 69 77 82 82 80 82 93 96 100 96 94 93 98 97 92 91 92 100 99 99 100 98 83 66 52 33 28 28 24 21 22 23 23 21 20
95 80 80 88 86 74 75 68 64 75 74 75 78 76 89 93 94 99 99 98 97 96 96 99 99 94 98 99 97 85 59 39 28 29 27 22 22 23 23 24 22 21 17 12
87 98 96 88 77 76 78 71 64 71 72 68 66 76 82 91 99 98 98 100 100 99 99 98 99 98 98 81 58 38 28 29 27 22 22 24 24 25 24 22 19 14 11 9
88 94 92 86 75 77 79 74 66 70 70 66 73 81 81 85 94 92 94 100 100 100 100 99 99 98 67 51 29 29 27 23 22 25 25 26 26 24 22 17 14 11 8 8
98 93 78 70 68 73 74 77 70 69 72 72 74 76 80 85 88 93 100 100 99 100 100 99 87 63 42 28 29 23 23 26 27 27 27 25 24 20 16 14 11 9 8 8
100 100 92 82 69 72 71 82 88 90 72 71 76 75 77 86 93 98 99 99 99 99 92 69 52 30 29 26 23 25 28 29 28 27 26 24 20 16 15 12 9 9 8 7
96 88 81 77 79 77 72 82 91 96 78 83 82 76 80 84 92 97 97 97 90 73 59 37 29 29 23 24 29 31 30 29 27 27 24 20 17 15 12 10 9 8 8 7
93 97 93 89 83 81 81 87 94 98 97 98 92 86 90 89 81 83 79 71 60 45 32 30 25 23 28 33 32 31 30 28 28 25 21 18 16 13 11 10 9 8 8 8
87 83 85 88 89 88 81 90 93 97 99 97 98 96 97 94 88 85 74 60 42 31 30 23 25 31 35 35 33 31 30 30 27 22 19 17 14 12 11 9 8 8 9 11
83 80 85 91 91 95 96 98 93 96 94 97 97 98 91 90 92 83 69 45 32 28 23 27 33 37 37 35 34 34 32 30 25 21 18 14 12 11 9 8 9 12 14 17
90 96 94 94 97 99 100 99 98 94 97 95 98 96 91 95 92 83 58 34 28 23 27 34 38 39 38 38 36 35 34 29 22 19 15 13 10 8 8 10 14 18 22 24
98 98 92 97 96 99 99 99 98 97 98 94 98 97 96 97 88 71 40 30 23 26 33 38 40 40 40 40 39 38 32 24 19 16 13 9 7 7 10 14 18 20 23 25
98 92 84 92 97 97 99 97 98 96 94 97 98 94 95 95 80 54 33 25 24 31 37 41 42 41 42 42 42 36 26 20 16 13 8 6 6 8 10 13 17 19 23 23
90 90 92 96 96 90 83 96 98 98 98 99 98 98 98 94 78 46 29 24 27 35 39 43 41 40 42 44 40 29 22 17 13 8 6 6 6 8 8 9 14 20 22 17
44 44 59 78 78 87 93 94 96 98 98 98 97 98 97 97 96 51 27 24 29 36 42 43 39 41 45 44 34 24 18 13 8 6 6 6 7 7 7 10 14 16 14 11
48 44 41 40 56 83 77 76 79 87 96 98 97 96 97 97 96 58 30 26 31 38 43 41 40 44 47 40 27 20 15 9 6 6 6 6 7 8 9 11 13 11 10 19
54 48 48 45 42 48 77 85 84 89 97 100 98 97 98 97 95 50 28 26 32 41 44 42 44 50 46 33 24 17 10 6 6 6 6 6 7 8 9 9 9 9 18 40
70 61 53 48 47 47 51 82 94 94 99 100 99 98 96 98 97 67 28 28 36 45 45 46 52 53 43 28 20 11 7 7 6 6 7 7 7 8 8 7 8 20 40 48

GFSNGP_700_rhum_024.txt.gz
RH
81 81 86 80 81 83 88 79 96 67 80 74 94 99 98 99 99 95 94 93 99 90 98 96 85 76 62 56 48 40 42 69 68 77 83 82 96 79 91 96 100 95 100 100
73 80 79 79 75 79 78 78 86 84 81 85 93 98 99 100 95 87 88 97 100 88 84 85 89 86 72 66 68 57 59 66 92 97 100 93 95 100 82 99 100 100 100 100
79 84 80 79 70 74 79 85 89 92 76 90 89 88 98 99 98 94 97 99 96 81 91 98 95 88 86 75 68 72 77 80 98 98 94 100 99 99 100 100 100 100 99 99
84 79 92 81 73 84 86 84 84 77 80 88 89 98 100 100 96 99 98 98 99 98 100 99 96 96 95 96 97 100 94 99 99 99 98 96 100 100 98 100 100 98 99 98
99 100 72 62 74 80 88 68 71 80 79 84 88 96 100 97 99 100 95 98 99 99 99 99 99 98 98 98 98 98 98 99 100 100 100 100 100 100 99 99 99 97 98 100
99 98 95 80 72 83 90 74 76 80 75 78 90 93 97 100 96 100 100 99 100 99 100 95 95 98 100 100 100 100 100 99 100 100 99 99 99 98 98 98 99 98 97 96
99 96 72 64 87 89 83 82 85 71 72 75 89 94 96 93 98 98 94 99 100 100 98 100 100 96 99 100 99 99 99 99 99 100 100 98 99 98 99 96 97 98 79 36
100 99 84 80 87 91 88 84 76 69 72 77 84 87 96 97 92 88 93 93 96 100 98 99 98 99 99 98 99 98 99 99 98 98 98 97 98 96 91 73 45 30 27 22
77 72 76 87 88 86 90 79 73 68 70 80 81 82 89 97 97 93 90 91 94 92 94 88 95 98 97 99 97 98 99 99 99 100 95 77 55 36 29 27 23 22 24 24
96 72 81 90 84 88 90 75 74 69 73 78 77 83 93 100 89 96 92 88 87 95 92 88 92 88 95 98 99 95 85 69 54 37 29 29 27 23 22 24 24 24 22 20
95 76 78 87 90 92 78 81 74 69 79 78 79 79 84 98 100 92 92 98 90 97 100 88 90 97 94 83 70 57 38 29 29 27 23 22 24 24 24 24 22 21 17 14
81 76 96 93 92 81 77 82 78 69 74 72 64 70 84 96 96 99 96 98 98 98 98 99 100 98 74 56 36 29 29 24 23 24 26 26 26 26 24 23 19 16 14 12
93 95 76 74 86 79 73 76 82 70 74 70 70 81 78 83 90 100 100 100 99 99 98 99 100 70 56 30 30 26 23 24 26 26 26 26 25 25 22 18 16 15 12 10
88 98 87 77 75 76 71 72 80 74 74 75 76 77 77 81 89 92 98 99 99 100 100 98 71 52 29 30 24 23 27 28 27 28 28 27 26 21 18 17 15 12 11 10
100 97 100 93 82 79 75 73 77 86 83 86 81 80 74 83 91 97 100 100 99 100 86 68 45 29 29 23 25 30 32 31 30 28 28 26 22 19 18 16 13 12 11 10
98 94 99 99 85 78 71 74 79 88 92 98 91 83 79 82 90 100 99 97 95 80 65 39 30 28 23 26 32 33 32 31 29 29 27 23 20 19 16 14 12 11 9 8
79 85 92 81 82 81 81 80 79 91 92 98 97 98 92 87 83 85 83 76 69 57 37 30 28 23 28 34 35 34 32 31 31 30 26 22 20 17 15 12 9 7 8 11
88 90 92 92 93 91 89 88 91 96 96 99 98 95 97 97 88 84 78 66 51 36 31 27 23 28 35 37 35 34 33 33 33 29 24 21 17 14 10 7 7 9 12 14
88 91 94 88 94 94 93 97 97 98 98 100 97 99 100 95 91 89 74 57 40 32 28 23 28 35 38 37 37 36 36 36 33 26 21 18 14 8 5 5 7 9 11 14
100 94 91 97 99 98 96 100 100 99 98 99 98 96 98 90 95 90 76 52 35 29 23 27 35 39 39 40 39 39 40 37 29 23 18 13 7 5 4 5 7 7 9 12
99 99 97 98 97 86 99 100 100 99 98 99 99 99 98 98 98 91 66 38 31 24 25 33 38 40 41 41 41 42 41 33 25 19 14 7 5 4 4 6 6 6 10 13
72 98 98 89 96 95 98 99 99 99 98 99 98 97 96 97 98 84 52 34 27 24 28 36 40 42 41 41 43 44 38 28 22 15 8 5 4 4 5 6 6 8 10 10
51 72 86 89 95 96 95 98 98 98 99 98 98 98 98 98 97 60 40 36 24 25 32 38 42 42 41 42 45 43 34 25 17 9 5 4 4 4 5 7 8 8 7 8
55 51 48 47 59 74 86 92 95 96 98 98 98 97 95 97 96 92 84 33 25 26 34 39 43 42 41 45 48 42 30 21 12 6 4 3 4 5 6 7 7 7 7 12
61 62 56 52 46 49 77 81 78 83 83 85 95 97 96 97 97 95 89 39 26 26 33 41 44 43 44 49 50 38 24 14 7 4 4 4 4 5 5 6 6 6 9 23
64 66 68 63 56 49 49 70 85 82 83 86 93 100 97 97 97 97 94 40 27 27 34 42 45 45 50 54 49 33 20 9 5 4 4 5 5 5 6 6 6 8 20 35
44 45 53 68 68 60 54 56 72 90 90 94 99 100 100 100 97 98 98 90 33 28 34 44 47 51 56 59 49 26 12 6 5 6 6 6 6 6 6 6 9 20 34 42

GFSNGP_700_rhum_027.txt.gz
RH
80 81 85 81 82 81 81 74 85 51 67 69 82 92 92 92 95 96 89 90 78 72 80 64 76 87 96 94 75 66 60 49 42 39 39 58 69 77 79 91 95 100 88 100
71 66 67 69 64 69 77 82 82 72 76 84 85 86 93 100 98 93 91 95 89 65 74 69 79 76 82 89 86 71 57 46 36 36 47 68 73 90 99 97 88 99 96 100
78 88 88 78 65 66 65 69 73 82 79 87 78 84 99 99 97 98 96 100 96 68 78 79 90 88 87 86 67 58 50 46 46 42 52 74 91 93 100 100 97 89 100 96
84 81 96 80 77 81 83 82 86 77 85 85 82 86 97 94 94 99 80 83 86 99 95 97 98 96 98 98 98 91 65 63 59 77 80 93 98 100 100 96 99 98 100 100
92 97 79 60 75 79 81 72 77 79 87 84 76 84 92 88 97 96 98 80 69 85 95 98 97 97 98 99 100 99 94 96 90 98 95 99 99 99 100 99 98 100 99 98
100 100 97 86 77 80 84 80 84 83 80 78 78 85 93 89 88 79 91 100 99 98 99 100 99 99 99 98 99 100 95 98 98 98 99 98 99 100 100 99 99 98 98 99
97 96 72 66 74 88 86 83 88 80 77 75 82 85 91 95 86 82 83 98 92 90 98 97 100 100 100 98 98 99 100 98 100 99 99 99 99 99 98 98 99 97 95 83
100 98 86 68 88 92 88 86 89 76 74 74 84 86 89 97 95 86 79 93 91 91 92 89 92 98 95 96 99 98 98 97 97 98 98 98 98 97 94 85 62 36 28 24
80 71 77 96 89 86 89 92 81 73 72 73 84 89 88 92 82 91 83 76 83 86 78 81 91 100 100 95 98 100 100 100 100 96 80 60 43 32 29 26 23 24 26 26
94 77 73 83 93 95 93 88 80 78 70 78 85 91 87 92 91 83 93 89 90 94 86 91 92 80 87 87 81 72 59 47 35 29 29 26 23 24 27 28 28 27 24 22
95 82 79 85 84 86 85 82 80 79 71 81 85 92 84 85 95 99 90 94 99 95 85 87 93 83 70 59 44 31 29 29 26 23 24 27 29 29 29 27 25 22 19 17
86 82 76 72 91 88 78 80 74 81 73 75 75 71 81 87 99 100 96 95 100 99 97 91 98 74 57 34 29 29 24 23 26 29 30 30 29 27 25 22 19 18 17 15
91 85 80 73 67 74 83 87 75 76 78 75 72 73 84 84 89 100 100 96 98 99 100 93 83 62 32 30 27 23 25 29 31 31 31 28 27 24 21 20 20 18 16 15
98 99 94 85 89 80 72 76 74 70 81 77 79 81 78 80 88 99 100 99 100 99 100 100 67 39 30 27 24 28 32 33 32 30 29 28 26 24 22 22 19 16 14 11
99 98 98 96 94 98 83 77 72 69 75 84 87 90 85 77 86 98 100 99 99 99 100 71 47 30 28 24 29 34 33 33 31 31 30 28 26 24 22 18 16 12 9 7
85 82 94 95 95 99 85 78 70 68 74 74 87 98 92 82 82 96 100 100 99 98 74 51 31 30 24 29 34 35 34 33 33 33 32 29 26 23 19 15 10 6 6 6
55 56 69 83 92 93 92 82 74 76 80 77 85 98 96 94 92 95 100 99 96 74 56 34 31 24 28 35 36 36 36 36 36 36 33 29 24 19 14 8 5 4 4 5
52 82 97 92 93 97 98 95 86 86 92 97 96 100 99 97 88 85 81 75 66 51 35 31 25 26 34 37 38 38 38 39 40 37 32 26 20 14 8 5 4 4 4 4
83 93 92 95 97 98 100 96 94 97 100 98 100 100 98 100 97 92 86 69 54 38 32 27 24 31 37 39 39 39 40 42 41 35 29 22 16 8 5 4 4 4 4 4
88 100 100 100 99 99 98 98 100 98 98 98 100 99 98 100 93 93 87 71 53 37 30 24 28 36 39 40 40 40 41 43 40 32 26 18 10 5 4 3 3 4 4 5
94 99 99 99 98 97 96 93 90 99 100 98 99 99 98 99 92 96 91 69 42 33 25 24 32 37 40 41 40 40 43 44 39 31 22 12 6 4 3 3 4 4 6 7
72 87 95 96 95 98 97 98 99 99 99 99 98 98 92 93 94 96 90 64 42 31 24 26 33 38 41 41 40 41 45 46 37 28 16 8 4 3 3 4 4 6 7 6
60 62 68 73 83 92 93 98 99 98 98 98 98 98 97 98 93 96 86 47 34 28 24 26 34 39 42 42 41 44 48 46 36 22 10 5 3 3 4 4 5 6 6 7
63 63 63 59 54 72 82 89 92 98 98 98 98 97 98 97 92 96 94 57 55 34 24 26 34 39 43 43 43 48 52 45 30 15 6 4 3 4 4 4 5 6 6 9
60 57 57 59 62 57 52 75 86 82 86 91 92 96 98 97 98 96 95 90 72 38 25 26 33 40 44 44 48 52 55 42 23 8 5 4 4 5 4 5 6 6 7 15
61 54 48 47 50 56 60 53 56 84 91 92 96 100 97 91 97 98 97 97 94 58 29 27 32 40 45 48 53 58 56 38 15 6 6 6 6 6 5 6 6 8 14 30
38 32 24 22 26 32 47 62 58 53 70 93 96 97 100 100 99 97 97 97 97 85 54 32 32 40 46 54 61 62 56 26 8 6 10 10 12 12 12 12 15 23 34 40

GFSNGP_700_rhum_030.txt.gz
RH
75 77 82 79 83 80 80 71 73 56 55 66 83 85 84 95 98 94 90 67 67 66 44 34 35 50 53 64 65 96 94 98 95 92 71 50 44 38 41 55 68 74 81 88
75 70 72 73 70 81 82 78 76 66 65 84 86 81 82 94 94 92 100 88 64 66 51 51 46 49 61 66 83 99 98 90 79 71 49 39 39 35 54 65 80 86 100 98
78 87 89 77 69 68 59 54 57 67 75 89 76 74 79 86 81 82 97 76 57 58 66 72 91 100 100 99 98 95 79 82 72 55 51 45 43 62 82 88 84 86 100 100
82 75 95 72 82 82 79 81 79 75 83 88 86 74 84 85 76 77 78 96 87 86 79 77 72 97 96 99 97 100 98 77 66 51 54 57 69 86 99 97 99 99 97 100
84 88 76 62 78 77 80 83 79 80 89 86 85 74 88 83 80 75 78 99 94 87 95 99 91 99 100 100 95 100 99 98 93 97 74 97 98 91 90 98 99 99 99 99
94 99 96 88 84 76 88 94 90 85 82 81 78 81 87 84 84 77 72 79 76 77 83 86 97 99 100 99 99 99 100 100 99 95 87 100 97 97 98 99 99 99 98 98
100 96 68 65 85 95 94 91 87 86 78 78 78 86 85 95 82 84 78 82 79 76 79 81 80 83 92 93 98 93 95 98 98 98 98 98 98 98 98 98 98 97 98 97
100 99 84 65 73 94 95 90 85 85 75 76 76 87 85 92 85 86 78 76 72 75 83 83 83 84 85 92 94 97 97 98 98 98 97 97 97 97 97 94 63 39 28 25
71 70 75 85 97 97 96 88 88 77 79 74 78 88 87 90 86 82 82 81 78 74 76 75 82 83 90 84 74 77 74 64 56 44 38 32 29 28 26 24 24 27 28 27
89 76 76 82 87 88 93 92 92 82 82 74 82 88 91 90 90 90 92 87 92 80 75 74 70 68 62 53 40 31 30 30 28 25 24 24 26 28 28 29 28 25 23 20
87 78 79 81 92 90 84 87 82 82 82 78 80 89 91 91 85 97 98 89 87 93 76 78 77 64 47 31 30 29 26 24 25 28 29 30 30 29 27 25 23 21 21 21
85 86 75 66 72 79 82 79 83 88 78 82 76 77 79 81 86 100 98 92 100 97 97 83 78 64 37 30 29 24 25 28 30 31 31 30 28 27 25 23 23 23 21 18
82 82 80 75 75 74 74 79 79 85 86 76 77 75 74 84 86 92 94 100 100 96 99 95 76 61 30 30 24 25 30 33 33 32 31 30 28 26 25 25 23 19 16 11
90 91 89 98 89 84 79 79 71 79 81 72 81 83 87 90 87 89 100 99 98 100 93 100 78 49 30 26 25 30 34 34 33 31 31 30 29 28 26 23 19 14 8 5
100 98 97 87 90 98 95 99 88 86 81 73 72 82 89 91 92 87 95 99 99 99 95 100 71 35 31 24 30 35 35 34 33 33 34 34 31 28 24 18 12 7 4 3
92 93 85 79 73 86 99 98 94 92 84 77 71 75 84 95 99 89 96 98 100 99 99 92 51 31 27 26 34 36 35 35 36 38 38 34 30 25 20 13 7 4 3 3
47 54 53 58 70 71 89 99 100 95 83 79 79 80 85 94 96 91 94 100 100 99 97 84 38 31 24 31 36 37 38 38 40 40 38 34 28 22 15 8 5 3 3 3
67 63 66 82 90 93 88 99 98 99 91 88 90 92 94 94 100 94 98 100 98 88 68 43 32 27 26 35 38 38 39 40 41 42 38 33 27 19 11 6 4 3 3 3
77 82 80 90 91 92 96 99 99 100 98 99 100 100 100 100 100 96 89 84 74 62 48 35 32 25 30 37 39 39 40 39 42 43 40 34 25 15 8 4 3 3 3 3
82 96 99 99 100 100 99 99 99 100 98 99 100 97 99 100 100 97 98 93 80 62 48 35 28 25 34 38 40 40 39 40 43 46 43 34 21 11 6 3 3 4 4 4
86 96 98 98 98 98 99 99 98 94 97 100 100 100 99 99 99 98 94 88 77 58 39 33 25 27 36 39 41 40 39 40 45 49 45 31 16 7 4 3 4 4 4 4
70 81 86 88 94 97 88 88 97 100 100 100 100 100 99 98 98 97 95 94 94 58 38 30 24 29 36 40 42 41 39 41 47 51 43 25 11 5 4 4 4 4 4 5
67 69 69 67 61 68 84 71 73 92 99 98 98 98 98 98 98 97 97 97 96 60 36 28 24 28 35 40 42 42 41 44 50 53 40 19 7 4 4 4 4 4 4 5
65 63 64 60 57 59 60 63 76 81 88 98 98 98 98 98 97 96 97 96 96 85 46 39 25 27 34 38 42 43 44 49 54 56 35 12 5 6 5 5 4 4 5 6
75 72 66 59 52 50 51 56 55 56 77 91 93 96 97 97 98 97 96 97 96 77 80 51 26 26 32 37 42 45 49 54 57 55 26 7 7 8 8 6 6 6 7 11
54 48 42 37 35 34 35 39 50 57 53 60 87 95 99 96 94 94 98 98 97 96 89 66 36 27 30 35 42 48 54 59 60 49 15 7 12 14 16 15 15 17 22 31
10 7 6 4 4 4 6 9 18 36 58 60 59 78 95 97 98 100 98 97 99 97 97 95 60 41 32 35 42 52 61 65 67 35 8 11 20 25 30 33 36 38 40 43

GFSNGP_700_rhum_033.txt.gz
RH
68 70 74 75 76 73 75 70 72 48 48 57 80 80 78 81 84 80 77 75 43 39 43 45 46 42 40 48 51 48 52 57 75 93 89 94 95 90 86 71 53 43 49 56
76 72 74 73 72 77 75 74 71 63 55 82 88 81 78 78 83 74 72 64 57 38 42 42 45 58 68 67 72 75 78 76 80 80 81 86 77 68 60 52 54 55 62 65
77 81 86 81 59 57 56 55 55 62 66 83 80 82 75 80 76 68 61 60 63 56 50 54 64 66 77 80 86 78 64 76 70 70 69 63 60 56 58 65 73 78 89 98
87 78 95 73 84 85 84 77 71 69 82 88 85 79 74 79 72 67 64 68 66 60 60 64 72 82 88 83 82 68 50 63 55 54 53 56 52 58 68 88 97 98 100 100
84 85 69 65 69 79 84 90 86 85 85 81 78 75 79 80 71 71 66 70 67 65 62 69 77 81 87 83 86 73 77 79 70 93 82 73 91 100 100 100 98 100 94 99
95 98 95 91 82 85 93 94 91 87 82 75 73 73 81 80 73 77 70 71 69 74 70 67 66 76 87 82 77 81 99 100 100 95 95 99 100 99 99 88 100 99 99 98
96 96 70 67 88 84 96 97 93 87 84 73 74 74 83 85 79 80 74 69 64 72 77 74 72 77 82 83 84 84 87 95 96 89 96 96 97 96 97 97 97 96 97 97
100 90 87 60 72 86 96 96 93 88 79 77 74 76 84 87 86 81 77 76 70 66 67 64 66 70 78 80 79 84 84 86 88 90 90 87 88 88 81 61 37 27 25 25
72 71 72 82 89 95 93 96 92 91 82 81 74 79 88 89 90 86 81 82 85 78 73 67 61 55 50 42 37 33 31 30 29 27 26 25 25 25 26 26 26 25 24 22
79 67 74 88 90 90 93 90 88 88 87 81 76 83 87 94 95 90 91 89 85 90 78 74 68 54 34 30 30 27 24 24 25 28 29 29 29 28 26 25 24 22 22 22
83 79 79 86 87 85 85 83 84 81 83 81 80 77 89 94 96 90 94 93 90 94 95 83 76 60 31 30 27 24 26 29 31 32 32 30 28 27 25 23 24 24 25 21
76 79 84 84 84 80 74 78 84 81 75 85 78 79 77 87 98 90 100 99 97 98 99 94 85 66 33 30 25 25 30 32 33 33 31 30 29 26 26 27 26 23 18 14
74 80 79 77 74 70 70 70 71 75 83 86 84 79 79 77 79 90 99 98 100 100 94 84 87 70 34 30 24 28 33 34 34 32 32 31 30 30 29 26 22 16 11 6
76 74 74 74 82 97 94 88 78 78 72 74 83 76 86 88 91 93 94 100 100 100 100 98 87 71 36 30 25 30 35 36 34 34 34 35 34 31 28 24 18 12 7 4
70 74 84 85 90 93 96 100 95 93 89 80 81 76 82 87 90 93 96 100 100 100 99 100 92 73 36 30 25 33 36 36 36 37 39 38 34 31 27 22 15 8 5 3
71 80 83 66 50 62 74 83 98 100 100 97 89 82 78 81 88 98 100 100 100 100 100 98 96 78 34 28 27 35 37 37 38 40 40 39 36 32 27 20 12 7 4 2
68 62 61 62 51 57 72 72 86 98 100 99 92 84 78 83 88 92 100 100 100 99 100 99 98 80 33 26 29 36 38 38 39 40 41 41 39 34 27 17 10 5 3 2
59 74 78 69 64 72 81 86 89 89 100 99 95 92 90 94 100 100 100 100 100 100 99 99 96 51 33 25 31 37 38 39 39 40 42 44 43 37 26 15 7 4 3 3
81 72 70 81 93 96 92 91 94 98 100 97 100 100 100 100 99 99 100 99 99 100 98 89 51 34 31 26 34 38 39 39 38 39 43 48 47 38 24 12 5 3 3 3
76 82 95 100 95 98 100 99 99 99 98 100 99 98 99 99 99 99 100 98 97 92 93 94 44 35 27 26 35 39 40 39 38 39 44 48 49 39 20 8 4 3 4 3
71 80 93 98 98 98 98 98 97 96 97 99 100 100 99 99 99 99 99 97 97 97 82 51 45 35 25 28 35 39 41 40 39 40 44 48 51 37 15 6 4 4 4 3
73 84 85 91 93 92 94 94 83 76 80 95 100 100 99 97 100 99 98 97 96 95 88 76 38 30 25 28 35 39 42 42 41 42 44 50 52 32 9 5 5 5 4 4
82 81 70 66 65 68 75 63 76 75 85 84 96 98 98 98 98 98 98 97 96 97 94 55 38 29 29 31 33 39 42 43 44 45 46 53 53 20 6 7 8 6 5 5
75 71 69 67 64 58 49 48 55 61 71 95 85 94 97 97 98 98 97 96 97 96 94 93 64 37 44 29 31 37 41 44 46 48 49 57 48 10 8 12 12 9 8 10
74 66 57 48 41 37 32 31 34 39 51 60 83 94 93 96 97 98 97 98 97 97 96 94 78 85 44 26 30 35 40 44 48 53 55 64 36 7 15 20 21 22 24 28
62 47 27 13 9 8 6 5 8 18 26 38 59 66 94 99 89 94 97 97 98 97 97 96 90 89 50 31 32 35 39 44 53 58 69 67 20 10 22 29 30 30 32 35
24 16 10 7 4 2 2 2 2 2 4 7 26 58 66 77 99 100 100 99 97 97 97 97 97 92 84 72 49 41 43 48 70 70 77 52 11 14 30 32 32 41 51 56

GFSNGP_700_rhum_036.txt.gz
RH
62 62 69 72 71 69 78 71 66 56 39 44 62 78 76 70 73 69 63 56 50 53 47 41 39 41 45 50 54 52 58 61 59 61 57 67 81 87 90 92 86 80 78 79
70 64 69 67 66 71 70 72 68 58 43 51 85 81 76 70 74 69 60 61 61 59 59 52 48 48 50 53 53 59 40 40 58 56 58 68 70 68 69 71 87 84 92 67
84 77 77 67 50 53 53 55 55 58 52 70 82 80 76 73 76 68 62 66 60 59 54 52 53 52 57 57 59 46 32 31 44 40 47 50 55 60 55 54 52 56 64 67
94 80 83 57 81 80 73 66 55 48 61 78 78 76 74 75 78 70 60 62 61 59 56 52 60 64 66 60 56 57 45 39 36 38 39 37 43 43 48 62 72 74 93 96
97 83 70 60 79 78 86 85 73 70 78 80 76 75 74 80 77 73 60 64 57 59 59 59 57 62 68 65 61 63 75 70 55 46 62 55 42 50 88 97 95 100 98 100
99 92 71 78 73 81 92 98 93 86 82 80 74 72 75 83 80 69 68 64 58 59 57 65 66 65 67 62 61 68 74 84 79 78 84 99 98 99 100 100 100 99 97 97
95 85 82 77 90 89 97 96 91 87 85 78 71 73 76 84 81 72 72 70 65 63 60 60 63 63 71 70 71 69 73 76 77 78 81 80 84 89 94 97 97 97 96 97
99 96 84 62 88 92 95 95 96 94 85 79 76 74 77 84 84 78 76 75 75 75 66 61 57 51 47 47 44 41 40 45 43 40 39 41 45 42 37 32 29 26 26 26
75 78 65 72 69 78 90 98 98 97 95 82 81 76 80 86 88 87 82 84 84 80 74 69 61 50 32 30 29 27 25 24 25 26 29 30 30 30 28 27 25 23 21 20
71 60 69 85 86 86 89 93 92 90 91 86 81 80 83 85 91 92 90 88 86 86 86 79 73 56 31 30 27 24 25 29 31 33 32 31 29 27 25 23 22 23 24 23
73 68 71 77 82 85 86 87 86 83 79 78 82 82 81 84 90 91 94 89 88 92 95 95 90 67 35 30 26 25 29 32 34 33 32 30 29 26 26 26 27 25 21 17
66 68 74 76 80 80 79 84 84 76 76 80 79 82 82 80 81 90 91 97 99 100 100 98 89 81 53 31 26 26 30 34 34 33 32 31 30 30 30 29 26 22 17 12
72 72 73 75 74 71 70 69 69 68 65 67 78 83 83 80 80 78 78 97 99 100 100 99 95 94 72 34 28 26 32 34 35 34 34 34 35 34 31 28 25 20 15 9
73 76 77 73 72 72 73 88 90 86 76 71 69 80 83 80 84 87 93 99 99 99 99 100 99 97 79 40 30 26 32 35 35 36 36 38 38 36 33 30 26 21 15 9
68 73 74 71 72 81 85 86 86 87 92 88 82 72 75 80 83 90 96 97 99 99 99 99 99 99 88 47 32 26 32 35 36 37 38 39 39 38 36 33 29 22 15 8
78 78 74 72 59 50 50 47 71 79 93 99 100 96 91 84 80 84 90 92 99 99 99 99 99 99 97 65 34 26 32 36 37 38 37 38 40 42 42 39 33 22 13 6
75 74 72 66 56 57 53 56 63 68 70 88 99 100 99 92 86 81 89 100 99 100 99 98 99 98 98 94 36 26 32 37 38 38 36 38 41 45 47 44 34 20 10 4
83 80 76 70 69 69 70 68 68 85 86 88 94 100 100 95 92 91 94 100 99 99 99 99 99 100 99 90 34 26 33 37 38 38 37 38 41 45 48 47 34 16 6 4
89 76 71 67 82 97 99 98 91 90 89 91 93 98 99 100 100 100 99 99 99 100 99 98 99 98 97 52 34 26 34 38 39 38 38 38 40 41 48 49 30 11 4 4
77 80 90 98 100 99 98 99 100 100 98 92 99 99 99 100 100 100 99 97 99 99 98 99 98 97 80 35 31 27 35 38 40 40 38 38 39 41 49 49 23 6 5 6
80 84 85 94 96 96 97 97 97 94 90 89 96 98 100 99 99 99 100 95 99 99 98 97 97 97 86 44 29 27 35 38 40 41 40 40 42 44 52 46 13 6 7 7
81 90 88 87 87 88 84 83 80 85 87 80 85 93 99 100 100 99 100 100 98 98 97 97 95 82 56 46 28 28 41 41 40 42 42 43 45 47 56 38 8 9 10 8
92 94 90 81 80 76 69 64 54 48 57 71 72 85 96 97 100 99 98 98 98 98 97 97 96 93 51 35 27 43 79 40 39 42 44 46 49 53 60 24 10 15 16 15
95 92 80 69 57 45 37 33 31 30 31 38 55 78 79 93 98 97 97 97 98 98 97 97 97 81 55 47 61 91 73 35 38 42 45 48 53 63 61 14 14 21 24 25
88 82 76 68 56 36 18 10 7 8 10 20 31 50 61 88 84 87 96 97 98 97 97 97 96 96 92 79 67 87 34 33 37 40 45 52 59 71 50 12 20 26 26 30
86 79 71 56 34 19 10 5 3 2 2 3 8 20 45 60 73 98 94 92 97 96 96 97 97 97 95 90 94 94 52 44 54 50 51 66 77 76 34 13 26 28 31 45
48 37 25 18 14 10 6 3 3 2 2 2 2 2 5 29 60 71 100 100 99 98 96 97 97 97 98 95 95 90 62 83 71 68 92 89 92 74 19 17 29 31 46 46

GFSNGP_700_rhum_039.txt.gz
RH
54 57 63 65 71 87 86 76 66 53 44 53 54 63 64 72 69 69 64 58 59 57 53 49 44 40 41 43 42 46 46 49 32 27 24 32 41 46 50 58 77 88 87 82
68 61 58 54 56 84 70 69 77 67 59 58 47 58 69 72 68 70 63 58 58 54 51 48 44 46 48 48 51 52 50 30 16 14 17 30 43 49 55 58 60 57 53 57
84 78 78 76 40 44 49 46 55 75 45 66 60 78 74 74 70 72 64 62 54 56 56 47 50 57 59 57 53 48 44 41 19 17 22 32 36 40 43 37 36 37 40 49
96 87 83 67 56 69 61 66 53 49 49 63 69 77 74 73 72 72 66 61 56 55 53 51 51 56 60 56 54 52 56 55 31 24 24 26 27 29 30 34 40 55 71 72
94 74 64 58 61 77 82 89 67 43 46 55 71 75 71 73 77 73 69 63 57 54 54 53 58 58 54 53 54 57 59 58 49 57 64 70 62 54 55 70 78 86 80 86
89 79 62 76 72 76 85 91 79 61 68 78 78 75 87 75 80 78 72 68 61 58 56 53 53 54 54 54 58 57 58 59 58 57 59 63 67 74 96 97 97 95 93 85
88 80 72 70 80 82 94 97 89 86 83 83 80 73 73 76 80 80 76 72 69 66 62 56 52 48 44 43 44 44 49 46 37 33 41 55 63 72 76 80 83 81 69 53
88 85 80 59 86 92 98 88 89 89 86 82 79 77 73 77 81 84 83 79 77 75 72 64 60 52 36 30 29 28 26 24 24 25 27 28 29 29 29 29 28 27 25 23
79 77 71 62 77 89 89 86 90 91 96 94 84 83 77 79 85 87 89 86 85 79 81 75 68 61 37 29 28 24 24 26 30 32 32 32 30 28 27 25 24 24 25 26
75 58 62 68 69 65 70 78 88 88 96 97 94 87 83 81 85 90 93 94 91 85 85 85 76 70 51 31 28 24 26 30 32 33 32 31 30 28 26 26 28 28 25 20
65 66 65 67 70 76 80 87 88 93 91 86 82 83 82 83 80 87 92 97 96 86 90 86 87 84 68 36 30 25 28 31 33 34 33 32 30 29 30 31 29 26 23 19
64 80 78 86 77 74 80 82 82 80 79 81 79 79 80 81 83 80 84 99 96 93 100 100 96 90 81 56 32 26 27 32 34 34 33 33 33 35 35 32 30 28 25 21
77 67 77 75 77 76 76 74 70 67 65 64 64 64 76 78 81 82 81 86 98 100 100 100 100 99 96 86 45 30 26 31 34 34 35 36 38 38 37 36 34 32 29 24
60 66 71 72 71 74 69 67 67 69 74 72 65 62 64 71 80 82 83 87 98 100 98 99 99 100 99 94 64 34 26 30 34 35 36 38 39 38 38 39 40 40 38 32
66 63 68 75 76 69 65 69 77 80 82 80 82 78 74 70 73 81 82 89 95 97 97 98 100 98 98 96 87 40 29 28 34 36 37 38 37 36 37 41 45 46 43 34
66 67 68 73 71 66 62 52 50 49 48 70 80 84 90 90 83 80 84 85 92 96 100 100 100 99 98 98 97 65 34 27 33 36 37 38 36 36 38 42 44 46 46 34
75 77 77 72 64 59 53 50 58 58 59 64 68 85 100 100 100 96 92 87 89 100 100 100 100 99 97 99 98 97 51 27 31 36 38 38 36 36 37 37 39 47 47 29
83 81 75 68 61 57 57 61 64 66 69 77 80 75 89 95 99 100 100 97 91 90 98 100 100 99 97 99 98 98 53 30 30 36 38 38 37 36 36 37 38 48 45 18
86 92 82 67 61 71 81 91 99 100 96 90 91 87 94 98 98 100 100 99 98 99 100 100 100 100 99 98 99 98 64 48 30 36 39 39 38 37 37 38 40 52 37 10
91 94 88 94 100 100 95 100 98 99 99 100 97 92 96 95 97 99 99 100 100 100 100 98 100 99 98 98 97 90 58 34 30 36 39 40 40 39 40 41 44 54 24 8
89 88 89 89 89 90 86 88 89 94 97 95 88 87 95 99 98 98 99 100 100 100 97 96 99 98 97 97 96 83 43 29 30 37 56 50 42 42 42 44 52 54 15 10
87 95 90 85 79 79 75 76 80 79 68 67 80 82 82 87 95 100 100 99 98 98 99 98 99 98 97 96 96 93 71 29 31 61 81 45 42 43 45 48 60 53 13 15
89 91 91 89 82 80 62 46 36 35 37 34 38 49 70 81 85 94 97 99 98 97 96 98 98 97 96 97 96 93 58 29 32 69 78 40 42 44 47 52 66 49 14 20
93 97 94 89 85 76 64 51 31 14 7 8 13 25 40 65 86 80 90 97 97 97 98 98 98 97 97 97 92 54 37 32 47 90 54 38 40 44 50 59 70 41 16 23
96 96 94 90 83 75 65 48 28 14 5 3 2 3 13 32 58 84 93 90 96 97 97 97 97 97 97 96 96 85 54 75 94 95 49 37 41 50 58 71 84 29 18 26
97 95 89 82 73 57 35 20 14 9 4 3 2 2 2 4 18 52 72 99 96 90 87 93 96 97 97 97 98 97 93 94 95 95 94 86 92 85 87 93 83 22 21 29
63 52 42 33 24 18 14 10 6 4 3 3 3 3 2 2 2 5 32 69 99 100 97 99 100 98 97 96 96 96 96 95 95 95 94 93 93 80 93 93 64 16 25 38

GFSNGP_700_rhum_042.txt.gz
RH
70 61 58 57 70 80 84 70 67 61 57 49 46 58 68 57 56 70 67 64 54 52 48 47 44 42 43 43 43 42 42 44 46 37 18 18 23 17 18 29 38 39 42 42
67 60 58 55 56 68 86 77 73 66 55 56 57 57 56 50 52 71 67 63 55 51 52 48 43 44 48 47 46 49 50 45 37 24 16 17 13 15 21 32 37 28 30 35
86 82 75 70 32 35 42 48 46 61 47 45 51 54 50 45 70 71 69 63 53 51 51 45 43 46 52 54 52 51 50 50 47 24 19 17 16 19 21 24 25 25 28 28
85 83 96 48 56 50 44 37 40 43 47 67 61 59 48 71 74 71 72 63 55 54 51 49 53 52 50 50 48 48 50 54 44 36 38 42 52 49 28 23 31 36 37 48
92 84 60 51 57 59 73 72 58 44 47 65 66 67 71 73 71 73 72 65 60 56 55 52 46 45 46 45 49 48 49 49 49 51 53 55 59 61 61 59 62 69 77 75
92 78 79 79 71 70 79 88 80 69 51 52 53 61 76 75 74 78 75 66 65 60 60 53 48 47 42 38 36 45 50 40 32 31 36 40 47 55 62 64 67 70 69 51
78 84 71 66 62 74 90 89 83 67 55 53 68 76 74 74 76 80 78 70 71 68 66 58 56 53 43 30 27 27 25 24 22 23 25 28 29 29 30 30 29 28 27 25
82 88 85 67 66 91 93 92 91 90 89 90 87 84 76 74 77 80 83 78 78 76 74 69 64 59 51 32 28 26 24 23 26 29 31 31 31 30 28 26 25 24 25 26
68 70 67 66 69 90 93 90 93 96 97 97 96 93 83 80 81 83 87 90 87 84 81 79 76 68 59 38 30 26 24 26 29 31 32 31 30 29 27 26 28 28 26 22
76 66 74 61 63 65 75 86 86 86 98 99 100 99 94 86 84 87 93 96 97 96 89 85 84 78 68 52 33 28 25 27 30 32 33 32 31 29 30 31 31 28 26 24
66 60 63 62 59 63 70 69 80 88 95 96 94 88 88 95 87 85 85 93 100 100 98 94 82 89 86 72 45 32 27 27 30 32 33 33 33 33 35 35 33 32 31 30
61 66 70 72 83 67 71 79 83 83 81 80 77 75 76 76 78 83 85 84 97 100 100 100 98 94 96 86 70 43 30 27 30 32 33 34 35 37 38 37 37 38 38 39
67 84 78 74 74 82 80 77 78 76 72 68 65 63 66 68 69 76 79 84 86 100 99 100 100 100 100 100 98 83 39 29 28 32 34 35 36 38 38 38 39 40 42 44
64 65 70 69 69 73 75 72 71 67 64 64 65 67 67 62 63 62 76 87 87 91 98 99 98 99 98 97 100 96 61 35 27 30 34 35 37 37 35 36 39 41 42 42
70 66 65 67 70 70 73 70 62 59 59 60 66 76 73 77 77 73 69 75 85 87 94 98 98 99 98 99 99 95 94 50 31 28 34 36 37 37 35 36 37 36 36 39
71 71 70 68 66 65 64 60 56 54 50 51 47 49 74 76 85 92 86 78 84 90 98 99 100 100 100 96 100 97 98 90 44 28 31 36 37 37 36 36 36 35 35 42
78 72 72 73 74 72 63 57 53 49 50 54 57 59 66 79 89 100 100 100 98 96 95 97 99 99 100 100 99 99 98 97 92 34 30 34 38 38 37 36 36 36 37 48
87 83 81 75 69 63 57 52 52 57 62 65 68 68 76 72 87 92 95 99 100 100 100 100 100 100 100 100 100 99 98 97 97 49 37 33 38 39 38 38 38 38 39 52
93 92 89 81 70 63 64 74 79 83 97 99 99 90 90 85 81 93 97 93 99 100 100 98 98 100 100 100 100 98 96 97 96 70 45 32 38 40 41 41 40 40 41 56
96 98 98 90 91 93 90 94 91 98 100 100 99 100 98 95 90 89 91 96 96 98 98 99 96 98 97 100 99 99 98 97 96 96 52 32 38 48 75 45 42 43 44 59
99 98 97 90 86 80 76 74 76 81 82 79 83 93 94 88 86 97 99 99 98 98 98 96 98 99 99 99 98 98 97 97 94 78 35 32 44 76 78 43 43 45 47 61
99 96 95 86 81 78 73 63 54 40 37 41 42 58 71 70 84 87 93 98 99 98 97 98 99 98 98 97 98 98 97 97 96 86 42 32 53 91 65 41 44 47 50 63
98 96 96 91 84 82 77 76 68 54 33 14 7 8 17 28 47 81 84 90 97 98 98 99 98 97 97 97 97 97 97 96 97 95 61 84 86 87 53 40 43 50 56 74
96 96 97 96 91 90 84 80 73 59 36 20 8 3 3 4 15 36 78 81 86 97 99 98 97 97 97 97 97 96 96 96 96 78 41 41 67 88 40 39 45 58 85 84
97 97 97 96 95 91 84 76 64 38 21 13 8 4 3 2 2 8 28 60 86 90 97 98 97 96 97 97 96 96 97 99 98 83 68 94 95 94 92 88 82 88 87 85
96 96 96 93 87 75 60 42 27 17 11 6 5 4 4 3 2 2 3 11 42 79 88 89 97 98 97 96 96 97 96 96 96 96 96 96 96 96 96 95 91 89 91 79
87 73 59 41 29 23 19 16 13 9 7 5 4 4 3 3 3 2 2 2 5 35 66 94 91 91 96 97 99 97 97 96 98 97 96 96 98 96 92 95 95 93 92 63

GFSNGP_700_rhum_045.txt.gz
RH
75 69 70 66 72 89 93 87 87 78 61 50 46 44 50 43 41 45 65 66 65 56 51 51 48 42 41 42 41 40 40 40 43 42 42 29 17 19 17 18 20 21 25 23
63 61 55 52 53 70 85 83 78 66 63 56 53 52 59 52 47 47 62 69 67 57 52 51 46 43 41 45 47 49 48 48 44 40 40 20 21 17 16 19 20 18 18 20
76 78 78 67 41 43 38 49 52 73 53 58 53 57 60 56 50 48 69 72 70 56 53 51 49 48 46 45 45 45 46 45 44 45 29 21 22 22 24 22 21 23 26 30
87 89 93 42 53 53 46 38 35 42 45 56 59 59 59 56 52 53 76 74 69 59 53 50 51 46 41 42 42 42 44 46 43 41 43 45 50 54 55 39 33 52 58 61
81 82 58 45 47 56 58 55 52 33 37 55 59 55 48 46 56 76 74 77 68 60 54 53 50 46 42 39 37 47 48 45 43 42 38 34 42 46 52 54 54 57 54 39
97 81 90 85 75 70 70 72 72 68 55 57 73 62 54 66 78 76 78 78 68 62 58 58 53 49 43 33 30 29 26 23 21 23 23 24 25 27 31 33 31 29 27 25
87 87 73 61 68 66 88 78 82 74 67 61 58 52 63 79 79 78 81 77 71 69 65 65 60 56 47 32 27 25 23 22 23 26 28 29 29 29 29 27 25 24 24 26
91 81 79 59 70 76 82 88 84 80 61 58 54 74 87 81 76 77 81 80 76 75 72 72 71 64 55 38 30 26 23 23 26 28 30 30 29 28 27 26 26 27 27 24
63 58 60 70 67 63 75 91 92 94 94 93 94 94 90 84 80 80 81 84 87 86 83 83 78 73 64 50 34 28 25 25 28 30 31 31 31 29 28 29 30 29 27 26
80 69 71 70 65 65 67 87 95 96 94 99 99 98 97 99 95 89 90 95 95 97 98 95 83 80 75 65 46 33 27 26 28 31 32 32 32 31 32 34 34 33 32 33
78 72 68 61 59 62 67 72 70 78 92 98 97 97 96 91 96 96 93 94 98 100 99 98 95 86 83 84 69 47 33 28 28 30 32 33 33 34 36 37 36 37 38 39
80 71 64 63 62 66 66 70 78 82 86 89 89 89 89 83 82 85 94 93 90 95 100 99 99 99 90 93 91 74 51 34 28 29 32 33 34 36 37 37 35 36 38 40
78 84 74 61 73 76 80 82 81 83 83 82 79 74 70 66 66 71 75 77 85 93 100 100 100 99 100 100 100 99 96 69 35 28 31 34 34 36 37 35 34 36 38 37
94 92 76 61 76 77 76 76 77 75 73 70 66 62 62 65 66 61 61 67 81 86 90 98 99 99 99 98 100 97 96 94 63 34 28 32 35 36 37 36 36 37 36 36
96 92 84 82 84 73 74 74 70 72 70 61 57 56 57 66 72 71 70 71 71 82 86 89 96 99 98 98 93 99 99 95 94 69 34 29 33 36 37 37 36 36 35 36
99 98 96 83 75 72 70 70 75 68 61 58 55 49 49 46 52 76 79 87 86 84 89 94 95 100 99 99 100 99 94 99 97 97 72 33 30 35 38 38 37 36 36 37
98 92 82 70 73 74 74 71 66 59 56 54 50 48 50 52 59 72 82 96 100 100 100 100 99 98 99 100 98 97 100 99 99 97 97 80 33 33 37 39 38 38 38 38
97 90 88 83 80 76 70 64 60 59 57 58 61 61 62 63 62 66 82 88 92 98 99 100 100 98 99 100 100 98 99 100 100 98 97 97 52 39 35 39 40 44 51 40
99 96 94 88 85 78 75 76 76 78 76 84 95 96 94 92 82 82 76 82 95 90 96 99 98 98 100 99 97 97 99 100 99 98 97 97 85 68 35 38 44 78 68 42
97 98 100 97 94 92 89 87 86 89 86 84 87 92 98 99 98 93 89 88 90 93 96 83 90 95 98 98 97 98 98 98 98 98 97 97 96 79 41 37 59 88 55 43
97 97 98 97 91 86 79 72 62 50 43 46 47 60 75 80 83 88 81 85 97 94 92 96 92 95 99 99 98 98 98 98 98 97 97 97 96 68 34 43 72 93 47 44
97 97 97 96 91 83 78 74 67 68 63 46 24 12 10 22 41 52 55 82 83 91 98 100 100 99 98 98 98 99 98 97 97 96 97 96 94 55 36 57 89 91 43 43
97 97 97 95 88 85 81 79 78 76 69 62 38 21 9 4 3 6 21 38 76 83 90 93 94 98 98 97 98 98 97 97 97 96 96 96 96 74 77 89 95 91 47 47
98 98 98 97 98 93 89 90 83 79 70 57 31 16 10 5 3 2 3 10 31 70 82 90 95 97 96 97 97 97 97 96 96 96 98 98 96 94 89 91 95 95 79 93
96 96 96 97 96 97 96 89 78 70 49 26 15 8 6 4 4 3 2 2 6 27 61 85 88 96 98 97 97 97 96 96 96 97 97 96 95 94 95 96 96 96 96 95
97 97 96 96 96 92 79 59 40 25 17 13 10 7 6 5 4 4 3 3 2 3 18 63 91 88 95 97 96 97 97 96 97 97 97 96 96 96 96 96 96 95 94 94
95 96 94 92 76 51 31 26 23 20 16 12 10 8 6 5 4 4 3 3 2 2 2 7 66 100 93 89 91 96 98 96 96 97 96 96 97 95 95 94 94 93 94 94

GFSNGP_700_rhum_048.txt.gz
RH
70 63 72 74 76 85 98 89 88 74 72 62 60 50 40 37 40 44 48 55 69 67 64 53 50 48 44 40 40 42 41 43 42 41 41 42 45 32 19 20 16 14 16 20
74 76 74 64 56 61 87 92 84 84 81 66 68 55 53 52 48 46 50 51 70 69 64 53 50 47 46 44 45 47 47 48 47 47 45 41 35 21 19 16 17 17 19 19
67 72 75 68 42 44 39 52 61 94 53 69 61 55 52 52 50 47 51 48 70 71 64 55 51 50 47 44 43 44 45 47 49 47 44 34 25 25 26 29 32 22 27 38
77 90 90 39 47 57 55 47 41 38 42 50 63 57 57 56 56 54 53 52 73 73 64 56 52 50 46 42 42 41 43 45 45 42 43 44 43 44 50 52 41 41 51 58
77 93 56 36 53 56 55 45 49 38 33 34 59 67 60 58 58 57 53 58 76 74 65 57 54 50 46 43 38 37 43 45 44 41 31 28 35 41 49 50 47 44 39 30
95 80 93 81 78 69 77 64 61 64 53 37 53 54 62 61 59 56 63 79 79 73 65 61 57 51 49 39 30 31 25 23 22 22 23 24 25 25 26 27 27 27 25 23
91 97 70 52 61 65 82 68 86 82 75 49 44 49 60 62 65 67 81 80 84 74 69 66 63 58 54 42 29 26 24 22 22 25 28 28 28 27 27 26 24 24 25 25
91 95 77 58 59 62 68 82 87 82 67 75 62 63 59 63 76 89 85 82 85 76 75 74 74 68 62 52 32 28 24 22 25 28 29 29 29 28 27 26 26 27 28 26
64 57 58 68 64 64 63 79 91 89 84 73 75 67 66 86 92 83 78 80 86 82 82 82 82 76 73 64 45 33 27 24 26 28 29 30 30 30 29 29 30 31 30 30
75 60 58 62 63 65 67 69 97 97 95 97 98 98 95 98 97 97 88 88 96 97 97 98 96 85 79 76 64 46 33 28 26 28 29 30 32 32 31 33 35 36 35 36
79 70 71 67 63 66 65 64 74 89 94 94 98 99 98 98 96 96 99 98 98 100 100 98 98 98 95 83 80 68 52 35 28 28 30 32 32 33 34 36 37 36 35 35
89 88 85 74 65 64 65 73 72 76 75 92 98 94 93 95 95 90 88 94 98 98 98 100 100 100 100 93 90 87 74 56 40 30 29 31 33 33 34 36 37 35 34 35
96 88 89 92 80 68 76 81 78 82 90 93 90 87 84 80 76 72 72 75 83 90 98 99 100 99 100 99 96 92 89 93 89 53 32 29 32 34 34 35 36 35 34 35
70 96 96 96 93 73 69 81 85 88 87 84 81 77 72 67 63 60 63 65 68 76 84 93 95 98 99 99 99 99 98 96 96 96 62 36 30 31 34 35 37 37 36 36
94 98 95 86 93 77 73 77 71 76 79 76 74 70 59 56 55 60 71 72 72 69 69 84 94 96 100 100 99 97 97 100 99 97 97 83 51 32 31 35 37 38 37 37
96 98 88 87 97 90 80 75 73 73 75 76 70 58 56 52 49 50 48 60 78 85 88 84 92 99 98 99 99 100 95 98 98 98 100 99 96 79 40 32 36 38 39 38
97 99 99 98 97 88 79 75 70 66 63 61 61 55 52 50 49 50 52 55 74 78 98 100 100 99 99 98 99 99 98 98 99 100 96 100 99 98 91 46 34 37 39 40
97 98 96 94 97 88 81 74 68 67 64 61 58 55 50 50 55 59 62 61 72 87 92 99 99 99 100 99 99 98 98 98 96 99 99 100 99 98 98 79 50 39 38 42
98 97 100 100 93 86 84 79 74 74 73 72 72 74 67 65 73 84 86 78 73 86 98 94 92 98 97 96 99 99 99 99 98 97 99 100 99 98 98 96 92 52 38 44
97 98 98 98 97 95 87 86 85 84 79 76 73 71 75 81 87 96 99 96 90 85 84 85 95 96 97 98 98 97 98 98 98 99 97 97 98 98 97 96 95 54 41 45
97 97 97 98 97 96 86 78 67 58 54 47 35 24 17 27 70 77 77 76 75 78 86 93 96 94 90 98 92 91 97 98 97 98 97 97 97 96 96 96 95 88 48 52
97 97 97 97 97 95 88 84 80 80 78 72 65 52 33 20 7 6 20 28 20 28 66 77 94 100 99 98 98 99 98 97 97 97 97 97 96 96 96 96 94 77 44 64
97 97 97 97 96 96 93 84 82 84 82 77 69 55 31 15 11 6 3 3 3 10 25 58 79 89 96 96 97 98 97 97 97 97 97 96 96 96 97 97 95 92 90 93
96 96 96 97 97 96 94 89 86 87 87 76 64 39 20 12 8 6 4 4 3 2 5 25 58 84 89 99 98 97 97 97 97 96 96 96 96 97 96 95 96 96 95 94
96 96 97 97 96 97 97 97 95 90 76 57 34 20 14 10 7 6 5 5 4 3 2 4 14 64 85 91 98 98 96 96 96 96 96 96 96 96 97 99 97 92 94 94
93 96 96 96 97 96 96 86 75 48 31 24 19 15 12 10 8 7 6 5 4 3 3 2 3 10 74 84 89 95 97 96 96 96 96 96 97 97 96 95 94 94 94 96
96 96 96 96 96 94 83 52 38 30 27 25 23 22 20 18 15 11 7 5 5 4 3 3 2 3 34 91 92 89 92 94 95 93 94 95 96 96 95 96 96 95 95 95

GFSNGP_700_rhum_054.txt.gz
RH
85 85 78 71 76 83 100 73 99 66 82 68 68 71 70 71 54 45 43 49 50 46 52 56 67 68 65 58 50 47 45 42 38 38 42 43 43 44 41 40 43 43 29 22
78 69 71 72 67 70 76 79 96 99 90 71 70 73 75 68 61 58 52 48 43 49 54 61 71 69 66 56 50 48 44 44 44 44 46 47 46 46 47 45 43 28 22 19
72 67 74 78 39 53 57 58 60 85 26 44 38 45 62 70 66 65 64 60 44 49 55 50 63 73 69 56 52 48 42 41 42 44 48 49 48 49 46 39 27 23 24 29
71 71 73 42 44 46 49 44 54 49 37 46 36 36 42 68 72 67 63 62 53 53 55 51 53 74 69 58 52 47 42 39 42 45 48 49 46 40 32 32 38 48 45 36
75 83 53 35 54 58 57 47 64 65 66 54 46 49 33 59 67 66 69 61 59 66 56 52 55 76 70 58 52 46 40 35 39 42 44 43 42 40 41 44 48 46 48 47
87 84 84 51 81 78 73 68 86 85 88 88 76 59 33 32 64 60 58 60 61 60 58 55 73 78 66 59 52 47 36 31 28 31 29 27 30 32 36 39 39 36 30 27
89 81 69 54 62 62 66 68 68 66 80 80 75 75 64 36 42 49 64 61 62 59 59 58 78 81 67 63 56 48 33 26 24 22 23 25 27 26 29 28 28 27 25 24
92 84 78 61 68 62 66 68 66 68 79 85 68 67 66 43 43 50 69 66 63 64 61 77 92 82 73 69 63 52 35 27 24 23 26 26 28 28 28 27 26 25 26 27
73 63 63 67 71 72 74 72 74 70 85 98 82 69 62 70 71 72 74 72 69 74 87 93 97 92 81 77 74 63 45 33 27 24 26 28 29 30 29 29 28 28 29 32
89 78 75 71 77 83 78 75 79 76 78 97 98 91 77 69 62 64 65 65 68 93 98 99 99 90 87 86 79 74 60 44 31 28 27 28 30 30 31 31 31 31 33 34
65 64 66 77 85 78 71 82 70 75 81 74 79 97 99 98 92 87 86 93 96 97 97 97 98 96 96 98 92 84 78 62 45 34 30 29 30 30 31 31 31 32 33 35
59 51 46 29 41 87 83 84 79 75 75 79 80 93 98 99 95 95 91 89 92 86 94 98 98 98 98 98 98 96 94 88 69 54 43 35 31 30 31 32 32 33 33 34
55 38 26 21 27 36 89 92 89 88 87 86 81 85 96 100 96 93 91 88 85 80 76 75 88 98 98 98 98 100 99 98 95 87 72 53 42 36 33 32 32 33 33 34
72 58 57 51 25 16 32 76 97 91 88 92 84 84 91 94 92 87 82 77 72 69 68 72 74 79 97 99 99 99 97 92 92 95 95 99 98 86 63 45 36 35 34 34
75 78 82 72 61 31 14 46 92 98 96 96 94 88 85 85 83 78 74 69 60 58 62 74 78 84 86 87 95 100 100 99 98 97 97 94 99 99 99 99 88 72 61 54
79 80 82 71 67 66 46 53 83 98 100 100 95 82 71 71 72 71 71 60 57 57 54 52 54 79 80 80 80 90 98 100 99 99 99 95 96 98 100 97 95 97 98 96
82 75 83 90 100 90 63 61 96 97 99 100 96 79 71 69 66 69 62 57 54 52 52 52 52 54 69 81 90 97 100 100 100 99 99 98 98 97 97 97 97 97 97 97
98 92 99 94 99 88 94 98 94 97 99 97 79 71 72 70 66 63 60 56 52 50 49 50 57 59 73 86 85 91 99 100 99 98 99 99 98 98 98 98 98 98 97 96
94 98 98 93 98 98 96 96 97 97 98 94 81 79 77 75 72 70 68 68 70 72 72 74 76 73 77 93 95 94 91 90 92 96 99 100 100 100 98 98 97 97 97 97
96 96 95 99 93 96 99 98 99 98 98 93 85 79 72 55 37 26 24 47 74 81 83 85 85 81 79 81 81 84 90 97 100 99 100 98 98 98 99 98 98 97 98 97
88 94 96 97 99 98 97 99 94 100 93 66 58 47 49 48 41 31 23 14 10 31 62 68 68 64 63 70 61 67 86 100 100 100 100 99 98 97 97 97 97 97 97 97
80 92 96 96 99 99 100 98 97 91 87 95 93 81 68 60 46 29 17 11 10 7 4 3 4 4 5 15 26 61 71 81 100 100 98 98 97 97 97 97 97 97 96 96
62 86 95 96 96 98 97 98 97 94 90 96 96 96 90 61 39 26 18 11 8 7 6 5 5 5 4 4 5 22 51 75 87 97 98 97 97 97 97 97 96 96 96 96
53 65 93 96 96 96 97 96 97 96 96 96 96 96 96 79 31 16 11 10 10 8 7 7 6 6 5 4 3 3 16 55 75 91 99 99 99 97 97 96 96 96 96 95
46 64 80 96 96 96 96 96 97 96 96 96 96 92 92 66 27 19 17 16 15 13 11 9 8 7 6 5 4 3 5 37 74 87 97 99 99 96 96 96 96 95 96 95
56 71 84 95 96 96 96 96 96 96 96 96 95 72 46 27 25 24 23 22 20 19 17 13 9 7 6 5 4 3 4 30 74 86 93 96 95 97 96 96 96 96 94 92
84 86 85 96 96 96 96 96 96 96 96 90 42 34 32 29 29 28 26 24 22 20 17 14 10 8 6 5 4 4 4 16 55 88 93 94 92 92 95 96 96 97 96 95

GFSNGP_700_rhum_057.txt.gz
RH
84 83 82 78 78 89 99 98 100 70 82 46 50 54 55 62 61 68 64 44 45 50 52 47 50 57 65 69 69 64 56 50 47 44 43 40 39 40 42 42 42 39 41 44
80 74 70 66 65 69 71 74 100 86 66 39 34 46 42 58 81 76 60 55 53 46 50 48 56 61 70 71 70 63 53 49 46 42 41 43 46 47 47 49 49 47 49 35
77 66 61 48 37 37 43 47 54 77 33 45 44 46 36 43 61 70 67 65 62 50 47 56 55 50 56 71 69 60 51 49 44 40 41 43 50 50 51 56 55 48 33 24
81 71 84 47 46 41 41 38 49 50 54 82 66 52 40 32 40 65 74 69 66 52 54 56 59 53 48 61 72 62 54 48 43 40 42 46 49 51 50 48 38 29 30 40
80 83 59 48 62 66 66 65 84 97 100 96 95 76 38 52 37 42 67 68 64 58 60 65 58 55 48 65 73 61 55 48 40 39 41 44 45 44 43 43 46 50 48 46
89 86 78 60 70 65 66 83 78 69 71 80 88 85 68 62 39 40 65 68 69 64 60 59 60 56 55 78 74 62 53 46 35 30 36 34 32 40 48 54 53 51 49 41
90 90 69 62 65 69 70 80 79 81 78 85 92 82 67 74 62 37 66 62 62 62 62 63 60 59 60 83 72 64 56 42 28 25 25 28 29 30 37 44 43 34 28 26
97 89 76 73 78 87 87 78 77 74 75 85 98 88 67 71 50 41 44 51 63 64 64 65 63 64 70 89 74 69 60 45 29 25 24 27 29 30 30 29 28 26 25 25
77 70 70 78 82 85 86 85 82 75 79 81 89 96 80 62 58 60 56 63 70 67 66 66 67 76 94 95 81 77 68 51 34 27 26 28 29 30 29 29 28 27 27 28
94 83 82 83 86 84 83 82 82 80 77 79 76 81 92 83 72 71 74 76 74 72 70 91 99 97 96 98 94 89 78 63 44 32 27 28 30 30 30 30 30 30 30 31
68 64 54 46 46 46 48 68 84 84 83 76 76 87 100 98 97 91 79 74 83 86 86 91 95 98 97 98 95 94 85 75 58 42 31 29 29 30 30 31 31 31 32 32
62 74 72 46 42 43 29 28 63 90 84 78 78 79 98 99 98 98 98 97 95 90 93 95 97 98 99 99 98 98 98 95 82 63 49 39 33 31 31 31 32 32 33 33
90 81 73 60 61 67 55 39 20 70 93 84 89 85 85 98 97 100 97 94 92 86 81 76 71 71 91 99 99 98 97 96 96 94 84 68 53 42 37 35 33 32 33 33
86 81 71 72 62 58 55 51 44 20 77 95 89 92 90 96 100 100 100 92 85 78 75 71 70 71 73 71 96 98 98 98 97 97 97 97 97 97 93 84 68 50 41 36
75 79 81 73 69 67 65 60 45 43 24 79 96 97 98 100 99 99 93 84 78 76 71 61 60 74 81 75 71 79 97 100 100 98 97 97 97 97 97 97 98 98 96 94
66 74 82 83 84 80 72 61 54 63 31 38 99 100 100 100 98 82 78 74 70 72 64 58 58 62 57 66 74 76 82 89 100 100 99 99 98 97 98 98 98 98 97 98
68 64 67 73 82 84 81 82 82 70 52 92 96 99 100 99 96 80 74 69 70 64 58 54 53 52 53 55 61 81 91 98 100 100 100 100 99 99 99 99 98 98 98 98
68 71 78 78 81 90 95 96 93 93 95 98 96 98 100 100 85 76 71 66 62 57 53 51 50 50 53 59 61 73 84 88 95 99 100 100 98 97 96 97 98 98 98 98
41 58 71 77 85 88 96 98 96 96 96 96 97 96 98 94 82 77 74 72 68 65 66 64 65 68 69 73 71 76 89 87 88 91 95 98 95 96 99 100 100 100 99 97
12 16 42 72 80 90 92 98 99 96 96 97 96 96 96 94 85 70 47 28 25 52 73 77 80 82 82 79 76 77 81 83 84 93 100 100 100 100 100 98 99 97 97 97
9 10 15 40 74 88 92 92 98 99 98 96 94 82 79 67 41 30 29 22 16 10 9 22 52 65 68 69 66 64 68 59 59 72 76 99 100 100 99 98 97 96 97 96
13 12 14 20 54 81 93 94 96 96 96 99 90 77 88 85 56 38 29 19 11 8 7 6 4 4 3 4 4 4 6 16 24 43 75 89 100 100 98 97 97 97 97 97
18 19 18 26 43 61 92 94 94 96 96 96 96 97 96 89 46 27 20 15 11 9 8 7 6 6 6 6 5 5 4 4 6 21 54 69 89 100 99 100 98 97 96 96
24 22 24 29 46 67 75 95 94 96 96 96 95 96 97 97 96 82 18 12 11 10 9 9 8 8 7 7 6 6 5 3 4 11 40 65 84 95 97 98 98 96 96 96
26 29 44 61 66 71 83 91 95 96 97 96 96 96 96 96 96 96 35 18 19 19 18 16 15 12 9 8 7 6 5 4 4 13 46 71 82 90 94 96 94 95 96 96
50 69 87 94 88 86 96 88 95 94 96 96 96 96 96 77 34 40 68 28 24 23 22 20 17 15 12 9 7 6 5 4 5 13 43 73 83 84 84 90 90 93 95 96
23 33 63 98 99 94 95 96 95 95 95 95 96 95 94 84 42 22 22 25 25 25 23 22 19 15 12 9 8 7 6 5 5 5 17 58 83 90 92 92 95 97 98 97

GFSNGP_700_rhum_060.txt.gz
RH
69 70 72 73 76 91 90 70 88 76 75 69 75 80 60 48 43 50 65 60 57 51 49 48 47 44 43 46 52 57 56 58 59 54 49 47 42 42 42 38 40 45 49 49
84 78 74 71 70 74 74 83 94 91 87 55 48 46 39 39 40 42 66 68 57 53 53 53 52 50 56 58 64 66 65 64 59 52 48 45 41 41 44 48 48 51 56 55
87 72 62 57 47 52 51 48 66 90 47 79 46 41 37 30 30 32 48 64 56 60 64 59 56 56 55 53 54 64 70 68 59 52 48 43 40 41 45 54 58 58 60 60
81 74 69 49 50 48 47 53 50 50 65 88 92 81 62 77 50 34 33 48 58 63 58 57 57 57 58 54 52 50 68 70 60 53 47 41 43 45 50 57 60 61 60 44
86 77 61 58 68 68 70 95 87 86 81 74 68 59 61 74 72 42 34 38 63 62 66 58 56 58 62 59 54 49 74 71 59 52 44 40 41 45 47 52 51 41 35 36
84 79 59 66 65 60 65 85 79 79 80 72 75 79 61 65 66 65 47 34 60 66 67 58 53 58 63 62 56 60 75 70 58 50 38 32 42 42 50 52 50 54 55 53
92 85 74 70 79 78 83 89 80 78 79 78 80 97 88 67 70 71 67 52 68 69 69 61 59 64 63 64 61 56 78 70 58 44 29 27 31 39 46 54 56 56 58 50
96 90 79 82 86 84 79 78 78 82 83 76 81 87 83 85 68 61 56 56 67 67 67 64 64 66 70 66 64 62 84 73 61 40 29 25 29 32 38 47 50 42 31 28
89 92 79 80 87 87 90 89 85 83 80 72 72 79 74 80 82 81 63 55 55 62 66 68 69 71 69 66 65 75 94 95 90 44 30 26 28 31 32 32 30 28 26 26
87 78 78 81 85 88 88 82 79 78 72 68 61 66 75 71 95 84 77 79 75 74 74 73 71 70 70 75 87 99 100 93 74 50 34 27 28 30 31 30 29 28 28 28
66 63 58 54 58 53 47 44 38 34 34 46 66 64 73 74 100 92 97 81 70 74 79 77 77 81 89 99 100 99 98 98 97 85 50 32 28 30 30 30 31 30 30 30
50 69 66 55 58 60 50 48 53 50 36 32 81 79 76 78 90 99 99 95 98 98 97 96 95 97 97 98 98 99 99 98 98 97 69 49 32 30 31 32 32 32 32 32
70 68 63 62 58 62 60 56 54 52 45 40 48 95 82 77 83 96 98 97 100 98 98 94 84 77 74 74 95 100 100 99 98 97 84 68 48 38 33 32 32 32 33 33
72 70 65 65 64 67 65 63 62 57 51 44 35 62 92 82 87 89 98 98 99 99 98 87 81 76 77 73 74 88 100 99 98 98 97 96 84 62 51 47 42 36 38 38
64 64 62 62 66 70 70 69 68 60 55 42 39 38 67 95 95 97 100 100 100 99 96 85 79 76 69 62 73 78 81 98 98 98 97 98 97 97 97 97 97 97 97 97
51 57 62 63 64 65 67 76 73 70 66 50 35 46 40 84 99 99 95 97 96 88 79 75 77 74 64 64 62 66 83 88 89 99 100 100 100 99 99 99 98 98 98 98
11 14 18 34 54 65 68 74 78 77 77 60 58 46 40 51 97 99 100 97 83 80 74 72 74 67 62 60 61 61 63 77 93 100 100 100 100 99 100 100 99 100 100 98
9 9 10 10 13 34 65 76 83 89 93 88 89 96 100 81 96 98 100 96 82 76 72 65 63 61 59 59 60 63 65 69 88 88 98 99 100 98 97 95 95 97 99 99
18 14 11 11 14 23 39 71 80 84 90 96 96 99 93 89 97 98 99 88 82 80 74 70 68 68 67 68 71 74 76 76 96 98 99 100 100 99 100 100 99 100 100 100
27 27 20 15 15 19 38 60 81 82 86 95 94 99 95 95 96 97 94 95 84 70 62 69 78 82 83 82 83 86 83 80 91 95 93 94 96 97 100 100 99 99 99 97
35 32 31 24 20 24 33 65 86 86 92 95 98 97 94 95 95 94 91 73 28 13 11 10 22 59 74 78 82 81 80 79 79 77 70 50 50 68 77 90 99 99 97 96
36 37 37 33 28 23 38 52 94 99 93 96 97 97 91 72 51 90 63 28 14 10 8 8 7 6 4 5 8 14 10 7 6 6 11 15 23 47 67 73 97 100 100 100
45 49 46 40 32 29 43 61 92 98 98 96 96 98 97 87 86 88 65 38 9 7 7 7 6 6 6 5 5 5 5 5 5 4 4 4 12 35 51 68 87 96 98 98
67 49 38 42 49 53 65 78 95 96 100 96 96 95 97 96 96 95 69 13 8 8 8 8 8 8 8 7 7 7 6 6 6 5 5 7 14 34 59 78 90 93 95 96
39 28 29 54 73 87 90 91 94 95 98 96 96 96 96 96 96 96 94 60 26 15 16 16 16 15 13 11 9 8 7 6 5 5 6 12 22 48 72 81 84 88 90 90
45 38 29 25 32 79 98 96 95 96 97 96 96 96 96 96 96 95 95 93 25 16 18 18 18 16 15 13 11 10 8 7 6 6 6 7 18 46 73 82 82 83 84 88
89 71 62 42 27 29 76 97 97 97 96 96 96 96 97 96 96 92 70 64 87 93 89 57 26 21 18 15 12 10 8 7 7 6 6 6 7 22 52 75 84 86 89 93

GFSNGP_700_rhum_063.txt.gz
RH
73 64 68 77 82 80 89 84 80 64 61 61 65 72 78 70 50 38 32 39 50 55 48 49 49 49 50 54 58 60 53 46 41 40 45 49 50 48 45 44 40 41 43 44
74 72 72 72 71 87 84 83 83 79 76 73 77 81 80 61 50 48 34 32 47 58 58 47 52 50 47 45 44 44 46 50 53 59 60 57 53 49 44 43 38 40 44 51
88 77 70 61 61 76 84 86 87 78 72 74 78 69 63 76 83 68 46 34 32 58 61 50 50 58 54 51 50 52 57 60 63 65 64 61 53 48 45 42 39 43 48 57
91 69 69 60 49 48 60 78 79 79 80 90 98 73 67 70 73 66 55 42 34 33 63 52 60 56 58 54 55 54 52 49 46 56 64 61 54 49 43 41 41 50 59 63
85 66 58 72 62 75 81 99 84 86 86 80 72 61 89 92 67 57 59 57 48 36 35 61 63 61 58 55 57 58 58 54 49 54 70 62 53 46 38 38 43 50 59 66
81 69 52 82 72 59 63 86 85 79 73 68 62 73 74 65 73 62 62 66 59 47 40 69 64 64 58 55 58 63 62 56 53 69 73 60 51 39 30 38 46 48 48 44
88 77 68 74 70 72 75 84 87 74 71 71 67 69 64 64 62 77 62 67 69 50 52 65 69 71 70 55 58 66 64 60 58 68 76 60 44 29 29 37 47 54 54 53
85 88 72 71 83 84 85 74 66 60 60 59 63 63 64 67 66 72 69 57 57 63 71 69 69 73 67 58 64 66 68 63 61 71 77 61 37 29 28 32 47 57 59 62
88 88 76 72 77 74 74 70 66 62 66 66 59 60 62 60 65 66 85 72 61 59 68 71 68 67 72 66 67 69 69 65 66 78 86 74 40 28 31 35 47 57 51 37
74 77 74 77 74 78 70 64 58 50 39 35 33 31 29 42 59 68 68 91 73 72 65 64 67 69 70 70 72 73 71 73 87 93 98 95 43 32 32 33 37 36 30 27
72 82 71 62 56 58 60 54 49 42 40 42 44 37 27 22 52 71 73 70 96 76 74 78 79 78 76 75 75 77 89 97 97 99 99 66 74 32 38 33 32 30 29 28
71 53 63 62 65 63 57 58 60 60 55 52 50 43 39 23 39 71 78 83 96 98 100 100 95 98 93 97 94 94 98 98 99 99 98 98 94 87 54 35 32 31 31 30
58 69 66 66 63 63 61 64 64 64 61 55 56 50 46 37 32 77 81 81 89 99 98 97 92 89 85 78 76 73 94 98 99 99 97 98 85 53 58 39 38 32 32 32
69 62 60 60 56 60 61 62 65 68 64 60 55 52 42 37 36 58 88 89 89 98 87 98 95 93 88 82 72 76 76 91 99 98 98 98 98 63 39 34 33 34 33 33
71 66 55 45 44 49 54 58 59 66 74 72 69 63 52 42 36 39 70 94 98 97 94 97 97 93 90 79 72 68 72 83 90 100 98 97 98 98 96 96 97 97 96 96
20 13 15 17 20 21 23 40 53 63 68 81 78 73 56 45 32 31 46 89 100 98 99 100 97 92 83 75 78 71 72 74 90 94 99 100 98 98 98 98 99 99 98 98
8 10 12 12 11 11 14 18 28 39 61 69 85 88 83 84 78 61 39 60 99 100 98 98 96 80 77 77 76 69 68 70 72 80 95 100 100 100 100 99 96 99 100 100
22 26 28 28 26 21 16 14 17 31 54 71 76 90 92 91 96 95 84 82 96 98 97 98 89 81 72 72 69 65 65 66 69 71 91 100 100 100 100 100 100 99 98 99
26 32 38 36 34 31 29 26 18 15 34 68 78 85 95 91 97 99 92 90 93 96 97 97 86 79 73 70 69 68 68 69 71 75 80 100 100 100 100 100 98 99 100 99
50 42 36 33 34 33 32 32 30 19 21 47 85 90 94 94 94 96 97 98 97 97 97 90 85 82 82 81 81 82 84 86 86 86 88 100 100 100 100 100 100 100 100 100
41 30 19 19 25 36 42 41 36 26 28 48 83 87 94 95 94 96 96 96 97 97 95 84 34 31 48 76 85 90 89 88 89 89 98 100 100 100 100 93 76 63 83 85
15 15 19 30 43 43 46 44 39 37 48 59 90 90 90 96 95 86 87 96 90 85 93 70 14 10 8 9 17 28 43 56 66 60 49 38 31 24 24 24 23 44 70 72
24 30 46 67 46 33 38 70 75 76 84 90 96 96 95 95 96 97 83 65 90 25 16 23 8 6 6 5 5 5 5 5 5 6 6 6 6 6 6 11 22 40 59 84
40 53 71 43 28 28 31 74 97 100 100 100 100 95 91 96 96 97 96 96 96 94 35 7 6 6 6 6 6 6 6 6 6 7 6 6 7 9 14 22 37 58 78 86
50 71 61 52 41 31 27 48 94 100 100 99 99 96 95 94 95 96 96 97 96 83 45 13 10 11 10 10 9 8 8 7 7 6 6 6 8 11 17 33 54 75 79 81
61 78 70 72 79 60 36 28 39 94 97 97 98 97 96 94 95 96 96 97 94 24 14 14 15 14 14 13 12 11 9 9 8 7 7 6 7 8 11 23 45 68 80 83
81 80 81 77 94 89 71 55 31 33 92 98 98 96 96 96 96 96 96 96 97 88 34 25 18 17 17 15 14 12 10 9 8 8 7 7 7 6 6 8 13 28 50 72

GFSNGP_700_rhum_066.txt.gz
RH
81 68 81 79 81 82 81 69 84 64 64 62 60 66 69 70 63 57 48 36 30 28 30 53 50 41 40 43 44 41 43 53 60 62 60 52 42 43 45 48 46 46 44 42
70 66 67 66 68 82 80 82 80 72 75 67 77 78 77 64 55 42 39 32 26 26 25 43 56 50 43 47 50 58 61 60 53 46 46 50 53 56 55 52 49 46 44 42
83 76 72 67 64 66 69 81 84 85 82 80 76 76 74 59 65 62 55 53 50 48 31 30 60 60 48 48 51 50 50 50 56 60 61 60 62 64 65 59 52 47 44 41
87 66 86 58 51 52 72 78 77 72 74 72 68 49 62 64 78 71 55 46 52 61 48 34 43 64 54 51 50 50 50 52 55 52 49 47 47 59 66 61 53 47 42 39
90 77 65 64 61 60 77 95 75 72 67 60 72 68 94 88 98 73 63 57 51 61 62 47 35 42 63 54 57 56 53 56 58 57 54 49 47 58 67 58 50 40 34 45
80 72 65 89 72 62 69 96 83 84 78 74 69 62 63 68 58 57 56 74 62 64 71 62 51 39 61 64 65 61 61 58 62 61 57 55 52 59 68 56 42 29 32 43
81 78 73 73 68 61 67 74 92 92 79 68 63 66 59 59 58 63 64 65 78 59 62 63 50 45 64 75 68 64 63 59 64 65 65 60 57 57 69 49 29 29 37 52
88 94 78 74 77 76 91 95 81 72 68 62 54 54 57 56 60 61 59 56 65 77 59 67 72 74 69 70 76 77 77 62 66 67 68 64 61 64 73 44 40 38 40 61
85 84 76 80 76 85 83 76 72 71 66 57 51 46 36 31 32 35 44 48 56 73 75 63 67 73 71 68 75 72 66 64 69 67 70 67 67 78 81 41 61 52 51 64
75 74 80 82 87 84 72 58 52 50 48 44 40 37 34 40 38 36 26 43 55 65 84 78 74 65 68 71 70 70 72 71 70 71 71 71 75 84 94 96 65 60 55 61
65 85 84 79 69 62 62 59 57 59 59 57 53 49 47 43 43 41 32 40 69 74 80 98 88 78 78 78 78 77 78 77 74 74 76 80 91 98 98 45 57 54 53 37
63 48 51 52 62 64 59 55 55 55 59 65 64 60 57 53 50 45 42 32 64 85 98 85 98 100 97 89 91 91 96 98 92 91 100 99 96 97 97 79 55 61 40 31
50 53 54 65 65 61 58 55 55 57 61 59 65 68 62 54 52 48 42 37 42 86 97 100 88 100 98 98 90 81 77 75 74 94 98 100 97 99 97 97 66 43 37 33
63 66 68 66 61 51 42 34 33 41 52 60 62 66 70 62 55 56 53 44 40 66 97 100 100 97 99 98 95 84 82 79 81 79 88 100 100 99 96 97 73 82 79 83
67 61 49 25 11 11 10 10 10 9 10 17 42 61 67 68 67 58 45 39 37 44 68 100 100 100 95 91 98 93 85 83 77 75 84 100 99 97 92 99 96 66 46 55
35 14 10 13 16 20 22 25 23 19 15 12 10 12 40 64 72 72 71 64 62 62 39 67 98 98 98 89 98 96 85 82 82 76 72 84 100 99 97 97 96 98 98 97
11 19 21 23 25 27 29 31 31 27 25 22 18 14 11 20 52 74 79 77 73 75 82 52 98 98 99 87 97 89 86 82 83 76 74 73 84 100 100 99 100 99 97 97
21 26 26 28 31 33 35 35 31 21 22 24 26 23 16 12 24 56 74 80 82 82 74 74 98 98 98 97 98 86 80 81 80 73 73 73 78 88 100 100 100 100 100 100
26 26 29 35 42 41 30 16 10 8 10 19 25 28 24 17 25 56 72 81 86 87 93 97 88 83 95 100 98 86 78 79 76 75 74 78 80 82 96 100 100 100 100 100
41 58 60 45 23 13 12 14 14 14 23 32 37 37 32 35 55 73 81 90 92 94 96 97 100 98 97 96 97 93 84 81 83 86 84 85 88 94 100 100 100 100 100 100
54 32 16 11 15 23 29 41 45 42 40 46 47 44 52 68 100 97 92 93 99 94 96 98 99 95 96 82 63 95 94 96 99 98 97 100 100 100 100 100 100 100 100 94
13 12 15 23 30 32 43 33 27 26 40 80 99 99 99 100 99 98 98 98 99 94 94 96 97 95 72 31 17 23 48 90 98 99 95 97 100 100 100 97 89 66 40 21
14 15 20 35 44 54 49 41 28 28 53 89 96 98 98 98 98 96 96 98 100 93 95 87 46 93 85 13 9 8 9 10 13 18 26 32 20 16 12 9 9 10 14 22
17 19 21 46 58 71 67 73 51 30 38 93 97 97 97 96 98 96 96 100 97 96 95 96 73 30 53 41 8 7 6 6 7 8 7 7 8 8 8 11 16 20 27 46
25 23 27 50 68 82 81 84 88 58 38 40 94 97 96 97 97 96 97 97 96 96 95 96 68 25 15 12 10 8 8 8 8 7 7 7 7 7 11 13 15 25 42 53
22 23 22 41 76 88 92 95 100 95 81 42 39 87 95 96 96 96 97 97 96 96 96 96 88 25 16 13 12 10 9 8 8 8 8 8 8 7 7 10 13 19 28 39
26 34 36 33 50 96 99 97 96 85 84 80 40 41 94 95 96 96 96 96 97 97 95 80 44 18 15 12 11 11 10 9 9 8 8 8 7 7 7 6 6 7 9 11

GFSNGP_700_rhum_069.txt.gz
RH
86 85 80 69 60 70 74 61 71 48 58 60 67 69 74 73 68 66 64 62 55 41 33 29 26 41 52 46 40 35 32 36 42 44 53 60 67 70 66 57 46 41 48 51
82 70 73 81 74 74 78 79 76 69 63 66 67 69 71 70 63 61 59 44 37 36 36 27 22 28 54 55 44 43 45 49 53 61 69 70 60 52 53 56 55 56 56 55
83 81 76 72 65 68 81 83 83 85 84 83 80 78 73 76 73 67 50 46 44 43 43 46 32 24 42 63 55 50 50 50 50 50 51 54 60 62 57 56 60 64 64 59
84 73 75 62 60 57 67 79 83 86 85 83 81 79 71 56 60 78 79 61 50 50 48 53 56 40 29 65 61 57 56 53 54 57 62 63 57 55 51 48 50 59 60 57
83 74 70 65 58 47 54 65 73 70 65 60 60 63 68 64 87 90 81 64 55 66 59 56 65 60 48 41 68 63 61 60 60 60 62 60 62 56 52 50 48 57 62 54
82 77 78 74 73 64 64 73 79 79 79 73 69 66 73 81 90 72 68 61 58 58 68 57 64 71 61 46 47 67 68 68 68 64 60 62 63 60 59 57 53 59 62 40
87 81 78 80 80 71 70 71 82 95 97 89 82 74 60 52 50 55 52 55 54 53 55 73 56 67 59 58 60 82 78 72 69 70 66 61 65 67 67 61 58 62 66 32
87 93 90 82 80 82 82 86 93 93 91 80 74 67 60 50 45 43 38 40 44 51 47 61 70 65 75 77 74 72 80 80 79 75 71 67 70 69 69 66 63 66 65 52
82 87 84 84 83 80 82 86 85 80 71 61 50 44 44 42 38 35 37 40 38 28 35 55 74 71 67 75 76 70 77 79 82 84 88 71 72 72 72 71 71 80 88 65
91 94 90 78 78 81 84 75 59 53 55 54 51 48 47 46 45 40 36 40 43 31 39 69 63 83 76 74 74 75 71 72 73 71 72 75 75 76 78 75 78 91 97 89
80 82 83 76 67 62 59 65 66 64 59 54 54 59 61 58 56 54 50 46 46 42 37 74 77 85 99 90 90 86 80 80 80 80 81 82 81 84 90 85 88 94 92 77
66 68 60 55 56 58 68 68 65 59 53 50 48 51 53 57 61 62 58 52 48 44 38 48 88 91 93 100 99 99 96 97 94 96 98 98 96 100 100 99 99 90 56 70
51 50 53 56 59 70 68 60 45 28 16 12 12 15 24 38 54 61 62 61 58 53 45 42 76 87 99 77 98 98 98 97 92 83 81 79 98 98 97 100 100 100 92 93
69 66 66 72 72 58 28 12 11 13 16 16 16 12 10 8 10 30 56 65 66 56 45 44 49 91 77 98 92 98 98 98 93 89 83 79 94 100 100 98 98 100 98 57
72 75 72 57 24 11 12 15 21 25 26 27 28 26 23 20 15 10 10 32 57 71 70 63 48 44 79 97 98 98 99 90 99 93 87 82 77 96 100 98 97 97 98 96
68 55 31 14 12 17 21 25 24 23 24 24 24 28 23 21 23 21 15 10 13 50 73 74 69 67 57 48 90 92 88 96 98 96 88 86 83 82 100 98 97 98 97 97
48 26 17 17 21 24 24 23 26 31 36 35 30 18 10 12 18 23 24 17 12 18 50 69 73 71 72 64 49 96 94 94 84 98 87 87 90 85 83 100 99 97 97 97
31 24 20 19 24 35 49 43 24 16 14 13 12 9 7 9 14 19 26 26 20 21 39 64 78 76 69 59 87 86 85 97 91 98 90 80 86 85 84 82 100 100 100 98
38 35 45 62 56 39 22 13 16 21 23 32 38 35 34 30 33 40 41 37 38 52 60 72 90 86 78 68 79 98 91 98 99 98 89 81 82 80 80 87 97 100 100 100
79 62 39 27 14 13 14 22 26 29 35 29 25 26 37 55 68 69 65 58 76 90 93 88 96 97 89 87 92 84 74 93 98 98 90 86 84 82 84 88 100 100 100 100
28 15 13 12 11 12 27 40 41 46 48 42 26 43 70 80 98 100 99 97 100 97 98 95 97 100 97 100 96 94 93 98 97 98 100 100 100 100 99 100 100 100 98 98
15 14 13 14 13 13 32 47 62 62 72 63 36 43 92 95 98 97 98 96 97 97 98 96 95 98 96 100 94 94 93 96 97 100 100 100 100 100 100 98 98 99 98 100
14 14 15 16 16 17 28 54 66 76 81 82 70 44 81 100 98 96 96 97 96 97 98 91 97 94 95 99 96 92 51 49 38 75 96 97 99 100 100 100 100 96 76 47
16 16 14 16 21 22 22 58 77 87 95 100 94 82 56 93 97 97 97 96 97 96 94 94 95 97 95 95 93 53 75 24 11 11 16 24 35 39 40 26 15 12 17 25
17 15 15 19 25 32 32 49 82 90 86 92 92 94 61 61 97 97 98 99 98 96 94 94 96 97 95 64 92 76 18 13 12 11 16 15 13 14 14 13 18 26 32 43
19 25 32 42 49 47 45 41 67 94 86 77 87 85 81 48 87 97 98 97 96 94 95 96 97 97 81 30 26 54 48 23 14 11 11 11 13 14 15 17 20 24 29 34
45 58 65 66 71 65 55 47 42 69 92 90 79 86 85 60 62 96 96 96 96 99 97 97 97 96 49 26 24 20 16 14 14 13 13 14 16 14 11 9 8 8 9 9

GFSNGP_700_rhum_072.txt.gz
RH
84 86 70 64 63 67 65 66 65 57 55 62 63 68 70 70 68 67 69 66 63 58 50 41 35 35 33 28 37 46 42 38 34 33 34 37 42 51 62 71 76 77 72 60
84 75 71 79 77 72 75 76 74 69 63 67 68 68 66 69 72 77 73 66 61 55 43 38 36 32 25 23 32 49 46 42 42 42 45 51 60 69 72 72 61 54 55 53
76 74 67 60 56 66 76 75 74 78 75 82 81 78 78 82 81 78 72 63 48 42 42 40 34 28 32 29 36 48 54 48 48 53 60 64 67 61 60 66 60 53 49 48
81 80 80 65 61 61 72 85 86 84 82 85 87 86 84 81 75 57 54 50 52 48 42 42 43 35 30 42 35 51 61 61 54 52 58 58 61 68 67 57 54 50 47 47
82 72 72 68 59 52 54 70 78 81 85 89 87 82 70 68 67 65 69 60 50 48 44 42 51 49 40 47 49 42 66 67 64 59 60 63 64 64 61 62 58 56 57 56
94 83 79 70 70 67 59 60 56 61 66 70 77 80 75 70 69 70 70 64 58 52 48 46 46 60 55 58 65 64 55 72 74 72 68 66 67 68 67 66 65 65 63 58
88 77 72 64 69 71 74 55 52 62 77 74 73 71 68 70 69 59 53 46 41 41 41 45 48 44 62 58 68 70 58 63 72 75 75 75 76 72 68 67 70 69 66 62
92 90 84 67 78 82 69 71 68 72 76 81 82 78 72 64 56 47 40 37 38 35 32 36 35 40 45 61 64 63 74 74 82 82 77 76 79 81 74 71 71 71 70 68
76 77 69 71 74 77 78 78 80 82 80 72 59 51 48 46 44 44 43 42 38 32 32 36 32 28 48 69 63 71 77 74 73 77 84 85 87 91 84 87 75 75 74 74
85 79 72 73 85 90 88 88 84 68 58 60 60 56 52 49 49 51 52 49 49 46 42 40 38 33 62 73 78 69 74 78 74 79 84 90 94 95 84 77 80 79 79 82
82 82 82 78 76 77 71 60 55 63 68 66 57 46 40 35 37 44 50 54 56 54 49 48 49 43 69 75 95 90 86 84 86 84 80 80 80 80 82 85 86 85 88 94
84 78 76 74 71 70 63 63 73 69 55 33 20 12 11 10 10 10 12 34 56 61 59 56 52 47 68 100 96 90 100 98 93 91 90 93 92 97 94 98 96 98 99 99
74 69 60 65 71 68 69 73 61 31 14 13 19 21 22 23 24 23 21 13 10 32 61 65 53 50 51 64 100 90 98 98 98 98 98 96 91 79 74 94 99 97 97 97
65 69 68 66 69 74 68 42 18 19 24 27 29 29 27 24 24 25 25 22 21 14 15 50 67 67 49 52 87 92 96 88 98 98 99 98 91 84 75 85 98 97 96 97
73 76 78 76 69 50 27 18 22 28 32 31 30 29 29 27 25 27 28 25 20 22 18 12 35 70 71 55 49 64 76 91 97 97 96 95 98 90 87 76 86 100 98 96
74 75 70 56 35 22 19 25 23 24 30 39 38 33 28 26 22 18 15 12 12 15 24 21 15 40 74 75 73 66 58 74 99 95 91 82 98 96 91 89 81 98 97 98
82 76 56 36 28 26 25 35 46 46 23 11 10 12 15 14 9 7 9 7 6 7 15 25 24 21 43 72 72 70 69 67 86 100 99 96 98 96 92 91 88 86 98 97
73 68 60 58 62 65 55 27 15 10 11 14 20 25 33 30 28 30 30 29 23 16 21 25 31 29 45 58 73 77 66 62 68 87 97 100 100 90 96 89 88 89 95 99
68 68 71 61 41 25 14 10 9 10 17 25 32 40 51 32 27 52 53 41 46 50 47 45 44 42 56 78 81 85 76 64 84 99 98 93 100 94 96 84 86 91 98 100
43 43 38 18 14 12 11 13 12 15 28 37 42 50 57 59 42 64 84 81 88 89 82 82 86 90 88 88 96 99 97 79 92 100 97 93 99 91 97 88 86 87 100 100
18 16 14 13 13 14 15 15 15 19 34 48 56 58 69 76 55 69 91 85 95 94 94 96 97 100 100 96 94 99 98 99 99 99 88 83 95 93 93 90 92 93 100 100
12 13 13 14 13 11 14 18 20 23 50 67 80 83 90 86 73 63 93 95 95 96 97 98 99 99 98 99 95 94 96 98 97 99 100 100 100 100 98 100 100 100 100 99
12 15 14 12 11 12 14 19 25 31 46 85 94 92 90 88 88 60 78 97 96 97 96 97 96 96 98 100 95 93 97 96 97 98 99 97 98 96 96 97 97 98 99 99
10 12 12 14 18 24 29 33 36 36 39 77 99 100 94 85 81 68 64 97 97 96 96 97 96 96 97 98 96 96 98 96 90 94 98 96 96 96 97 98 98 98 100 96
11 17 24 32 40 51 60 60 58 53 48 52 83 96 100 97 93 75 59 97 98 97 97 98 98 97 98 97 97 96 96 96 81 31 40 34 72 69 74 92 94 75 43 22
30 38 43 52 62 70 69 64 65 70 62 50 56 77 99 96 96 78 61 97 98 96 91 97 98 97 97 97 95 95 97 63 92 86 50 32 29 48 27 27 23 18 28 41
39 53 60 65 73 78 74 77 68 63 82 67 48 52 89 95 92 79 62 98 99 98 97 97 97 97 97 89 59 58 95 61 39 33 38 41 43 34 29 28 25 30 35 39

GFSNGP_700_rhum_075.txt.gz
RH
77 78 70 66 67 70 67 62 61 58 55 66 66 65 64 65 67 68 66 65 62 59 56 50 45 43 40 36 35 34 31 30 40 41 39 34 32 34 39 44 47 50 58 64
80 79 80 75 67 62 67 70 67 69 63 59 64 72 72 70 69 67 68 66 61 58 58 53 47 43 38 36 35 32 27 34 44 43 40 38 35 36 40 49 61 70 72 70
82 75 65 64 63 65 63 62 63 75 66 67 65 68 72 73 75 76 76 74 70 63 49 42 38 33 31 30 30 31 27 25 47 47 44 48 50 52 57 65 72 68 64 61
78 71 78 59 58 60 68 72 72 72 72 75 76 76 78 83 86 83 77 64 52 47 50 48 43 39 35 34 33 37 40 30 41 57 51 54 62 69 70 64 62 65 59 55
82 77 68 64 58 56 59 68 73 78 81 86 88 88 88 86 78 68 67 68 67 63 54 48 45 42 40 36 40 43 48 49 38 63 61 58 59 60 65 66 66 60 59 60
92 83 83 66 66 62 58 62 56 60 80 87 87 86 85 82 79 75 72 68 63 56 49 41 36 37 38 39 37 49 53 66 53 54 69 65 63 63 68 67 66 63 65 66
92 82 66 63 68 76 78 60 58 62 67 76 88 92 92 91 90 86 80 72 63 56 50 44 37 31 34 35 37 39 56 68 72 55 57 71 70 66 64 67 68 66 65 69
96 86 82 65 70 77 68 70 72 71 74 78 78 80 80 74 65 54 46 41 39 36 35 35 33 30 28 31 30 36 52 62 72 67 58 65 76 75 73 74 77 76 72 72
71 73 66 67 67 72 75 74 74 72 69 66 65 60 52 47 51 50 46 44 43 44 43 42 41 35 30 33 32 32 48 65 72 73 74 76 85 83 79 78 80 82 83 82
78 70 70 69 73 78 82 82 83 83 80 66 54 62 62 60 58 51 44 39 38 41 48 55 53 48 45 43 40 42 62 74 69 76 78 76 77 81 89 89 88 90 93 88
75 74 78 77 79 80 80 81 74 63 54 55 63 64 53 33 18 14 11 10 10 11 22 48 62 60 55 54 50 62 85 92 86 81 80 77 77 85 88 93 94 89 83 83
84 78 78 77 72 71 72 68 62 60 63 67 58 36 18 18 21 23 23 23 22 22 20 15 19 63 68 61 56 64 100 100 100 100 90 86 85 83 84 85 87 89 89 94
75 77 71 63 59 63 65 63 63 68 66 41 24 22 27 29 30 29 28 27 26 23 23 25 22 15 50 70 55 58 99 100 94 99 98 97 97 95 93 91 82 74 79 87
51 49 55 65 69 73 76 77 69 42 26 24 24 28 28 29 32 35 33 27 27 27 27 27 26 23 20 24 79 60 69 68 98 94 97 98 99 98 97 94 86 77 86 98
59 64 68 71 71 70 62 48 30 25 26 28 36 42 37 24 14 11 10 10 9 9 10 10 14 16 17 21 23 82 75 56 96 98 98 97 98 98 97 98 98 91 83 89
61 66 71 76 73 58 40 34 32 42 54 44 22 11 10 10 10 12 16 19 14 8 11 17 10 12 8 15 23 26 84 86 60 88 100 99 97 98 99 96 98 100 92 89
36 44 56 66 66 54 58 70 63 31 16 10 9 9 11 17 21 27 36 32 30 41 27 31 32 24 21 12 18 25 32 80 89 84 80 100 100 99 100 100 100 99 96 94
34 45 58 63 62 58 46 29 16 12 11 12 12 14 21 33 39 44 49 50 51 49 51 53 52 52 41 38 28 28 29 41 74 84 84 84 100 100 98 99 100 98 99 100
34 39 44 44 39 24 15 14 14 13 13 16 17 23 36 43 49 52 52 59 60 67 67 72 78 86 78 75 71 52 47 43 56 78 82 81 90 100 100 100 98 98 98 100
24 18 15 14 15 14 14 15 14 11 15 17 20 24 31 39 48 61 74 70 64 71 83 82 88 95 100 100 100 99 87 76 67 73 86 79 82 100 100 100 97 98 98 98
7 6 8 10 12 15 17 14 12 13 15 18 23 28 31 37 48 71 77 70 65 66 91 94 96 96 98 99 100 100 100 100 88 85 95 87 94 100 100 100 100 98 98 97
5 6 9 12 12 11 13 15 19 23 25 26 27 30 39 47 48 62 79 81 69 64 92 98 97 97 97 97 96 98 98 100 98 92 92 96 97 98 92 88 97 98 98 98
5 6 6 7 13 18 24 29 37 47 56 62 63 60 53 53 53 70 65 82 76 69 90 96 97 97 98 97 96 97 97 97 97 97 95 96 96 97 97 96 96 97 99 100
6 8 13 24 36 39 42 49 55 66 74 74 78 82 67 57 50 87 84 88 83 76 94 96 96 97 97 98 97 97 96 96 97 98 98 98 97 97 96 94 97 97 98 97
7 9 20 34 42 49 56 61 64 69 71 72 75 79 88 66 54 63 83 94 87 83 95 97 98 98 97 97 97 97 96 97 99 100 98 98 96 94 95 95 97 96 96 96
7 13 26 41 53 60 64 66 69 72 78 80 77 73 88 74 60 67 80 93 85 89 97 97 98 98 98 97 97 98 97 98 98 98 91 66 90 93 95 96 96 96 96 95
11 26 45 56 61 57 53 51 53 55 76 89 77 73 89 82 57 49 62 85 76 92 98 97 97 97 99 99 99 97 97 98 97 97 96 97 94 91 78 71 58 47 38 40

GFSNGP_700_rhum_078.txt.gz
RH
66 68 73 67 67 67 63 58 56 54 53 53 60 64 64 62 60 57 59 63 62 60 58 54 51 47 42 42 42 40 36 33 31 29 32 33 38 39 37 35 38 43 49 53
76 77 71 65 63 64 66 67 65 63 61 58 59 61 62 64 69 69 67 64 64 62 57 53 50 47 44 40 36 35 35 36 35 32 29 34 45 44 41 37 38 42 44 48
79 74 67 62 71 68 61 60 66 67 65 64 61 61 66 71 73 74 76 78 74 72 65 58 50 42 35 34 34 35 34 32 33 34 28 38 50 45 46 46 46 49 54 61
73 72 75 63 58 57 61 59 64 68 72 80 79 78 78 77 83 86 86 83 77 67 56 49 50 53 50 44 39 38 40 43 38 41 46 39 56 53 51 57 62 69 68 66
80 76 67 62 58 58 56 59 63 68 71 78 84 87 90 91 90 89 82 71 64 61 59 58 56 52 47 41 39 39 37 39 48 48 52 48 57 62 58 61 71 72 62 64
86 80 79 66 66 66 62 60 59 60 74 80 86 87 88 86 81 80 80 79 76 73 70 70 66 58 50 44 40 30 32 36 40 54 63 62 50 64 66 63 63 62 66 67
86 86 72 66 64 72 75 61 58 63 64 67 73 81 89 92 92 88 85 80 74 65 55 45 39 35 33 33 32 30 29 33 40 49 67 83 73 58 72 70 64 62 65 66
88 87 79 62 64 71 67 68 71 73 72 71 77 81 81 78 72 63 56 54 54 50 47 45 44 42 42 42 39 32 29 31 32 44 67 86 87 77 72 77 77 71 70 69
66 67 62 62 62 61 63 69 72 73 76 78 76 73 70 60 53 62 63 58 47 36 27 28 39 48 48 53 47 46 38 33 33 39 68 81 87 85 80 76 80 82 79 78
72 62 66 69 72 74 77 80 85 84 79 75 67 57 51 54 65 59 44 26 18 15 15 18 18 17 36 59 59 54 52 49 42 51 76 82 85 90 88 81 81 91 90 84
65 66 73 69 72 80 82 80 79 76 72 69 65 59 61 64 54 34 21 20 24 25 24 24 23 23 24 22 25 61 64 61 58 77 98 98 92 91 88 84 85 81 87 94
58 59 65 70 74 77 70 65 62 62 63 61 61 64 63 39 29 27 27 27 27 27 26 26 25 24 24 26 26 20 36 66 70 94 100 100 100 100 96 90 88 90 92 90
55 57 58 59 54 48 55 61 65 69 74 76 69 51 32 31 29 27 24 25 28 26 26 24 22 21 20 21 21 23 23 24 67 69 96 95 92 99 100 100 100 93 89 86
48 48 46 47 51 60 68 73 73 68 55 40 32 32 35 45 46 38 21 13 9 8 7 7 7 8 10 12 14 18 21 22 23 75 69 97 98 98 98 97 98 98 99 96
44 48 51 51 57 65 71 70 60 47 41 42 53 57 34 17 9 8 9 10 11 13 15 18 13 11 18 26 12 9 12 16 21 39 79 76 90 97 98 97 98 97 97 96
40 36 35 42 46 53 62 64 60 66 71 53 23 13 9 8 10 11 12 17 16 18 31 36 35 37 28 29 38 16 10 9 17 23 60 86 71 96 99 96 98 97 97 98
23 25 29 33 35 44 52 62 54 33 21 12 10 9 11 13 13 15 18 24 27 32 42 44 48 48 46 39 53 39 23 14 16 28 29 80 94 88 99 96 96 97 95 96
22 24 27 29 30 27 26 19 15 13 11 12 13 12 12 14 17 20 28 30 33 39 63 64 60 56 61 65 75 64 49 34 24 32 36 44 82 95 84 97 100 99 99 94
21 20 18 13 9 7 7 10 11 13 16 16 13 13 14 18 26 33 40 38 51 50 56 68 63 64 82 87 90 86 80 74 58 53 56 48 48 78 91 91 97 98 98 96
11 7 5 4 5 6 8 11 14 15 16 16 18 22 23 24 26 34 40 39 64 64 58 71 67 69 91 95 98 94 93 95 97 92 88 81 59 58 76 85 87 96 97 95
4 4 4 4 5 6 9 13 16 20 23 29 37 45 54 60 62 56 51 45 58 73 77 82 73 78 93 95 96 97 97 98 96 100 100 100 92 86 92 87 81 86 90 97
4 4 5 6 7 8 16 30 45 47 48 54 60 63 72 74 76 74 70 63 57 76 78 88 77 88 96 96 96 99 98 98 96 95 98 100 100 100 100 93 90 96 98 99
4 6 6 6 8 10 16 29 40 49 64 76 79 82 84 81 79 75 69 72 63 78 89 93 86 95 97 97 97 98 97 98 99 96 97 98 100 100 100 100 94 90 91 96
6 6 6 6 8 15 26 43 61 70 76 79 86 97 100 88 77 80 79 73 62 82 90 96 90 96 95 96 97 98 98 98 98 98 97 98 98 99 100 100 92 91 95 98
6 5 5 10 27 42 46 46 47 53 57 61 62 82 100 100 80 73 85 70 65 77 87 91 94 98 97 99 99 98 98 98 98 98 99 99 98 99 100 99 94 91 93 94
4 13 31 36 34 36 44 55 63 72 82 88 88 87 87 96 97 96 92 66 60 62 87 85 97 98 98 97 97 98 98 98 98 98 97 98 98 97 98 94 94 94 96 96
30 28 28 37 45 50 53 53 50 56 73 92 91 99 97 98 93 99 83 58 53 79 75 94 98 98 98 97 98 98 99 99 98 98 97 98 96 84 93 91 93 95 95 95

GFSNGP_700_rhum_081.txt.gz
RH
71 72 75 68 62 61 60 58 54 49 51 54 64 67 66 64 64 62 60 61 64 64 62 60 57 54 50 47 44 39 37 38 37 34 30 29 30 27 27 28 32 34 34 38
75 79 72 69 70 69 66 68 66 61 56 61 67 71 73 71 68 71 74 74 74 73 71 68 63 58 53 48 44 38 34 33 34 35 36 35 33 32 31 31 37 41 39 35
75 69 65 63 70 77 74 69 66 66 65 65 64 66 68 70 76 79 80 81 82 80 78 73 67 60 52 46 43 41 38 34 31 29 29 31 32 31 29 39 44 43 41 38
69 67 74 63 60 59 59 65 68 70 74 79 78 73 73 74 78 81 83 84 84 83 77 68 62 58 56 56 53 49 46 43 40 36 37 36 35 45 43 57 56 53 51 50
73 70 64 64 60 58 57 56 57 61 68 75 82 86 89 92 94 94 92 87 79 68 65 68 65 62 60 61 60 53 45 41 35 35 37 38 45 54 55 58 66 62 68 69
77 76 72 64 63 62 63 60 57 56 59 65 73 78 85 89 85 78 73 74 75 75 77 74 66 60 54 48 44 40 38 40 39 32 32 37 46 61 73 71 77 72 76 80
82 85 70 67 61 62 65 58 57 57 60 63 62 64 67 68 66 64 68 71 67 57 50 47 45 45 45 42 38 36 36 34 32 31 31 35 42 57 81 79 78 83 81 78
82 82 72 58 56 59 62 64 66 69 70 69 70 69 72 73 72 72 67 55 55 61 59 53 48 45 41 41 42 40 42 43 41 39 36 36 38 54 75 91 90 87 91 88
55 55 56 59 60 60 61 61 63 66 68 74 75 76 74 75 68 58 55 61 59 46 29 22 20 18 16 15 15 21 40 57 53 50 46 45 52 74 82 94 100 94 87 93
62 53 58 62 64 65 66 68 69 72 71 71 70 71 65 67 66 62 63 49 34 28 27 22 22 24 25 24 23 22 19 21 47 63 56 58 73 88 92 93 96 94 92 92
54 55 58 58 62 63 63 63 65 66 63 62 63 62 65 66 66 60 42 37 55 55 33 23 22 22 22 23 23 22 22 23 24 24 62 65 78 100 100 100 97 98 96 89
55 52 57 59 61 59 57 56 52 53 58 62 67 71 74 65 46 36 32 28 27 26 26 29 32 30 26 25 22 20 18 19 19 21 22 45 69 78 99 100 100 98 94 90
45 45 44 42 43 44 44 45 51 59 66 73 74 68 49 38 39 50 52 50 42 34 24 15 9 6 6 6 6 8 13 16 18 18 18 22 40 68 86 98 100 100 100 98
38 38 39 38 39 41 42 46 55 65 67 66 54 48 58 63 44 19 12 11 10 9 8 9 9 9 10 10 14 19 21 10 7 11 15 20 22 56 72 99 93 91 98 99
29 31 32 31 29 31 34 42 53 58 59 65 72 57 23 13 12 11 11 12 12 12 14 15 14 18 28 29 27 24 26 32 24 10 10 13 22 46 76 82 96 98 98 96
27 25 22 22 24 27 32 42 44 48 52 31 14 11 12 12 12 12 12 16 16 16 18 19 17 20 33 43 46 37 32 34 48 25 13 11 15 28 82 85 76 92 96 97
20 19 19 20 21 26 32 32 23 12 7 7 8 11 13 14 12 13 14 18 20 23 29 29 27 37 58 64 58 48 49 48 56 48 26 25 15 32 62 97 90 76 93 97
17 18 18 18 17 15 11 6 5 5 6 8 10 12 14 15 17 20 21 20 22 25 35 45 47 44 55 66 59 54 65 74 69 63 45 49 34 32 58 94 95 92 97 97
17 16 13 10 6 4 4 4 5 6 8 13 16 22 26 28 33 40 46 47 45 43 49 56 62 63 70 72 66 65 80 87 85 79 78 82 75 58 61 86 100 97 93 97
13 9 6 4 4 4 5 6 6 8 14 21 32 40 48 55 62 61 66 69 71 72 70 71 72 72 75 77 76 82 91 93 91 91 94 100 100 97 96 93 95 100 96 92
8 5 4 4 4 5 6 7 7 9 14 26 39 53 69 76 82 82 78 78 78 89 86 94 74 81 91 88 83 90 96 95 98 98 99 100 100 100 100 98 93 94 94 91
5 4 4 5 5 5 6 7 12 25 41 52 63 72 77 76 78 85 99 98 87 88 88 82 75 85 94 91 92 95 95 97 97 96 97 99 98 100 100 100 100 100 98 91
3 4 4 4 4 7 20 31 37 44 50 58 66 73 76 74 71 80 81 98 90 94 92 72 72 91 97 96 98 97 98 98 97 98 96 98 98 100 99 99 100 100 96 93
3 3 3 9 21 25 29 40 46 55 58 60 62 82 95 94 91 100 100 98 99 94 73 66 74 92 96 100 100 100 98 98 98 98 99 99 98 100 98 98 98 97 98 97
3 5 17 19 23 34 35 31 30 38 42 48 57 79 99 100 100 100 100 99 100 80 60 64 86 93 100 100 100 100 99 98 98 98 98 98 98 99 98 98 98 97 98 95
9 17 17 26 31 30 28 27 31 31 32 49 70 84 97 100 100 99 98 100 85 56 62 82 86 99 99 99 99 99 98 98 98 98 98 98 98 99 99 98 97 97 99 97
16 17 26 30 28 25 25 29 24 37 45 54 72 93 99 100 99 95 97 78 58 78 78 88 99 99 99 98 98 100 100 98 97 97 96 97 98 100 98 97 96 98 99 100

GFSNGP_700_rhum_084.txt.gz
RH
61 69 72 67 64 57 52 53 59 58 69 68 68 67 67 66 63 61 59 57 56 56 56 56 57 56 55 53 50 48 44 42 39 35 32 32 30 28 30 31 30 30 30 33
72 64 64 62 65 67 65 59 58 55 57 62 65 66 68 65 64 62 61 59 58 60 64 64 63 62 59 56 54 50 46 42 39 35 34 35 36 36 33 32 31 32 35 37
73 67 63 63 67 64 64 64 64 69 62 61 62 66 70 71 70 68 72 75 75 74 73 69 65 65 63 59 55 50 45 42 40 39 36 33 32 32 35 37 35 34 36 43
63 65 65 59 59 60 60 62 62 67 70 70 69 69 70 71 74 78 77 78 83 87 87 84 76 66 60 55 50 46 45 46 46 44 41 39 37 36 40 40 43 41 46 53
74 66 58 60 59 58 58 57 55 56 61 67 74 79 80 80 82 87 89 90 88 83 76 68 66 66 66 62 58 56 54 54 54 51 45 40 34 34 36 45 54 59 62 64
64 67 52 61 61 60 59 68 57 58 62 64 72 78 81 85 84 83 78 73 69 66 64 62 57 50 45 42 40 40 38 35 33 32 34 37 39 33 34 37 53 67 66 76
82 73 68 66 60 54 62 54 52 54 56 61 62 64 66 66 67 66 65 66 66 67 64 55 53 55 56 54 52 49 47 46 43 38 36 34 32 32 31 36 42 63 74 78
68 75 57 54 53 53 55 53 55 58 60 61 62 64 68 72 73 75 78 78 69 63 60 59 54 52 50 44 36 29 24 23 25 36 42 44 42 39 34 36 44 52 80 82
49 55 51 53 54 55 56 58 60 63 66 68 67 68 73 75 78 78 75 75 71 61 48 48 56 47 34 26 24 22 21 21 20 19 22 47 57 53 42 38 45 76 87 97
53 48 49 54 55 56 57 56 56 58 60 62 62 63 63 68 69 68 72 69 57 49 66 64 60 54 45 37 25 20 19 20 22 22 22 24 30 65 59 54 58 83 100 100
43 44 47 45 46 47 50 52 51 51 53 52 52 56 60 67 70 73 70 58 51 48 45 38 34 33 33 33 32 31 29 25 21 17 19 21 22 23 66 70 96 98 99 100
49 42 43 41 40 42 41 40 40 40 40 45 55 60 66 71 63 53 51 52 55 54 53 50 42 32 21 16 13 12 10 8 9 14 20 20 19 19 23 60 75 88 100 96
32 32 31 31 34 34 32 33 34 38 39 51 50 55 64 61 59 54 47 33 16 13 12 11 9 8 8 9 9 10 10 9 12 16 11 6 13 17 18 28 77 73 93 97
32 31 28 29 25 24 25 25 26 32 35 34 44 49 44 30 13 10 10 11 12 11 10 11 12 13 14 12 12 13 13 13 16 21 24 18 10 7 12 19 40 74 81 99
18 21 22 22 20 20 22 23 25 29 30 35 28 13 7 7 8 9 10 14 14 12 12 15 17 18 19 19 19 18 18 17 19 20 26 38 24 16 9 11 22 52 86 94
23 23 19 18 18 19 20 22 21 22 14 6 4 5 6 9 10 10 12 14 14 13 14 19 22 27 27 27 26 25 26 36 40 37 33 44 48 26 18 13 13 36 84 90
23 18 17 17 18 18 17 14 8 4 4 4 5 6 8 12 15 20 23 24 24 26 27 24 28 32 36 39 40 36 32 40 50 44 44 52 62 42 27 22 17 22 87 100
17 16 17 17 15 12 8 5 4 4 4 6 6 7 9 16 24 33 44 47 49 50 52 53 44 44 51 60 66 55 53 58 55 54 62 72 78 67 41 40 26 22 77 98
17 16 15 12 8 5 4 4 4 4 5 6 7 9 15 24 38 49 65 74 77 78 73 85 81 75 74 84 87 70 70 71 69 74 78 82 85 85 77 67 48 35 66 97
16 13 10 7 4 3 3 4 4 5 11 19 28 35 40 49 58 64 72 74 88 100 94 91 94 93 92 100 100 74 84 84 85 88 88 88 92 96 93 85 76 63 68 98
12 9 5 4 3 3 3 6 16 23 28 37 43 46 51 58 67 73 76 78 84 96 98 98 98 97 98 97 79 76 93 92 95 94 97 97 99 98 96 96 96 97 91 97
7 4 4 3 3 6 16 21 26 32 34 34 34 38 42 48 56 70 94 96 91 99 99 95 96 99 94 75 76 94 96 99 98 97 99 99 99 99 97 98 98 100 97 93
4 4 3 3 11 16 20 28 28 25 24 27 26 30 38 52 65 84 88 99 98 98 97 99 95 77 69 77 92 97 97 98 98 100 98 98 98 97 99 99 99 100 98 86
4 3 5 12 14 20 27 26 23 22 21 22 34 41 56 70 80 100 97 94 97 96 98 82 66 64 80 93 97 97 98 98 98 99 98 98 98 98 99 98 98 100 100 98
3 6 11 14 20 26 25 22 21 18 25 30 38 55 75 85 84 88 89 90 95 86 61 61 77 88 96 98 98 99 98 99 99 99 98 98 98 100 98 98 98 99 99 97
5 9 12 17 25 25 24 22 19 19 30 44 53 67 77 82 85 86 88 79 61 69 78 80 94 97 97 97 98 98 98 98 99 99 98 98 99 97 97 97 98 99 98 97
8 10 15 25 26 25 24 21 16 29 36 43 52 56 62 68 68 63 63 74 76 69 78 97 97 97 97 98 98 98 99 98 99 99 98 98 97 96 96 97 99 99 97 97

GFSNGP_700_rhum_087.txt.gz
RH
70 68 68 66 75 68 58 57 51 58 64 69 70 71 68 67 65 63 63 64 61 59 58 57 56 57 58 57 57 56 52 50 47 43 40 39 38 35 35 33 31 30 29 29
64 57 61 62 57 66 63 71 63 64 67 76 64 59 64 67 68 65 63 64 64 64 62 62 60 59 58 58 57 55 54 53 51 47 43 39 36 34 35 37 38 37 33 32
78 61 62 62 59 60 64 58 66 61 62 57 61 66 68 68 69 68 67 65 63 64 66 68 66 67 70 69 66 62 58 54 50 46 44 40 37 35 32 30 32 36 39 38
83 62 66 56 54 57 60 62 61 62 63 64 67 64 66 70 72 72 72 75 80 79 83 82 79 78 71 62 56 52 50 49 48 46 46 46 45 41 37 35 32 30 32 37
78 52 60 52 51 49 49 56 50 54 56 62 68 71 71 74 76 79 82 85 88 88 86 76 68 63 59 53 49 46 43 42 42 43 44 45 48 49 47 40 34 34 34 37
70 65 44 69 55 54 50 64 50 52 53 53 57 66 90 67 73 73 70 67 62 61 63 64 63 61 58 51 46 43 40 37 35 34 35 34 32 31 32 35 40 35 32 37
65 64 66 57 58 48 58 59 45 46 49 51 52 51 55 56 52 55 57 58 61 62 64 67 65 61 60 55 50 50 51 49 47 46 43 42 42 42 39 38 34 36 34 37
66 63 52 47 44 51 52 44 45 44 45 48 51 53 53 54 58 59 61 63 64 62 64 65 61 59 58 56 55 53 48 38 28 23 21 18 18 23 39 46 46 44 38 36
47 61 40 41 40 43 44 44 45 46 47 50 47 46 54 53 53 52 53 52 54 59 65 67 65 66 62 62 62 61 59 56 47 29 22 20 20 20 22 34 60 56 50 52
43 42 38 40 40 40 41 42 44 46 43 43 46 45 43 42 46 48 52 56 64 64 61 55 51 48 46 43 40 38 34 32 30 28 25 21 18 20 22 22 25 63 68 66
39 39 38 35 35 37 39 41 41 38 38 38 38 40 39 39 44 47 51 52 50 50 47 48 53 52 53 51 48 44 36 27 22 21 23 24 28 28 20 20 21 22 63 99
53 48 39 32 34 33 31 31 30 29 29 32 33 33 36 38 40 41 37 34 28 20 13 12 10 10 11 11 10 9 8 8 8 9 10 10 9 7 10 23 20 20 25 75
28 29 26 26 25 24 23 25 24 23 24 26 26 26 29 30 27 17 6 5 7 7 8 8 9 10 12 12 13 15 16 14 13 13 14 15 15 14 10 7 10 17 20 32
25 25 22 22 18 19 20 19 18 19 19 19 21 20 15 7 4 4 5 7 8 9 10 10 12 12 14 17 18 20 20 19 18 18 18 18 18 18 20 12 7 7 12 20
12 14 15 16 18 18 17 17 17 17 16 14 10 5 4 4 4 5 7 9 11 12 17 18 17 16 19 24 25 27 28 27 26 25 23 22 21 19 29 30 17 11 7 10
16 17 17 18 17 17 17 16 14 13 9 5 4 4 4 5 5 6 9 14 18 19 28 40 38 32 31 28 31 37 39 39 40 38 34 27 25 26 32 39 39 22 18 10
19 19 19 18 16 16 15 13 9 6 4 4 4 4 4 6 8 12 16 21 31 37 45 56 62 66 62 50 40 45 51 56 57 53 43 41 43 42 42 48 58 36 27 21
18 18 18 17 16 13 10 6 4 4 3 3 5 11 17 23 31 36 43 51 60 67 74 88 95 94 85 83 82 70 69 80 76 68 53 55 58 55 59 65 73 54 36 32
19 18 17 15 12 8 5 4 3 3 6 13 18 25 32 37 42 48 61 66 70 80 83 90 92 100 99 98 99 98 98 97 98 89 68 78 75 73 77 79 81 75 56 56
18 17 14 10 6 5 4 3 5 10 14 24 29 26 24 28 33 40 52 62 81 96 96 95 97 100 100 100 99 99 99 100 99 79 81 89 87 84 84 85 84 84 73 66
16 13 8 5 4 3 3 7 10 17 25 24 21 19 17 24 38 50 68 78 92 100 100 100 100 100 100 100 100 99 99 93 80 93 92 93 90 88 89 91 88 88 80 74
12 7 5 4 3 4 7 10 18 23 22 20 16 15 20 28 44 63 82 90 89 96 95 98 96 97 98 97 89 80 80 93 100 99 98 97 96 94 94 94 92 92 90 88
7 5 4 4 5 8 10 18 21 21 19 15 14 18 28 43 60 62 68 81 83 88 92 93 90 76 68 68 73 87 98 100 99 98 96 96 96 96 97 97 98 95 99 99
6 5 4 6 8 10 17 21 22 20 16 14 20 27 34 47 63 65 70 76 74 65 61 60 68 79 90 97 99 99 98 98 98 98 98 99 98 98 99 100 99 98 99 99
5 4 6 8 9 15 20 22 21 18 14 19 27 30 36 43 42 45 50 60 68 71 70 72 87 96 97 97 98 98 98 97 98 98 98 98 98 98 99 98 98 99 98 99
4 5 7 9 14 19 21 22 20 16 17 23 26 27 36 47 57 61 63 59 55 56 74 91 91 93 95 97 97 98 98 98 98 98 98 98 98 99 98 98 99 97 97 97
5 7 9 12 17 21 22 23 20 15 17 22 22 29 47 52 50 53 52 47 42 49 89 89 93 95 96 96 97 98 98 98 98 98 99 99 98 97 99 100 96 96 97 97

GFSNGP_700_rhum_090.txt.gz
RH
74 71 72 64 75 58 55 57 62 75 72 75 74 71 70 69 69 67 65 66 64 66 66 66 65 62 63 61 61 60 59 56 53 48 44 42 39 38 37 37 36 34 33 34
68 61 69 62 51 55 56 63 64 72 84 89 84 65 65 68 70 67 67 67 67 69 69 68 68 68 67 66 62 61 60 56 54 52 51 50 48 46 41 38 36 35 36 38
78 54 57 71 53 55 60 56 66 73 79 86 88 81 74 72 73 71 70 71 73 71 69 72 74 73 76 72 68 63 60 54 50 48 46 45 44 44 43 41 39 36 32 33
53 61 80 59 51 52 54 53 55 59 63 64 64 67 73 74 73 74 75 72 73 71 77 82 86 81 75 63 56 52 49 46 45 43 43 44 44 42 41 39 39 41 40 37
63 69 55 60 51 49 50 62 53 51 53 57 67 78 77 82 87 86 87 91 92 90 86 76 68 62 59 56 54 51 50 48 44 41 39 37 34 33 36 40 44 48 48 42
77 70 58 62 51 50 48 56 50 49 49 49 49 53 60 74 78 74 61 61 62 61 60 61 62 59 56 54 49 45 43 40 38 37 39 39 41 41 37 35 35 33 35 40
68 68 58 58 50 49 43 56 50 44 41 43 42 44 49 51 51 53 56 61 58 58 61 59 52 56 61 59 56 56 56 51 48 49 50 50 46 36 28 27 30 40 43 39
59 60 61 40 35 33 46 42 37 37 37 40 42 44 45 47 47 47 47 46 44 40 40 44 49 46 41 42 47 50 52 58 61 61 58 56 51 38 27 23 21 20 25 49
52 55 53 35 34 36 38 34 33 34 32 34 33 34 36 35 36 36 33 29 30 30 30 31 30 27 27 32 41 49 49 47 46 46 43 37 35 38 38 27 21 22 22 22
36 36 34 33 33 31 31 30 29 28 24 25 25 25 23 22 22 22 21 20 21 21 20 17 12 12 17 16 21 18 15 19 20 25 31 37 41 41 40 38 31 22 18 22
31 29 29 28 24 24 26 25 24 23 22 23 22 21 19 17 17 16 16 14 12 7 4 3 4 4 5 6 8 8 8 9 10 10 9 8 8 7 7 8 11 22 31 23
27 26 25 22 24 20 18 19 19 20 20 19 17 17 16 14 14 12 8 5 4 4 4 4 4 4 5 7 9 10 11 12 12 12 13 16 15 13 14 14 13 11 10 16
18 23 22 20 18 18 18 19 18 18 16 16 15 13 12 9 7 4 4 3 4 4 4 5 6 6 8 12 13 13 12 15 20 24 24 23 20 19 18 20 21 16 14 11
30 30 24 22 20 19 16 18 18 17 16 15 12 10 7 5 4 3 3 4 5 7 9 10 12 14 21 33 34 25 19 23 32 35 34 32 30 27 25 23 22 21 14 14
22 19 16 16 15 16 19 18 17 17 14 11 8 5 4 3 3 6 10 14 16 19 22 24 28 32 40 51 54 63 48 33 40 47 41 40 35 34 36 33 26 22 21 15
12 14 16 18 20 20 19 18 16 13 9 6 4 3 3 7 12 17 25 31 38 44 51 60 67 74 78 79 83 91 84 62 55 60 59 56 53 52 50 40 30 24 24 29
17 19 22 23 22 19 18 16 12 7 5 4 3 6 11 16 22 26 26 30 43 55 66 75 78 84 86 93 100 100 98 97 87 80 84 88 81 75 62 49 41 35 33 38
22 24 22 21 19 18 14 10 6 4 3 4 8 12 20 20 18 17 14 16 26 38 55 64 71 90 99 100 100 100 99 99 99 100 100 100 97 96 71 58 60 57 51 55
19 20 20 19 18 13 8 5 4 4 6 8 14 18 18 16 11 11 15 24 36 48 62 76 85 93 96 100 100 100 100 100 100 100 100 99 99 99 80 84 80 74 69 69
21 21 19 16 12 7 5 4 4 6 8 15 18 16 14 8 9 14 22 36 44 55 67 79 86 91 94 96 98 99 100 100 100 100 100 100 94 91 92 87 84 75 70 73
21 19 15 10 6 5 4 5 6 9 15 18 16 13 8 8 14 20 24 38 52 60 68 76 82 87 89 90 87 89 89 87 86 88 93 99 99 95 95 91 84 81 79 79
19 14 9 6 5 4 5 6 9 14 18 17 14 9 9 11 18 29 31 33 43 48 52 56 59 63 65 70 75 81 88 94 99 100 100 100 100 99 93 90 90 90 92 88
14 8 7 6 4 5 6 8 14 18 17 17 11 10 12 17 26 40 49 56 57 61 64 64 69 76 91 97 99 100 99 100 100 100 100 100 99 97 97 96 99 100 99 96
9 6 6 5 5 5 7 12 18 18 18 15 11 10 11 25 46 51 54 50 44 43 50 72 91 93 96 97 99 100 100 100 100 99 99 100 100 100 100 100 100 100 100 97
6 6 6 5 5 6 10 16 19 18 19 14 12 12 14 33 43 48 51 50 38 33 47 87 89 92 94 96 97 98 100 100 99 99 99 100 100 99 98 98 99 99 99 97
6 6 5 6 6 9 13 18 19 19 20 15 13 16 19 36 43 44 44 46 34 30 55 90 88 91 96 97 98 98 99 98 98 99 99 99 99 99 98 99 99 97 97 98
7 6 6 6 8 11 17 19 19 21 21 16 15 18 21 35 38 40 39 37 32 27 37 86 91 96 97 98 99 99 99 98 98 98 99 99 98 99 99 98 98 98 97 97

GFSNGP_700_rhum_096.txt.gz
RH
60 63 70 63 57 62 53 59 65 73 78 77 74 70 70 72 72 72 72 75 76 75 74 73 73 73 69 68 64 59 58 56 55 55 54 52 52 50 48 48 48 47 46 44
47 59 60 60 54 63 66 64 62 67 64 69 74 74 72 72 74 74 74 74 74 73 74 72 71 68 66 64 60 57 57 53 49 48 47 45 44 44 44 44 46 46 47 47
46 49 56 64 49 51 52 69 73 77 69 58 64 67 74 74 74 76 78 77 75 74 72 68 66 64 61 53 47 40 35 33 31 28 25 26 26 26 28 31 33 35 38 40
46 49 71 60 50 48 55 56 55 57 59 62 67 71 69 70 74 77 79 75 74 68 61 52 46 39 33 28 23 20 18 17 19 18 18 16 15 14 15 15 18 20 24 27
61 66 46 51 52 47 44 41 46 47 53 56 60 60 58 61 58 60 62 61 48 40 35 33 27 23 19 16 16 14 12 13 13 13 12 10 9 8 6 6 7 10 15 17
69 77 66 52 50 44 47 41 32 40 40 45 46 39 44 38 39 40 38 36 29 25 23 20 17 15 15 13 12 10 8 6 5 5 4 4 4 4 6 10 13 14 23 34
53 70 44 43 57 46 51 36 46 38 34 34 34 35 36 38 40 39 39 35 33 34 32 28 24 18 14 10 7 5 4 4 4 5 10 15 17 16 14 22 35 47 51 53
59 65 53 34 34 34 29 31 31 32 35 36 37 38 39 38 36 35 30 26 24 19 15 12 9 5 4 3 3 3 4 4 5 4 4 4 4 4 5 7 10 17 29 37
41 34 34 42 41 37 33 32 33 34 33 34 34 33 30 29 27 24 20 17 16 13 9 5 4 3 4 5 7 9 10 10 11 10 8 7 6 5 5 5 5 5 6 5
46 29 26 30 33 34 33 33 32 31 30 28 27 26 27 27 24 22 19 16 12 6 4 4 4 7 10 14 18 19 20 22 22 20 17 14 14 14 12 10 9 9 8 7
33 27 32 32 30 33 32 33 33 32 32 32 30 28 25 22 19 16 12 7 4 4 5 7 11 14 15 17 18 18 21 27 34 39 35 28 27 24 22 26 33 22 16 14
29 32 37 35 39 38 39 42 37 30 28 27 26 24 21 19 16 10 5 4 4 6 9 11 12 11 10 8 8 12 17 24 36 52 63 56 46 46 36 39 56 55 46 34
34 40 39 33 34 39 37 38 39 36 32 29 26 23 20 15 8 5 4 5 7 10 10 9 6 5 5 7 8 11 16 24 34 44 61 80 76 72 61 54 73 81 67 51
35 44 46 42 43 44 43 45 45 38 32 28 25 20 15 7 4 4 5 8 9 9 6 4 4 6 9 12 14 17 22 31 40 50 72 86 93 93 94 73 67 69 85 72
31 29 32 52 52 51 50 47 37 28 28 26 20 14 6 4 5 6 8 9 8 5 5 6 8 10 12 14 21 34 44 52 59 68 80 90 94 93 97 99 97 87 68 70
38 34 26 47 49 46 39 31 31 32 27 20 12 6 4 5 6 9 10 8 6 6 8 12 18 22 23 20 23 38 50 61 67 72 78 85 92 97 99 99 98 98 95 92
52 39 33 29 30 32 36 37 34 26 19 10 5 4 5 7 10 10 9 6 7 11 18 26 32 37 44 45 41 39 40 47 64 75 82 85 89 94 95 90 94 93 94 96
48 47 41 44 47 53 47 35 24 17 8 5 4 5 6 9 10 11 7 8 13 23 28 27 27 34 42 54 58 61 66 70 65 59 70 82 91 94 98 98 95 92 88 88
46 58 54 50 48 45 30 20 14 7 5 5 5 6 8 10 11 9 7 11 19 28 28 24 23 30 53 62 65 68 73 79 86 92 94 92 86 86 88 88 89 92 93 93
31 42 42 38 30 22 18 11 7 6 5 5 5 7 9 11 12 9 8 16 26 32 34 38 28 28 61 66 67 74 78 81 85 90 92 96 100 100 98 98 98 93 88 87
25 25 23 22 20 16 9 6 6 5 5 5 6 9 11 13 12 9 9 20 30 35 36 41 37 24 57 67 71 80 85 89 94 95 93 96 98 100 100 99 97 96 93 89
26 25 23 19 14 8 6 6 6 6 6 6 8 11 12 15 12 10 10 20 30 33 34 35 33 22 45 71 79 86 90 94 97 98 98 97 97 97 97 97 98 100 98 94
26 26 22 18 10 6 6 6 7 6 6 6 10 12 14 17 14 10 12 18 27 31 31 31 28 20 44 78 84 86 90 96 97 98 98 99 99 99 99 99 98 98 98 97
26 26 22 17 9 6 9 39 16 8 7 10 14 15 17 18 15 12 12 19 26 30 31 30 24 20 50 78 85 88 91 96 98 98 98 99 99 100 100 98 98 98 97 98
27 26 22 16 7 14 50 50 11 8 8 12 16 17 19 19 17 14 13 16 24 26 28 29 24 20 59 77 86 88 92 96 97 95 98 99 100 99 99 98 97 98 99 98
29 27 24 17 6 28 62 48 9 10 12 16 17 20 21 22 21 17 16 17 21 24 25 28 27 20 63 75 81 86 91 97 97 97 100 99 98 98 98 98 98 98 99 99
33 30 24 16 11 42 76 62 11 11 14 19 20 22 24 25 26 22 20 20 21 20 20 24 27 21 60 74 79 83 86 94 91 93 98 99 98 97 97 98 98 98 99 99

GFSNGP_700_rhum_099.txt.gz
RH
48 57 61 56 56 58 60 60 68 66 68 72 72 75 75 77 79 82 86 89 88 87 84 81 78 77 75 73 72 68 64 61 60 55 52 51 51 50 48 49 48 47 46 47
29 39 55 53 54 58 64 59 61 61 60 65 71 75 78 79 78 79 83 84 84 84 82 80 78 74 71 68 65 60 55 45 40 35 31 30 29 29 30 32 34 35 37 39
42 54 50 57 36 49 51 53 52 55 63 54 59 63 68 73 76 78 79 81 81 80 78 77 72 63 53 44 38 34 31 28 23 20 17 14 12 12 11 12 12 13 14 18
54 46 63 50 43 47 43 46 48 50 52 54 55 56 62 70 78 82 82 79 79 71 59 48 43 39 33 26 20 15 13 11 9 8 7 6 6 7 7 7 7 6 7 8
59 71 32 25 34 48 46 36 43 45 44 45 48 52 59 66 63 63 67 65 58 51 46 38 30 24 20 16 12 9 7 6 4 4 3 3 3 3 3 3 3 4 5 6
66 72 62 37 46 42 41 30 30 36 42 43 45 42 50 46 44 42 41 37 32 28 23 19 16 14 11 9 6 4 4 3 3 3 3 4 5 5 5 4 3 3 4 8
60 73 32 28 41 52 38 28 38 36 30 30 32 31 32 30 28 26 25 24 22 19 16 14 12 9 7 4 4 3 4 5 7 9 10 12 13 14 13 12 9 6 5 4
60 68 53 31 40 35 27 26 26 29 31 30 30 29 28 26 24 24 24 23 20 18 16 12 7 4 4 4 5 6 7 7 7 7 7 7 8 14 20 20 18 13 9 7
34 28 29 30 35 38 35 36 34 32 31 29 27 24 23 23 23 22 19 18 16 12 8 5 4 4 4 5 6 6 5 4 4 4 4 4 5 8 16 27 30 24 16 10
40 22 27 27 33 34 39 37 35 34 32 30 27 24 22 22 22 20 19 17 12 7 4 4 4 6 6 6 5 5 4 4 5 6 6 7 6 8 13 24 40 35 27 19
50 30 35 33 36 36 37 34 37 40 39 34 29 25 24 25 24 21 18 11 6 4 4 5 6 7 6 5 4 4 6 8 10 11 11 12 12 12 16 34 55 52 44 36
40 33 42 31 34 33 39 40 40 39 38 31 29 29 28 27 23 19 12 5 4 5 6 7 7 5 5 5 6 10 14 16 17 16 15 19 22 21 29 44 64 73 70 64
65 57 55 49 45 44 36 41 44 38 39 40 37 34 29 25 20 12 5 4 5 6 7 7 6 5 6 10 14 18 22 25 24 21 20 25 35 42 39 49 74 90 90 84
53 66 70 62 70 72 60 52 44 44 46 45 35 29 27 20 11 5 4 5 6 7 7 6 6 7 11 16 22 29 35 36 35 32 29 33 46 50 60 66 68 78 95 99
41 41 38 40 52 71 79 76 69 60 52 34 30 28 20 10 5 5 5 6 7 8 6 6 8 13 19 25 31 38 42 46 49 50 52 46 46 57 66 72 79 86 88 88
16 45 51 45 34 50 82 78 65 45 34 33 28 19 9 5 5 5 7 8 8 7 7 8 13 18 24 29 39 46 49 52 53 55 62 70 66 56 71 78 86 90 87 91
13 26 59 55 38 50 52 41 40 40 36 27 17 7 5 5 5 7 8 8 8 7 8 13 18 25 29 28 37 50 52 55 59 64 72 78 83 87 77 75 82 86 87 93
11 23 57 54 39 44 59 60 52 40 25 12 6 5 5 5 8 9 8 10 8 8 11 18 25 33 37 27 30 54 59 63 70 75 78 80 86 92 93 95 94 89 87 89
16 31 60 58 54 58 62 54 34 20 8 5 5 6 6 8 10 10 11 11 8 10 17 22 27 33 35 27 27 60 67 74 78 82 84 85 88 93 95 96 99 100 98 97
22 26 38 57 62 59 40 23 14 6 6 6 6 6 7 9 10 12 13 11 9 12 18 23 28 30 31 22 33 68 75 78 83 86 89 91 92 92 94 97 100 100 100 99
22 25 26 24 24 23 19 10 6 6 6 7 12 8 8 10 12 13 14 12 11 13 20 26 29 29 27 21 47 70 78 81 87 88 92 94 94 94 95 97 99 100 99 97
24 24 26 26 22 18 11 6 6 7 28 55 21 7 10 12 14 15 16 14 12 14 18 25 29 28 26 23 59 74 81 84 85 90 94 97 97 94 94 96 98 99 98 98
44 31 26 27 24 18 9 6 8 39 58 53 16 9 13 14 15 17 17 16 13 15 19 22 24 28 26 26 65 73 81 83 86 90 91 95 95 95 95 96 98 98 98 98
44 43 29 27 26 21 12 6 34 59 62 39 11 8 14 15 17 18 18 18 15 14 16 20 21 25 27 27 65 73 79 79 81 83 90 95 97 98 98 98 99 98 98 97
46 44 38 28 27 23 15 7 32 61 51 49 20 10 15 16 19 20 21 21 18 18 18 19 18 21 26 27 64 74 76 73 74 79 89 97 97 97 97 98 98 98 98 97
45 49 41 37 31 27 21 8 23 66 66 51 11 13 17 17 20 20 20 20 20 21 22 21 19 18 24 25 62 73 72 71 71 76 90 97 97 97 98 98 98 98 97 96
49 49 55 45 34 30 25 14 39 83 64 24 30 19 19 19 21 21 20 21 23 25 27 26 24 18 23 24 59 73 71 70 66 69 90 97 98 97 98 97 97 99 100 100

GFSNGP_700_rhum_105.txt.gz
RH
41 37 46 40 38 51 63 61 76 50 61 62 65 67 70 72 73 75 75 72 75 78 77 78 75 70 70 62 62 53 47 39 35 29 24 20 16 14 12 11 10 10 9 9
47 32 29 29 32 38 48 55 58 53 41 50 53 59 65 67 70 74 76 79 75 73 71 66 58 46 39 36 32 28 24 19 16 14 12 9 7 5 4 4 4 4 3 3
66 44 40 35 33 26 26 37 34 47 37 52 57 59 63 64 66 70 73 73 73 74 67 54 45 38 31 25 20 16 12 9 7 6 4 3 3 3 3 3 2 2 2 2
73 43 41 19 28 33 34 31 41 45 44 54 56 58 60 62 63 64 64 60 52 46 40 34 32 28 23 18 14 11 7 5 4 3 3 3 3 3 3 2 2 2 2 2
66 70 34 28 26 32 37 28 34 28 38 48 52 52 52 60 58 54 46 41 38 38 37 33 28 23 18 14 9 5 4 3 3 3 3 3 3 3 3 3 3 3 3 3
82 70 53 25 26 26 31 34 26 26 30 36 41 38 41 42 42 38 37 36 36 36 33 29 25 20 15 9 5 4 3 3 4 4 4 4 4 4 4 4 5 6 7 9
85 95 44 28 33 36 34 27 30 32 34 33 32 33 31 33 33 33 35 36 37 34 30 25 21 16 10 5 4 4 4 4 4 4 4 4 5 5 6 7 10 14 16 18
63 89 60 27 32 40 42 44 45 46 46 38 37 38 39 38 38 38 39 36 34 32 28 22 18 12 6 4 4 4 5 5 5 5 5 6 6 7 10 15 18 19 19 19
44 31 29 31 34 38 40 40 35 42 49 48 46 46 43 40 39 40 38 38 38 36 28 22 15 7 5 4 5 6 5 5 6 6 7 8 9 12 15 19 21 22 23 24
51 43 46 45 51 54 53 51 43 47 50 46 44 46 48 48 48 43 41 41 40 34 26 18 8 5 5 5 6 6 6 6 7 8 9 11 17 23 25 26 26 26 28 29
47 44 51 48 42 45 50 61 59 53 50 49 54 52 49 50 50 47 48 48 39 30 22 10 5 5 6 6 6 6 7 7 9 10 13 21 28 29 30 32 34 36 39 42
50 52 42 23 29 42 48 53 62 54 48 47 50 55 54 54 47 46 45 39 33 24 10 5 5 6 7 7 7 8 8 9 12 13 18 29 33 34 39 40 41 43 48 55
42 34 19 17 17 21 31 38 52 63 58 59 56 59 64 58 57 55 41 34 26 10 5 6 7 7 7 7 8 9 10 12 14 16 27 38 42 44 44 43 45 48 52 59
37 21 23 22 18 16 15 37 46 58 63 68 73 68 65 66 66 49 37 26 9 5 5 7 8 8 8 8 10 11 13 14 18 22 38 44 46 48 50 53 54 54 61 66
24 22 17 16 14 12 14 24 45 52 60 81 91 86 80 78 60 43 24 7 5 6 8 9 9 9 9 10 12 14 15 16 21 31 45 47 51 55 60 62 62 67 68 71
15 18 24 24 13 12 14 25 37 40 57 78 86 85 70 49 38 18 6 6 6 8 18 10 10 10 10 12 13 16 17 20 24 42 49 50 56 61 59 59 66 69 70 76
22 23 25 24 15 14 22 29 29 33 42 53 54 49 42 26 9 5 6 10 47 51 14 10 11 11 11 12 13 16 18 23 30 50 53 56 61 63 64 71 74 71 74 82
18 22 25 26 28 20 24 30 30 42 48 46 46 32 17 6 6 15 52 56 22 10 10 12 12 12 11 12 14 16 16 23 37 53 56 59 61 64 77 83 84 81 79 83
20 22 27 32 32 30 24 33 39 41 44 28 21 10 6 6 38 58 35 41 21 12 12 13 14 14 12 13 15 15 16 23 41 58 60 61 65 73 82 86 88 88 88 85
17 20 31 34 31 27 26 26 26 24 22 19 11 6 6 22 50 65 59 27 13 14 15 16 16 16 13 14 15 16 17 23 44 61 64 62 67 79 83 89 95 95 91 90
20 23 30 35 36 30 26 26 26 23 19 14 8 7 9 39 60 61 61 29 22 16 16 18 18 17 16 16 18 18 16 22 45 65 64 64 72 82 83 88 93 94 92 92
22 23 27 31 35 39 40 37 30 27 24 17 10 7 17 49 52 62 45 33 21 16 18 20 20 20 19 20 21 20 17 21 48 65 66 66 75 82 86 87 90 91 93 91
14 18 21 26 32 36 40 44 36 30 27 23 17 9 15 47 58 59 41 40 41 21 19 20 21 21 21 23 24 22 18 21 49 65 67 64 77 86 90 90 92 92 94 94
15 16 19 20 22 33 40 42 41 39 32 28 25 15 9 35 57 56 44 58 34 20 20 21 21 22 24 25 24 22 18 21 51 68 69 60 77 88 93 95 95 96 98 100
19 20 21 20 20 26 39 46 45 45 41 36 31 22 13 21 62 53 60 60 43 20 21 22 22 23 25 25 23 22 19 21 54 69 66 56 78 90 91 95 96 95 96 96
40 31 28 27 25 26 31 41 49 56 58 49 38 28 22 35 67 59 65 71 56 22 22 24 24 24 25 25 22 22 20 22 58 71 66 50 77 88 92 95 96 96 97 96
82 78 63 37 32 33 31 34 40 54 60 60 54 37 27 38 63 58 69 79 51 21 23 24 25 25 25 24 20 19 21 25 61 73 67 45 68 87 94 95 96 97 96 97

GFSNGP_700_rhum_108.txt.gz
RH
33 31 42 48 47 62 94 46 72 48 61 54 47 65 68 66 66 66 66 72 75 79 77 75 70 63 51 46 42 39 34 29 23 17 14 12 11 10 8 7 6 6 5 5
46 32 37 36 38 40 43 44 65 65 36 32 46 51 58 65 66 66 67 68 69 67 61 54 43 37 33 30 27 22 17 14 10 8 6 5 4 3 3 3 3 3 3 3
77 49 50 41 30 28 29 30 34 65 26 42 48 53 58 63 63 65 65 69 65 55 46 40 36 32 29 23 19 15 12 9 6 4 3 3 3 3 3 3 3 3 3 3
96 59 44 18 22 27 30 33 36 34 37 46 52 51 52 51 58 62 63 61 55 46 42 38 34 31 26 21 17 12 7 5 4 3 3 4 4 3 3 3 2 2 2 2
96 81 40 28 29 31 34 27 34 30 30 32 36 38 38 44 47 51 48 45 41 39 38 36 36 32 27 21 15 9 5 4 4 4 4 4 3 3 3 3 3 3 3 3
100 85 43 28 28 32 32 38 30 31 32 29 32 31 44 29 31 33 33 34 34 34 33 33 32 29 23 18 11 6 4 4 4 4 4 4 4 4 4 4 4 4 4 5
100 99 67 31 36 32 40 33 43 43 47 47 43 39 34 36 36 36 37 38 37 37 37 38 36 29 22 16 7 5 5 5 4 4 4 4 4 5 5 5 5 6 8 13
86 100 80 26 30 34 38 41 50 49 48 62 56 48 47 44 40 41 41 41 43 44 41 36 33 27 22 11 5 5 5 5 4 5 5 5 6 7 7 8 13 18 21 22
42 34 30 33 38 45 50 52 57 56 52 51 53 58 61 57 54 51 50 49 49 47 44 41 36 28 16 6 5 5 5 6 6 6 6 7 8 8 10 16 22 26 27 25
48 30 35 42 48 51 53 46 42 42 48 48 51 58 60 71 72 69 67 63 58 55 54 46 38 23 6 6 6 7 7 6 7 8 8 9 10 12 23 30 31 31 30 30
40 30 41 41 42 36 35 34 35 40 45 48 54 52 54 62 70 72 68 63 62 63 59 47 30 8 6 8 8 8 7 8 9 9 10 11 12 23 33 35 34 34 33 33
27 33 37 36 29 20 16 18 19 21 31 44 47 48 51 55 63 69 66 64 64 57 47 33 10 6 8 9 9 8 8 9 10 11 11 13 19 34 39 37 36 37 38 39
23 31 32 24 20 22 21 19 15 15 22 37 49 53 56 62 67 67 63 64 59 44 33 9 6 7 10 10 9 9 10 12 12 12 13 17 32 38 35 34 39 42 43 42
27 28 26 25 23 21 16 14 13 14 24 39 49 56 66 75 75 72 73 69 50 31 6 6 7 12 13 10 10 10 11 12 13 14 15 27 39 39 36 37 40 48 58 60
29 24 19 23 25 24 17 12 13 16 26 34 42 53 68 79 82 78 68 47 21 6 6 18 42 30 12 10 11 11 12 13 14 15 17 35 41 37 41 43 57 70 71 70
22 19 22 22 25 25 15 13 17 22 22 25 28 35 48 63 65 51 38 10 6 9 45 43 14 11 12 12 12 12 12 14 15 16 22 42 46 44 45 61 74 78 80 79
22 21 20 22 24 27 25 17 18 20 22 34 38 42 48 46 40 23 6 7 44 55 40 27 13 12 13 13 13 12 13 14 15 16 27 47 47 45 58 71 76 79 83 85
19 18 17 20 24 27 29 28 24 26 29 34 40 37 33 28 14 6 8 51 50 56 36 15 13 14 15 15 15 14 14 16 16 16 28 50 53 54 68 75 76 78 82 81
18 16 14 16 24 29 31 29 27 32 38 39 35 26 20 11 6 6 34 55 64 54 35 26 17 15 17 17 16 15 16 18 18 17 28 54 56 60 74 79 78 81 81 80
10 12 14 18 26 27 30 29 27 27 26 25 23 20 13 8 7 12 38 57 62 49 35 24 17 17 18 19 17 17 19 20 19 18 32 56 57 62 78 84 87 84 83 81
8 9 13 15 21 27 31 34 33 29 27 26 24 20 14 8 7 16 44 50 55 50 42 44 26 18 19 19 18 20 22 22 19 18 35 56 58 64 80 88 90 88 90 89
9 10 11 12 15 22 29 33 36 39 38 34 30 26 20 12 8 18 42 47 53 45 53 45 26 19 20 18 18 21 22 23 19 18 40 58 57 65 81 88 89 89 92 92
13 14 14 13 13 14 16 23 34 37 38 41 38 31 26 22 14 11 31 41 46 56 55 46 26 20 21 19 20 22 22 22 20 19 45 60 54 67 80 86 91 92 92 93
27 26 22 20 21 20 19 19 20 29 38 42 42 40 36 30 24 16 22 45 52 60 66 53 29 21 22 20 21 22 22 20 20 21 52 60 53 69 80 87 93 95 94 94
50 35 48 45 57 82 41 32 24 23 30 42 49 51 46 41 34 21 23 57 58 62 74 66 27 22 23 21 22 22 20 18 20 22 60 63 50 68 81 87 91 94 95 96
60 44 48 62 69 92 95 70 40 32 28 31 44 54 57 56 46 27 30 58 58 63 76 54 22 22 23 22 23 23 20 17 20 25 65 64 47 62 81 87 89 94 96 98
96 95 89 97 95 96 96 93 63 45 39 32 35 49 56 60 60 38 30 47 58 68 75 38 21 23 24 24 24 23 19 17 20 33 69 67 45 55 79 87 90 92 94 98

GFSNGP_700_rhum_111.txt.gz
RH
37 30 32 38 71 72 70 77 80 51 48 42 46 58 70 50 51 57 59 61 65 68 70 68 66 56 46 43 38 33 29 25 21 18 14 11 9 7 5 4 4 3 3 3
40 27 57 48 52 66 71 70 72 71 63 52 49 55 53 56 55 54 59 60 61 62 61 57 55 49 43 37 31 26 21 17 12 8 6 4 3 3 3 3 4 3 3 3
80 63 69 52 27 29 27 24 29 62 40 56 57 54 49 57 59 54 61 64 64 65 59 49 43 38 31 27 23 20 16 12 8 5 4 3 3 4 3 3 3 3 3 3
93 80 60 32 29 27 26 22 30 37 33 30 31 36 37 46 54 54 63 70 68 67 58 49 44 40 36 32 26 20 15 10 6 4 4 4 4 4 4 4 4 4 4 4
89 67 49 36 23 27 26 29 30 26 31 34 33 29 25 32 42 49 63 65 67 64 54 49 44 41 37 33 29 24 18 8 5 5 5 5 4 5 4 4 4 4 4 4
75 75 49 33 25 27 31 35 26 30 39 39 38 34 54 58 53 34 36 39 40 42 45 47 45 44 41 39 34 27 16 6 5 5 5 5 5 5 5 5 5 5 5 5
97 84 72 37 36 36 36 34 32 31 37 44 49 44 40 37 40 41 40 39 39 38 39 40 40 40 40 40 32 24 11 5 6 6 6 6 6 6 6 6 6 7 7 9
90 81 79 27 29 31 32 34 36 40 46 49 51 48 48 46 47 51 50 49 46 46 46 46 45 46 45 40 32 19 6 6 6 6 6 6 6 6 7 8 8 10 14 21
51 37 32 35 32 34 37 40 43 46 49 44 36 38 45 47 50 53 61 65 60 56 54 50 49 49 47 38 27 8 6 6 7 7 7 7 8 8 9 9 10 19 26 24
41 25 29 37 39 36 39 44 43 35 25 29 33 44 52 52 46 49 63 69 70 69 62 56 56 55 46 32 10 6 7 8 8 7 8 9 8 10 11 14 26 31 25 19
35 18 26 26 32 38 39 29 20 17 18 18 20 24 47 56 50 50 56 65 71 70 65 64 61 48 35 10 6 8 10 9 8 9 10 10 11 12 14 29 35 28 26 32
19 23 28 29 33 34 28 20 20 21 20 16 14 24 38 48 50 55 59 70 73 68 68 65 50 33 7 6 10 20 22 13 10 10 11 11 11 12 22 37 34 35 38 44
15 22 21 27 33 28 21 24 23 20 15 13 15 25 40 54 60 61 64 67 67 68 70 51 28 6 7 25 40 20 12 10 11 11 11 12 13 13 30 37 36 39 51 58
16 16 15 26 26 25 23 24 24 19 13 13 16 28 42 52 58 63 72 76 76 73 47 18 6 12 42 33 13 11 11 12 12 11 12 13 14 18 39 35 32 45 54 52
8 9 20 24 20 23 22 24 21 14 14 16 20 27 36 45 54 61 67 74 65 40 9 7 39 49 36 22 12 11 13 13 12 12 13 15 15 26 44 43 43 50 48 51
16 12 16 18 21 20 22 25 23 16 17 18 18 21 28 33 40 46 48 41 28 7 11 54 53 40 25 16 14 14 14 14 13 13 15 16 16 33 47 46 55 62 64 68
22 18 18 19 18 18 20 22 25 24 20 20 21 27 31 34 37 36 32 19 6 12 52 60 50 42 35 20 14 15 16 16 14 15 18 18 17 39 50 51 59 69 75 80
17 22 22 18 18 16 18 24 26 28 26 26 31 33 35 31 26 23 14 7 7 33 61 60 49 45 32 21 18 17 17 16 16 18 20 18 18 45 51 54 66 76 80 80
9 19 20 19 15 15 20 27 28 28 28 28 30 32 29 25 22 16 9 7 10 35 52 55 51 48 48 29 17 17 16 16 18 20 21 18 21 51 54 57 74 83 84 83
9 14 15 12 15 17 20 26 28 29 28 28 27 27 25 23 20 13 8 8 12 35 47 51 49 53 54 30 18 18 17 18 20 21 20 18 26 53 55 62 81 86 86 87
11 11 10 8 12 13 12 20 25 29 34 34 33 31 29 28 24 18 12 9 17 31 39 46 48 57 52 34 20 19 18 20 21 21 19 18 32 56 54 67 83 87 87 86
12 11 11 11 11 11 13 14 16 19 29 35 37 39 38 36 32 26 21 15 16 24 35 41 52 62 58 39 20 20 20 21 22 20 18 18 39 54 52 70 83 89 88 86
30 53 55 53 48 25 16 17 16 15 16 21 33 40 41 40 39 34 29 22 19 20 29 45 56 67 67 40 20 20 21 22 22 18 17 18 48 55 52 72 85 90 89 88
54 55 55 55 55 53 53 35 40 64 90 77 25 33 47 46 46 44 40 33 22 21 31 52 58 70 70 26 20 21 22 22 22 17 18 21 54 56 51 73 86 91 91 92
48 48 55 60 57 43 66 73 59 72 95 96 53 37 41 49 48 56 56 48 35 22 35 53 57 70 61 22 20 21 22 23 22 17 18 25 58 58 49 73 85 90 91 93
76 86 84 74 66 61 77 92 94 94 96 96 92 74 50 52 59 54 64 63 52 28 36 52 58 71 53 20 20 21 22 24 22 16 19 30 59 59 47 71 84 89 93 94
88 94 94 85 78 84 93 95 96 97 97 96 95 94 91 89 92 61 66 70 67 42 32 45 59 70 47 21 21 22 23 24 21 16 20 34 60 60 45 68 82 87 92 93

GFSNGP_700_rhum_117.txt.gz
RH
28 28 32 34 31 31 49 42 74 21 42 11 24 30 40 44 40 40 29 37 43 48 50 46 44 50 50 45 36 32 30 29 26 22 18 14 9 6 5 4 4 4 4 4
40 27 32 31 20 23 26 32 56 43 30 13 31 33 39 38 35 35 37 36 45 52 52 54 57 63 65 55 45 38 34 34 32 27 23 19 12 7 5 4 4 4 4 4
53 41 35 29 21 23 20 15 27 39 12 24 24 25 29 27 27 24 26 34 44 46 44 49 59 62 65 57 48 45 42 39 35 31 25 21 14 8 5 4 4 5 5 5
82 58 84 20 26 26 29 24 24 22 18 22 28 28 27 28 33 33 34 35 38 40 38 45 51 54 60 56 52 50 47 44 39 35 29 23 14 7 5 5 6 6 6 6
71 92 40 18 22 21 20 17 20 20 21 24 30 24 21 30 31 40 38 47 50 48 36 37 38 41 44 47 47 48 48 45 42 37 30 22 10 6 6 7 7 7 7 7
90 91 81 24 25 26 31 23 19 22 25 26 22 20 20 29 38 42 39 37 36 36 40 45 47 46 46 44 46 49 47 44 40 37 29 14 6 7 9 8 8 9 8 8
100 91 56 20 30 33 41 22 26 29 29 32 34 38 40 42 34 25 28 38 42 42 44 47 51 56 55 52 52 52 46 46 45 35 14 6 10 14 17 15 11 9 8 9
99 95 68 28 24 29 28 32 35 37 35 35 39 39 42 35 23 21 26 31 34 40 45 48 55 63 63 60 59 52 53 50 36 12 7 24 42 40 24 13 11 10 10 13
38 22 18 18 22 27 31 34 39 45 46 46 43 41 35 22 21 20 18 31 42 39 40 47 57 62 60 58 56 57 48 32 8 15 46 48 34 17 13 16 13 13 15 13
40 28 30 32 31 30 37 36 36 38 39 39 40 43 24 23 24 20 16 24 44 44 42 47 52 56 58 56 58 48 24 8 39 52 40 23 17 15 30 21 14 13 13 14
42 39 40 36 29 26 28 28 29 36 39 36 38 27 25 26 22 19 15 25 40 44 46 52 58 63 58 59 48 13 27 49 44 33 22 15 15 20 15 13 12 13 14 22
45 46 48 38 33 32 28 28 29 32 36 37 31 26 25 23 20 16 15 26 39 46 52 58 62 61 64 52 12 42 45 42 37 28 24 20 16 16 15 12 14 15 16 32
44 41 38 26 29 25 25 24 26 29 30 28 26 23 23 20 16 15 17 27 39 45 51 58 66 69 55 12 43 46 43 42 38 29 19 16 19 16 12 14 16 16 24 39
46 46 41 38 32 24 19 17 19 27 27 21 22 22 22 18 17 18 23 30 34 43 48 55 60 52 16 24 53 46 44 43 41 38 21 20 19 13 13 16 16 15 35 43
38 34 36 42 45 40 26 22 22 20 19 22 23 23 23 20 19 21 23 28 33 37 44 47 42 26 8 47 57 48 46 45 46 31 18 18 16 14 15 17 15 17 37 45
40 33 30 26 28 45 32 31 20 20 20 18 18 22 25 24 21 24 30 32 36 40 40 38 28 8 13 52 59 50 46 46 49 37 20 18 15 16 17 17 14 21 43 45
42 38 27 21 22 41 39 29 25 22 20 17 19 26 29 28 27 31 34 36 36 36 31 25 12 7 13 49 54 49 46 48 52 50 23 17 16 17 18 16 14 27 47 54
26 21 16 13 16 42 38 31 26 22 18 18 23 28 28 29 31 34 35 32 32 29 24 18 9 7 10 37 46 46 44 51 56 56 24 17 17 18 19 15 15 35 49 64
26 22 22 20 25 37 37 26 18 16 16 14 19 20 26 28 30 32 32 30 30 27 28 46 9 8 10 29 39 42 44 55 60 57 21 17 17 19 19 14 16 43 49 68
65 53 61 64 56 42 33 29 17 27 33 35 75 65 21 29 38 33 35 35 33 30 28 78 26 10 11 24 33 40 48 59 63 42 16 17 17 20 18 14 21 48 51 72
83 82 80 86 91 88 46 26 38 52 54 67 70 78 83 25 47 44 42 73 71 41 34 87 83 19 13 17 29 39 51 62 63 26 16 17 18 20 16 14 29 50 52 74
73 70 69 75 82 90 80 69 42 35 45 44 41 47 60 81 46 80 92 93 95 86 42 92 94 54 20 17 23 40 52 64 64 30 16 17 18 19 15 14 36 50 52 76
44 66 30 36 74 77 72 72 78 77 41 42 46 62 63 76 90 96 97 97 91 94 83 94 95 90 43 26 21 41 52 64 65 34 18 18 18 18 14 15 42 52 52 76
38 40 38 33 63 69 53 53 67 91 77 42 51 59 63 62 76 92 96 96 97 96 95 95 96 94 92 70 24 40 50 62 66 38 20 19 18 18 14 17 45 52 52 76
55 60 64 60 41 37 34 36 56 72 67 60 83 86 89 93 86 92 95 96 96 96 95 96 96 95 94 94 41 38 50 63 66 38 21 20 18 18 15 19 47 53 52 75
47 59 62 60 53 42 40 67 73 77 85 88 88 86 90 96 93 93 95 96 96 96 96 96 96 95 94 95 70 39 45 63 65 39 22 21 18 18 15 20 49 54 50 73
39 44 48 58 58 56 68 89 87 82 87 91 76 75 84 99 97 96 96 96 97 96 96 96 96 95 96 95 90 40 38 61 62 37 23 21 19 18 16 20 51 57 49 70

GFSNGP_700_rhum_120.txt.gz
RH
26 27 30 30 31 34 46 46 71 22 34 10 22 23 26 28 26 30 33 34 37 40 47 52 49 55 61 56 53 43 40 39 38 35 32 29 25 21 17 12 8 5 4 4
38 24 30 34 25 25 29 33 43 29 27 17 18 20 21 22 24 22 28 29 25 25 37 46 48 53 56 55 54 46 44 43 40 38 36 33 28 24 18 12 8 5 4 5
48 38 39 30 14 17 21 24 27 30 18 21 21 25 24 23 27 27 26 33 31 28 32 39 43 45 45 46 46 48 47 44 42 39 37 36 32 26 19 12 7 5 6 8
74 53 65 17 19 19 22 18 22 19 18 21 21 23 26 28 26 24 25 33 37 33 39 41 39 36 39 38 40 43 45 46 45 45 45 42 36 24 12 7 6 9 10 9
74 90 34 21 19 21 22 16 20 19 22 24 25 24 20 24 24 24 29 38 37 37 38 37 35 36 45 49 49 48 49 49 51 50 50 45 29 11 6 10 12 12 14 14
82 82 62 22 21 22 26 22 18 24 29 27 28 29 31 32 38 40 38 27 24 27 35 38 40 46 53 55 57 57 56 59 58 55 50 34 12 7 16 28 32 26 17 14
74 94 46 16 23 25 31 22 28 29 30 33 36 35 36 37 39 36 22 21 21 20 27 36 46 51 54 58 66 67 68 64 58 54 37 11 9 34 46 38 19 16 22 19
94 98 61 19 23 31 32 33 33 31 33 32 35 43 45 44 41 33 21 23 22 16 23 32 36 42 50 60 69 70 66 59 56 36 9 18 45 47 29 20 15 31 29 20
37 32 32 39 40 42 42 41 38 36 38 40 36 35 39 38 41 31 25 26 23 16 20 36 38 40 48 61 64 63 60 59 37 9 34 48 40 26 18 15 19 18 16 15
44 37 44 48 48 45 42 37 28 26 29 41 35 31 33 38 40 29 28 27 23 18 21 39 46 47 52 57 63 60 60 43 14 45 43 38 28 22 22 18 17 18 13 12
47 42 50 47 48 51 46 41 38 35 34 33 37 28 34 32 28 27 25 23 21 18 25 41 50 52 57 62 61 59 53 17 44 42 40 36 32 24 18 21 18 12 12 14
50 48 56 47 45 41 37 33 32 26 23 26 28 27 32 27 24 23 23 20 18 18 29 41 49 57 61 62 62 63 18 43 44 42 40 37 34 22 23 21 13 13 15 15
56 51 51 43 43 39 45 40 34 30 26 27 26 32 26 22 22 24 22 19 18 28 41 44 53 59 62 64 64 32 24 49 44 44 42 43 30 21 20 16 14 16 16 14
63 57 48 41 35 29 29 35 43 37 26 24 28 23 21 22 23 23 22 20 21 25 33 45 49 57 66 64 51 13 44 53 46 45 45 45 34 21 20 15 15 17 17 14
41 43 42 42 43 41 36 31 32 42 30 24 20 22 22 20 22 26 25 23 26 30 38 44 50 65 56 49 22 11 52 57 48 46 47 48 44 24 18 15 16 18 15 14
34 31 30 28 28 29 24 23 35 39 26 25 25 24 23 25 29 31 28 28 30 36 39 40 51 59 42 36 9 11 49 57 49 46 47 51 52 26 17 16 17 18 14 15
36 33 25 22 21 17 17 37 44 31 28 27 26 26 31 32 32 34 37 38 38 38 38 42 54 42 74 22 7 9 40 52 48 44 48 55 57 25 17 16 18 18 14 21
64 70 66 70 48 42 49 47 41 30 23 23 24 26 36 72 58 40 40 42 43 38 38 46 43 37 82 59 8 8 26 42 43 42 49 60 57 21 16 17 18 16 14 32
64 67 77 78 68 78 80 73 61 50 58 50 64 62 82 88 90 52 45 88 72 42 48 40 37 38 91 94 28 11 18 32 39 42 52 62 41 18 17 18 19 15 15 42
50 41 56 61 87 88 84 75 84 90 46 50 55 64 83 78 81 89 87 58 88 61 44 56 86 83 43 94 67 26 23 26 36 42 55 63 37 18 17 18 19 14 18 46
65 40 16 36 53 51 49 47 58 77 92 83 58 48 48 49 55 75 68 80 96 92 93 95 97 93 48 86 92 54 46 22 33 42 57 66 40 19 18 18 18 14 22 48
26 11 8 18 34 34 42 39 34 28 55 80 86 91 80 59 52 65 72 56 76 97 95 91 96 95 92 94 97 89 57 30 30 42 57 66 43 20 19 19 18 15 27 50
11 16 16 24 50 49 46 53 51 40 30 46 58 56 59 86 58 53 66 63 81 79 95 96 95 96 95 96 98 95 85 55 29 42 54 65 47 22 19 19 17 15 33 52
48 60 59 57 51 45 41 44 56 64 58 39 36 48 70 72 56 50 84 97 95 96 92 96 96 96 95 96 98 96 96 73 39 44 50 64 49 23 19 19 17 15 36 53
63 68 67 46 40 36 38 41 44 50 54 48 46 80 79 60 67 88 98 100 98 96 95 96 96 95 96 97 96 96 96 92 73 50 50 63 49 23 20 20 17 16 41 55
57 57 60 48 50 74 80 71 58 50 56 47 48 67 93 95 92 91 82 92 100 95 94 96 96 95 96 97 96 96 96 95 89 53 51 62 45 23 20 21 18 17 42 57
47 39 44 50 72 81 79 77 71 66 64 64 56 60 78 84 86 87 92 92 88 95 96 97 96 96 96 97 96 96 96 96 92 57 54 62 41 23 22 22 18 17 43 58

GFSNGP_700_rhum_123.txt.gz
RH
28 29 33 32 33 37 51 46 67 19 34 12 23 28 24 23 20 20 19 21 25 30 29 26 29 37 51 53 53 54 50 49 42 38 36 34 32 30 28 24 21 17 12 8
30 21 30 32 26 28 30 38 48 30 27 21 26 27 26 22 24 19 22 23 22 22 32 27 27 35 47 48 54 47 48 47 43 41 41 39 37 34 31 27 22 15 8 7
44 31 31 28 16 17 21 21 24 26 18 18 18 19 21 20 20 19 21 22 18 17 31 25 29 38 41 43 38 36 34 38 39 40 42 42 41 39 36 26 14 7 9 14
62 42 49 17 16 17 17 14 20 19 19 23 24 22 23 24 23 19 19 21 20 27 29 23 27 33 45 44 38 36 42 45 46 46 48 49 46 43 32 13 7 15 31 42
60 82 28 17 17 19 23 16 19 20 22 27 27 24 23 27 28 26 28 35 36 32 21 22 25 32 34 37 39 45 50 55 55 55 57 51 49 37 16 8 28 47 44 30
83 68 55 18 19 19 25 22 18 20 31 36 34 31 28 32 31 35 37 38 35 26 22 22 21 30 41 41 44 48 58 61 62 64 58 55 43 18 9 39 49 40 30 20
84 93 36 29 24 30 38 30 33 38 43 45 41 38 34 35 39 42 40 39 34 23 23 24 17 23 33 44 50 63 59 66 65 62 57 49 22 12 46 48 36 26 20 21
93 96 59 30 34 39 42 45 50 52 53 51 38 31 36 43 45 47 43 42 40 26 27 27 20 20 35 38 51 51 63 66 67 61 56 27 19 45 42 36 29 27 24 21
41 34 39 44 48 51 55 56 50 47 39 42 42 34 33 35 39 40 40 40 38 29 29 26 23 21 39 47 46 56 60 66 65 62 42 19 43 39 38 34 31 23 22 25
54 41 48 53 50 53 56 56 53 53 51 46 41 38 38 40 37 40 42 42 37 32 28 25 25 24 37 52 52 58 62 70 67 63 19 42 40 40 38 35 26 26 28 17
54 45 53 49 54 50 51 50 48 47 45 37 36 31 29 28 26 31 34 33 29 25 25 24 24 26 40 58 59 65 70 67 66 43 29 43 40 41 40 35 26 24 23 14
60 63 67 66 56 51 48 42 34 30 30 37 41 36 31 28 28 34 32 24 25 27 27 26 24 37 53 60 68 74 82 78 66 22 42 44 42 42 41 36 26 24 21 13
72 73 65 54 47 43 42 43 42 41 40 35 37 41 34 30 33 26 23 25 26 27 25 24 29 49 60 63 75 82 90 87 64 21 48 46 44 44 44 40 30 23 17 14
50 41 38 34 32 35 35 34 34 34 34 31 38 38 32 28 23 25 26 27 29 29 27 29 44 62 73 80 83 86 86 80 35 21 53 48 45 46 47 49 33 20 16 16
38 34 33 32 30 28 29 28 24 24 26 40 41 30 26 25 26 26 28 31 32 31 37 44 55 70 81 87 79 82 94 62 16 21 54 51 46 47 50 55 37 18 16 17
52 58 50 43 46 48 45 42 45 44 38 33 30 28 28 29 32 32 32 32 32 34 39 44 51 82 79 86 81 72 87 45 10 20 52 51 46 46 54 60 34 16 16 17
70 65 63 62 59 56 66 68 56 54 42 38 35 28 32 30 32 58 77 77 50 56 76 87 86 83 77 86 82 73 95 62 23 19 44 48 43 47 58 60 24 16 17 17
68 70 63 54 54 49 44 46 54 71 72 62 68 78 65 73 75 66 79 86 77 73 94 95 89 83 65 58 50 60 91 94 31 38 35 39 39 47 62 53 18 16 17 18
83 94 92 88 62 47 18 15 18 28 39 58 57 60 72 65 68 59 74 82 94 87 87 90 96 74 58 60 54 57 84 96 75 47 51 54 38 47 64 52 20 17 18 17
92 70 37 30 35 52 35 8 10 20 33 37 39 41 42 65 76 78 63 60 53 67 88 94 96 95 78 88 95 96 72 61 95 47 74 65 42 48 66 56 23 18 18 16
57 46 20 17 31 31 11 6 10 19 36 43 39 34 37 34 39 75 80 77 63 65 81 88 91 94 97 94 91 87 94 83 97 93 94 71 50 51 67 58 26 18 18 15
18 16 16 19 19 12 14 40 56 47 46 44 41 42 50 46 51 48 68 83 85 66 65 66 70 84 92 96 93 88 92 96 96 95 95 77 55 61 66 61 28 19 18 15
31 35 29 26 17 12 18 60 67 49 43 38 35 39 44 47 47 57 44 56 91 86 53 59 76 90 91 96 98 96 93 97 96 95 95 89 66 70 63 61 29 20 19 15
19 14 14 12 11 15 25 54 63 53 48 48 49 56 56 50 50 50 51 65 65 69 57 63 93 92 94 91 97 96 95 97 96 96 96 94 90 80 67 63 29 20 19 16
34 42 42 30 20 22 44 47 50 53 66 67 68 70 66 65 61 49 47 63 86 82 84 96 97 98 94 95 96 96 96 97 96 96 96 95 95 82 75 65 28 21 20 16
32 40 44 52 41 38 35 58 80 81 89 80 75 76 74 73 68 64 70 77 87 99 96 97 97 96 96 96 96 96 97 96 96 96 96 95 94 89 80 68 27 22 20 16
24 25 30 36 34 37 67 100 99 90 94 91 84 87 85 85 80 74 74 75 74 80 85 91 96 94 96 96 96 96 97 96 96 96 96 96 94 88 87 67 26 22 20 17

GFSNGP_700_rhum_126.txt.gz
RH
21 22 28 27 26 32 43 38 58 13 27 14 24 27 23 22 23 21 19 19 18 18 24 20 23 30 27 30 40 46 41 42 47 38 39 39 36 34 34 34 32 30 21 13
26 21 26 25 22 24 30 35 38 24 24 28 26 25 24 24 24 22 22 20 22 24 23 19 19 31 24 28 37 46 38 43 46 39 40 40 40 41 42 40 37 27 14 9
46 36 33 27 18 16 20 22 24 26 21 30 29 34 27 27 27 26 24 22 20 23 25 21 29 28 23 31 41 43 42 48 43 43 46 45 45 48 48 46 36 15 9 29
56 36 50 20 20 20 18 22 26 27 30 36 40 38 38 37 30 28 29 25 25 32 38 36 32 24 26 29 37 44 46 45 44 48 48 52 52 53 49 44 22 9 33 46
55 67 28 25 20 22 23 36 26 28 34 38 40 43 40 37 31 30 34 36 39 39 39 38 29 23 23 25 34 36 37 43 51 51 53 58 60 55 52 34 10 38 47 41
75 67 52 22 28 30 32 31 25 29 38 43 47 50 40 38 30 34 41 44 41 41 40 40 28 24 25 21 23 35 45 55 57 56 62 62 58 57 48 13 36 45 38 33
87 92 34 31 32 40 44 41 45 47 50 54 54 50 42 36 35 36 39 46 43 42 38 43 41 30 29 25 20 44 60 62 60 66 69 68 60 54 19 31 42 38 34 32
82 96 57 35 42 47 51 53 52 51 51 50 48 45 42 39 40 36 35 38 40 37 39 42 39 34 30 26 25 37 50 55 65 74 74 72 62 47 23 41 39 37 35 28
42 37 41 48 51 55 59 55 50 52 48 47 46 44 43 41 31 28 29 28 32 38 37 40 38 38 31 29 26 32 52 58 68 74 76 74 70 27 38 40 40 39 36 29
56 43 52 55 58 61 59 57 56 54 51 46 36 33 33 38 42 39 33 27 28 29 36 36 34 29 28 28 29 34 60 66 73 75 79 76 75 25 42 41 41 40 36 29
65 57 60 53 54 61 62 55 49 47 44 42 42 41 41 37 37 42 41 35 31 34 34 27 25 26 27 28 32 43 65 69 79 80 89 86 64 28 43 42 42 42 39 35
71 74 81 74 59 43 39 36 38 38 36 33 32 31 32 34 39 42 40 37 34 30 25 25 26 28 28 29 34 52 68 73 82 87 89 88 45 30 45 44 44 43 43 43
67 75 62 43 49 47 39 39 39 34 29 27 31 32 36 38 40 34 28 26 26 25 24 23 25 28 29 35 59 69 78 85 90 94 94 94 31 35 56 47 45 44 47 49
72 51 54 62 49 52 54 54 49 44 45 47 41 35 32 31 31 30 28 28 28 29 31 32 32 33 40 58 71 79 85 88 90 94 96 73 20 41 66 49 46 46 49 51
65 71 70 64 58 57 60 58 56 61 59 57 58 57 50 44 28 29 31 34 49 65 51 39 43 48 54 67 80 92 93 96 97 94 95 38 15 49 68 54 53 47 59 47
75 73 68 64 61 63 62 63 57 49 47 45 45 49 54 56 71 72 66 54 48 64 78 77 62 67 80 81 94 98 96 96 96 94 93 68 41 68 67 55 58 57 72 40
71 72 70 69 67 70 79 75 65 50 32 32 38 46 44 30 29 42 60 64 61 71 93 97 95 90 93 96 95 94 95 95 91 78 94 92 58 61 61 63 64 66 80 36
77 83 88 86 80 72 73 69 60 50 25 18 28 25 21 20 15 25 44 62 64 70 70 82 90 90 91 97 94 82 81 90 85 79 73 93 67 55 60 72 73 78 86 39
80 82 83 85 84 81 77 57 28 21 21 10 9 9 7 6 14 24 32 38 46 71 71 62 60 68 96 93 93 67 63 70 85 96 95 92 91 76 73 91 78 91 91 45
72 76 77 79 80 73 47 31 24 14 15 17 13 10 16 18 25 26 35 37 41 43 57 86 68 66 69 93 90 96 97 100 99 96 96 66 82 92 83 91 90 94 92 51
77 72 71 63 56 44 36 30 19 17 12 10 9 22 45 45 39 39 37 37 35 57 54 52 94 84 60 78 76 80 95 98 98 93 95 95 95 96 96 91 89 94 92 51
47 46 38 33 29 26 24 20 16 11 9 10 11 33 60 54 48 45 47 47 42 48 51 48 55 81 97 82 66 70 95 96 96 98 98 96 96 95 96 91 94 94 90 50
22 20 18 17 16 15 15 19 25 35 27 23 33 46 58 57 58 70 51 58 61 57 55 51 59 70 95 96 66 61 94 96 96 97 97 94 93 96 96 93 94 94 88 52
16 18 22 22 21 21 20 21 30 42 50 43 40 47 78 85 75 84 81 72 71 66 53 51 74 69 72 79 72 72 95 96 96 97 96 95 96 96 96 94 95 94 88 52
25 24 23 23 27 26 20 21 28 33 39 60 87 99 100 98 95 86 93 87 80 77 69 64 76 95 73 68 78 95 97 96 96 96 96 96 96 96 96 95 95 94 93 42
24 38 61 70 69 52 44 38 35 30 72 97 91 96 92 87 91 92 85 91 95 91 81 74 75 84 91 94 95 94 97 97 96 96 95 96 95 95 96 95 95 95 90 35
67 88 88 80 80 81 71 72 78 67 96 97 88 78 73 79 89 95 95 92 93 95 94 93 90 88 79 77 75 78 86 97 96 96 95 95 95 96 96 95 95 95 79 28

GFSNGP_700_rhum_129.txt.gz
RH
21 22 26 23 26 35 44 38 50 25 25 18 30 35 37 40 35 24 21 23 22 18 18 20 23 23 22 20 32 28 28 32 44 51 46 48 42 41 41 38 38 39 36 27
16 15 22 23 22 24 28 35 40 25 23 32 31 36 36 37 44 34 24 24 25 24 21 23 30 26 23 32 28 24 24 31 50 49 50 49 41 44 47 48 49 44 36 18
29 26 27 23 21 21 22 23 26 28 27 37 33 33 28 33 47 44 34 27 26 28 26 28 32 35 34 31 24 26 27 32 44 53 54 48 48 52 54 53 54 49 31 10
43 33 47 19 22 20 22 30 33 32 35 38 34 26 36 48 48 40 37 28 29 33 33 33 34 35 37 30 24 24 24 26 37 51 59 52 54 59 60 60 56 48 15 29
48 50 26 24 22 26 29 35 30 30 36 32 33 42 47 50 48 40 34 34 31 31 29 31 32 32 34 38 28 25 25 24 37 49 62 56 60 65 66 67 57 41 18 42
64 58 46 22 33 35 44 42 32 34 39 46 50 52 44 47 46 44 41 40 38 36 34 28 33 30 32 36 37 31 31 25 36 55 66 63 70 70 73 69 60 20 39 38
77 72 39 31 34 45 48 45 45 51 54 53 53 55 49 48 41 38 44 47 40 34 28 29 34 34 35 38 38 35 32 27 29 51 65 70 72 75 76 74 62 25 40 38
90 98 58 34 42 54 58 56 57 55 52 52 52 50 48 45 39 38 35 35 39 40 40 35 31 29 32 36 43 38 34 30 30 51 68 75 76 80 79 73 50 33 39 38
50 40 40 45 50 58 62 58 55 53 51 51 47 44 42 41 38 37 38 39 39 43 44 44 38 37 37 41 37 32 30 32 33 48 67 74 82 84 81 82 40 36 40 40
58 52 53 58 65 66 63 66 61 42 34 35 37 37 36 34 32 31 31 33 36 39 39 36 37 36 31 27 27 29 33 37 38 50 74 81 85 83 87 84 34 42 41 43
69 70 69 65 66 68 64 47 35 38 44 42 34 31 30 30 31 31 31 31 31 30 28 26 25 25 26 26 27 31 35 40 46 63 80 85 88 94 91 89 58 39 58 52
74 75 80 82 74 47 43 41 45 50 51 44 40 40 43 45 47 44 39 29 24 24 27 30 31 31 33 34 35 34 34 45 65 85 91 95 99 100 98 95 39 41 91 64
84 90 93 65 56 69 70 64 64 64 65 63 63 67 66 64 64 63 61 62 57 36 27 34 50 60 60 44 37 43 46 64 80 86 90 97 98 96 97 80 28 66 92 79
88 90 65 76 79 69 62 58 59 56 53 50 47 44 40 38 38 40 39 37 36 46 66 60 53 56 61 71 66 54 71 82 86 92 96 95 96 97 95 68 31 74 91 88
77 70 72 73 70 65 65 67 71 73 71 67 64 61 58 54 43 21 23 33 44 40 38 47 57 68 81 87 85 92 90 97 98 98 96 97 96 96 95 59 57 90 91 86
75 78 78 74 71 70 71 71 73 70 64 58 57 54 46 40 27 20 10 12 19 32 54 53 59 70 72 82 81 90 94 98 96 96 96 97 96 95 96 95 78 95 89 89
78 77 76 74 74 75 74 74 74 76 76 76 74 55 36 27 20 12 9 6 5 8 25 36 38 68 83 73 66 84 90 97 91 86 97 97 96 96 95 94 64 61 81 84
76 77 78 78 75 73 73 74 74 72 65 63 69 68 59 45 33 18 10 6 6 6 18 35 42 50 60 79 72 68 91 93 86 77 84 96 96 97 96 97 94 76 75 95
89 84 80 78 79 78 76 76 74 67 58 52 51 46 37 23 14 9 8 6 5 11 17 40 45 44 54 55 83 82 84 92 96 96 96 97 95 96 96 94 93 90 94 96
85 84 81 77 68 72 59 37 29 24 23 19 13 12 12 10 10 8 7 5 7 30 46 56 57 48 48 60 56 68 88 95 92 93 94 95 90 93 94 93 95 97 96 96
69 53 43 37 30 27 22 16 14 13 13 15 16 15 24 30 26 16 11 13 26 50 54 64 68 58 56 52 59 59 90 94 94 95 95 95 88 89 95 96 95 96 96 96
31 20 14 14 18 17 16 15 15 16 16 18 17 17 22 31 39 32 36 50 60 71 82 80 75 72 63 61 57 65 69 88 96 96 91 94 94 94 100 98 95 95 96 96
14 14 16 17 17 16 16 22 38 52 54 37 23 20 26 35 40 80 80 88 95 92 90 90 86 79 72 63 62 72 73 80 95 96 95 95 96 97 97 96 96 96 96 95
16 18 16 18 19 50 63 53 65 70 72 44 25 28 35 32 65 100 97 96 96 95 93 88 91 93 86 68 65 80 72 66 75 76 95 96 96 96 96 96 96 96 96 96
19 14 16 21 49 69 66 66 73 79 75 55 39 40 47 80 97 93 90 84 88 95 92 100 96 96 96 87 77 70 86 90 81 95 96 97 97 96 95 96 96 96 96 96
18 17 25 40 64 65 58 83 88 88 94 62 43 67 80 96 88 80 88 88 78 77 90 92 92 96 97 97 92 80 80 89 96 96 98 97 96 97 95 96 96 96 96 95
20 20 36 41 42 60 67 98 96 90 97 97 85 88 90 89 91 65 59 67 90 96 94 95 94 93 95 97 96 93 90 90 94 95 100 98 97 96 96 96 96 96 96 95

GFSNGP_700_rhum_132.txt.gz
RH
17 19 22 20 22 25 30 23 45 26 34 14 23 32 30 28 29 33 45 43 36 22 22 24 22 19 20 24 24 23 27 31 25 29 34 42 52 55 56 49 46 47 45 45
19 17 19 23 23 28 32 30 40 26 19 29 31 33 32 33 32 45 46 37 36 27 23 26 27 27 29 32 33 33 33 27 24 26 28 37 52 57 56 50 50 52 53 52
36 24 26 27 18 20 23 24 28 36 37 38 36 34 32 29 46 48 47 44 32 30 31 28 28 28 28 27 28 33 37 28 25 27 31 41 58 63 66 57 56 58 60 58
38 28 45 21 20 23 22 31 32 31 38 35 32 31 38 46 48 47 47 45 44 41 36 34 34 34 32 30 30 31 36 41 33 27 27 34 52 71 77 64 63 65 66 60
44 61 25 29 25 26 33 42 39 36 40 40 37 44 47 48 50 50 47 39 34 35 40 41 38 37 33 30 32 31 37 41 42 34 31 29 38 69 91 71 71 72 72 65
56 59 39 23 32 35 42 46 41 37 35 44 52 50 44 51 50 47 47 42 42 40 37 38 42 41 40 37 34 32 36 38 42 39 36 31 38 70 100 81 78 75 78 70
86 79 43 42 37 39 48 50 52 54 57 58 56 58 52 43 40 39 38 38 36 36 37 38 41 43 43 43 40 38 36 39 43 45 40 36 49 73 100 98 91 89 84 78
94 96 70 50 46 46 50 53 59 59 57 53 45 38 38 37 35 34 32 32 31 30 31 35 37 38 37 35 36 36 36 36 36 33 37 42 53 85 100 100 98 98 96 83
48 50 47 46 49 52 59 60 61 62 54 36 40 43 38 33 31 30 30 31 31 30 29 28 29 28 28 26 26 27 28 29 31 34 39 47 59 87 100 100 99 99 94 84
55 52 54 56 60 65 68 68 68 56 38 42 48 51 52 46 46 50 52 50 49 46 44 44 31 23 26 25 27 28 29 31 35 38 43 52 63 92 100 99 97 98 96 72
67 66 70 69 73 75 74 76 60 50 49 53 57 57 54 52 52 48 41 39 36 34 35 44 51 53 50 47 47 50 52 50 39 39 43 55 72 97 98 98 97 97 96 85
88 77 81 82 82 81 78 64 67 56 57 60 60 60 53 51 48 45 43 41 37 31 24 23 27 35 57 58 64 63 71 67 60 50 53 64 82 99 100 99 96 97 96 95
78 81 86 91 91 69 56 63 70 66 60 61 68 71 70 66 57 60 63 50 35 27 22 18 15 20 30 30 50 70 69 75 82 74 83 92 96 98 98 96 97 96 95 86
66 74 86 86 72 73 79 76 66 62 68 73 74 74 70 62 51 48 44 36 32 28 19 9 7 8 26 21 27 60 73 81 78 90 93 95 96 95 96 97 96 96 95 72
74 77 77 73 75 77 73 69 67 69 70 72 74 74 66 52 35 20 19 23 36 44 43 38 14 5 11 14 21 42 70 72 78 84 92 96 96 97 97 97 95 96 95 95
70 75 75 77 78 78 76 75 74 74 72 69 67 65 63 59 42 26 20 17 20 17 17 11 8 7 12 32 36 39 44 82 76 76 88 94 96 96 98 96 96 96 95 94
76 77 77 77 79 79 77 75 70 66 68 66 59 52 48 38 25 17 10 9 8 6 6 6 6 6 13 23 34 40 41 61 86 78 84 93 90 92 92 95 91 95 95 93
70 78 79 79 79 80 81 81 80 74 50 34 27 20 15 12 10 9 9 9 8 6 8 10 9 16 28 43 53 54 45 47 69 86 88 92 91 93 94 91 91 97 98 91
79 80 83 88 94 93 86 77 50 32 16 12 11 10 9 10 10 10 11 11 8 12 16 18 20 29 48 54 60 67 62 50 57 74 90 97 94 94 85 86 89 95 97 94
100 95 91 90 89 68 43 21 13 12 11 10 13 25 51 44 37 30 24 17 17 28 33 36 43 54 63 65 75 70 69 57 51 63 77 93 99 96 95 91 93 97 96 95
87 87 80 58 41 20 13 13 12 11 13 45 61 55 59 57 54 29 20 22 24 42 71 89 92 97 98 94 87 80 72 68 63 63 74 98 96 96 96 96 94 95 98 95
56 47 32 22 17 16 15 11 12 20 58 57 52 59 76 70 56 29 28 57 39 70 98 97 97 97 96 97 97 93 83 76 72 70 78 84 93 100 97 95 97 96 97 96
32 30 28 21 21 27 21 12 20 47 49 49 62 76 92 86 75 69 45 76 87 96 96 95 96 98 97 96 95 99 95 85 77 79 82 83 90 96 97 96 97 96 96 96
33 33 28 26 29 35 21 17 39 38 45 53 74 86 96 93 85 100 100 91 93 80 72 72 73 72 76 85 92 97 99 94 84 86 77 72 80 93 97 97 97 97 95 96
36 35 34 33 33 31 18 24 28 30 48 58 78 75 91 99 93 91 95 94 80 86 88 90 91 94 92 89 91 94 96 97 94 85 90 95 93 96 97 98 97 97 96 95
40 39 39 32 38 24 15 22 28 31 52 55 81 86 90 99 100 95 96 92 92 91 93 97 96 95 95 93 94 95 96 95 96 95 91 90 96 99 99 99 98 97 96 96
47 47 38 35 36 17 14 22 31 40 51 54 77 87 88 96 96 96 95 78 67 83 97 96 96 96 95 95 95 98 99 96 96 97 94 96 97 98 99 98 97 96 96 96